<?xml version="1.0" encoding="UTF-8" standalone="no" ?>
<gpx xmlns="http://www.topografix.com/GPX/1/1" xmlns:xsi="http://www.w3.org/2001/XMLSchema-instance" xsi:schemaLocation="http://www.topografix.com/GPX/1/1 http://www.topografix.com/GPX/1/1/gpx.xsd" version="1.1" creator="VisuGPX - https://www.visugpx.com">
  <metadata>
    <name>guingettes marne   vincennes</name>
    <desc><![CDATA[AVF Antony
randonnée pédestre
guingettes marne   vincennes]]></desc>
  </metadata>
  <trk>
    <name><![CDATA[Track 045]]></name>
    <desc><![CDATA[4 déc. 2016 10:51 am]]></desc>
    <trkseg>
      <trkpt lat="48.82541" lon="2.4945">
        <ele>45.088</ele>
        <time>2016-12-04T09:51:41.000Z</time>
      </trkpt>
      <trkpt lat="48.82543" lon="2.4945">
        <ele>45.08</ele>
        <time>2016-12-04T09:51:41.954Z</time>
      </trkpt>
      <trkpt lat="48.82552" lon="2.49448">
        <ele>45.057</ele>
        <time>2016-12-04T09:51:49.381Z</time>
      </trkpt>
      <trkpt lat="48.82561" lon="2.49445">
        <ele>44.999</ele>
        <time>2016-12-04T09:51:56.225Z</time>
      </trkpt>
      <trkpt lat="48.8257" lon="2.49443">
        <ele>44.97</ele>
        <time>2016-12-04T09:52:03.150Z</time>
      </trkpt>
      <trkpt lat="48.82578" lon="2.4944">
        <ele>45.058</ele>
        <time>2016-12-04T09:52:10.004Z</time>
      </trkpt>
      <trkpt lat="48.82587" lon="2.49437">
        <ele>45.228</ele>
        <time>2016-12-04T09:52:16.892Z</time>
      </trkpt>
      <trkpt lat="48.82596" lon="2.49434">
        <ele>45.364</ele>
        <time>2016-12-04T09:52:23.901Z</time>
      </trkpt>
      <trkpt lat="48.82606" lon="2.49431">
        <ele>45.453</ele>
        <time>2016-12-04T09:52:31.411Z</time>
      </trkpt>
      <trkpt lat="48.82615" lon="2.49428">
        <ele>45.591</ele>
        <time>2016-12-04T09:52:39.211Z</time>
      </trkpt>
      <trkpt lat="48.82625" lon="2.49427">
        <ele>45.799</ele>
        <time>2016-12-04T09:52:47.119Z</time>
      </trkpt>
      <trkpt lat="48.82634" lon="2.49421">
        <ele>46.029</ele>
        <time>2016-12-04T09:52:55.276Z</time>
      </trkpt>
      <trkpt lat="48.82643" lon="2.49419">
        <ele>46.311</ele>
        <time>2016-12-04T09:53:03.000Z</time>
      </trkpt>
      <trkpt lat="48.82643" lon="2.49419">
        <ele>46.627</ele>
        <time>2016-12-04T09:53:15.000Z</time>
      </trkpt>
      <trkpt lat="48.82643" lon="2.49419">
        <ele>46.807</ele>
        <time>2016-12-04T09:54:59.054Z</time>
      </trkpt>
      <trkpt lat="48.82655" lon="2.49416">
        <ele>46.659</ele>
        <time>2016-12-04T09:55:24.625Z</time>
      </trkpt>
      <trkpt lat="48.82664" lon="2.49411">
        <ele>47.075</ele>
        <time>2016-12-04T09:55:31.971Z</time>
      </trkpt>
      <trkpt lat="48.82674" lon="2.49406">
        <ele>48.342</ele>
        <time>2016-12-04T09:55:38.962Z</time>
      </trkpt>
      <trkpt lat="48.82683" lon="2.49401">
        <ele>49.712</ele>
        <time>2016-12-04T09:55:46.276Z</time>
      </trkpt>
      <trkpt lat="48.82691" lon="2.49393">
        <ele>50.481</ele>
        <time>2016-12-04T09:55:53.210Z</time>
      </trkpt>
      <trkpt lat="48.827" lon="2.49386">
        <ele>50.764</ele>
        <time>2016-12-04T09:56:00.344Z</time>
      </trkpt>
      <trkpt lat="48.82709" lon="2.49379">
        <ele>50.747</ele>
        <time>2016-12-04T09:56:07.904Z</time>
      </trkpt>
      <trkpt lat="48.82718" lon="2.49371">
        <ele>50.487</ele>
        <time>2016-12-04T09:56:15.579Z</time>
      </trkpt>
      <trkpt lat="48.82726" lon="2.49366">
        <ele>50.043</ele>
        <time>2016-12-04T09:56:23.140Z</time>
      </trkpt>
      <trkpt lat="48.82734" lon="2.49374">
        <ele>49.589</ele>
        <time>2016-12-04T09:56:31.236Z</time>
      </trkpt>
      <trkpt lat="48.82741" lon="2.49384">
        <ele>49.28</ele>
        <time>2016-12-04T09:56:39.081Z</time>
      </trkpt>
      <trkpt lat="48.82751" lon="2.49387">
        <ele>49.147</ele>
        <time>2016-12-04T09:56:46.679Z</time>
      </trkpt>
      <trkpt lat="48.82759" lon="2.49381">
        <ele>49.135</ele>
        <time>2016-12-04T09:56:53.583Z</time>
      </trkpt>
      <trkpt lat="48.82768" lon="2.49376">
        <ele>49.172</ele>
        <time>2016-12-04T09:57:01.221Z</time>
      </trkpt>
      <trkpt lat="48.82777" lon="2.4937">
        <ele>49.263</ele>
        <time>2016-12-04T09:57:10.338Z</time>
      </trkpt>
      <trkpt lat="48.82783" lon="2.49358">
        <ele>49.453</ele>
        <time>2016-12-04T09:57:19.912Z</time>
      </trkpt>
      <trkpt lat="48.8279" lon="2.49349">
        <ele>49.786</ele>
        <time>2016-12-04T09:57:27.688Z</time>
      </trkpt>
      <trkpt lat="48.828" lon="2.49347">
        <ele>50.213</ele>
        <time>2016-12-04T09:57:34.617Z</time>
      </trkpt>
      <trkpt lat="48.8281" lon="2.49346">
        <ele>50.553</ele>
        <time>2016-12-04T09:57:41.830Z</time>
      </trkpt>
      <trkpt lat="48.8282" lon="2.49346">
        <ele>50.682</ele>
        <time>2016-12-04T09:57:49.143Z</time>
      </trkpt>
      <trkpt lat="48.8283" lon="2.49343">
        <ele>50.654</ele>
        <time>2016-12-04T09:57:56.024Z</time>
      </trkpt>
      <trkpt lat="48.82839" lon="2.49335">
        <ele>50.557</ele>
        <time>2016-12-04T09:58:02.997Z</time>
      </trkpt>
      <trkpt lat="48.82848" lon="2.49329">
        <ele>50.435</ele>
        <time>2016-12-04T09:58:09.804Z</time>
      </trkpt>
      <trkpt lat="48.82856" lon="2.49322">
        <ele>50.318</ele>
        <time>2016-12-04T09:58:16.382Z</time>
      </trkpt>
      <trkpt lat="48.82865" lon="2.49316">
        <ele>50.235</ele>
        <time>2016-12-04T09:58:23.306Z</time>
      </trkpt>
      <trkpt lat="48.82873" lon="2.49309">
        <ele>50.202</ele>
        <time>2016-12-04T09:58:29.945Z</time>
      </trkpt>
      <trkpt lat="48.82881" lon="2.49303">
        <ele>50.217</ele>
        <time>2016-12-04T09:58:36.921Z</time>
      </trkpt>
      <trkpt lat="48.82889" lon="2.49297">
        <ele>50.255</ele>
        <time>2016-12-04T09:58:44.257Z</time>
      </trkpt>
      <trkpt lat="48.82898" lon="2.49295">
        <ele>50.276</ele>
        <time>2016-12-04T09:58:51.739Z</time>
      </trkpt>
      <trkpt lat="48.82908" lon="2.49291">
        <ele>50.272</ele>
        <time>2016-12-04T09:58:59.403Z</time>
      </trkpt>
      <trkpt lat="48.82917" lon="2.49288">
        <ele>50.281</ele>
        <time>2016-12-04T09:59:06.117Z</time>
      </trkpt>
      <trkpt lat="48.82926" lon="2.49283">
        <ele>50.334</ele>
        <time>2016-12-04T09:59:12.846Z</time>
      </trkpt>
      <trkpt lat="48.82935" lon="2.49276">
        <ele>50.332</ele>
        <time>2016-12-04T09:59:19.840Z</time>
      </trkpt>
      <trkpt lat="48.82943" lon="2.49269">
        <ele>50.195</ele>
        <time>2016-12-04T09:59:27.205Z</time>
      </trkpt>
      <trkpt lat="48.82938" lon="2.49281">
        <ele>50.002</ele>
        <time>2016-12-04T09:59:36.000Z</time>
      </trkpt>
      <trkpt lat="48.82938" lon="2.49281">
        <ele>49.849</ele>
        <time>2016-12-04T10:00:03.000Z</time>
      </trkpt>
      <trkpt lat="48.82938" lon="2.49281">
        <ele>49.766</ele>
        <time>2016-12-04T10:00:09.525Z</time>
      </trkpt>
      <trkpt lat="48.82948" lon="2.49274">
        <ele>49.77</ele>
        <time>2016-12-04T10:00:23.299Z</time>
      </trkpt>
      <trkpt lat="48.82957" lon="2.49266">
        <ele>49.534</ele>
        <time>2016-12-04T10:00:30.399Z</time>
      </trkpt>
      <trkpt lat="48.82966" lon="2.49263">
        <ele>48.84</ele>
        <time>2016-12-04T10:00:36.819Z</time>
      </trkpt>
      <trkpt lat="48.82972" lon="2.49274">
        <ele>48.04</ele>
        <time>2016-12-04T10:00:42.508Z</time>
      </trkpt>
      <trkpt lat="48.82979" lon="2.49284">
        <ele>47.572</ele>
        <time>2016-12-04T10:00:47.788Z</time>
      </trkpt>
      <trkpt lat="48.82987" lon="2.49293">
        <ele>47.437</ele>
        <time>2016-12-04T10:00:53.000Z</time>
      </trkpt>
      <trkpt lat="48.82987" lon="2.49293">
        <ele>47.442</ele>
        <time>2016-12-04T10:01:00.000Z</time>
      </trkpt>
      <trkpt lat="48.82987" lon="2.49293">
        <ele>47.438</ele>
        <time>2016-12-04T10:01:30.138Z</time>
      </trkpt>
      <trkpt lat="48.83007" lon="2.49301">
        <ele>47.407</ele>
        <time>2016-12-04T10:01:53.719Z</time>
      </trkpt>
      <trkpt lat="48.83016" lon="2.49299">
        <ele>47.388</ele>
        <time>2016-12-04T10:02:02.535Z</time>
      </trkpt>
      <trkpt lat="48.83026" lon="2.49297">
        <ele>47.248</ele>
        <time>2016-12-04T10:02:09.867Z</time>
      </trkpt>
      <trkpt lat="48.83036" lon="2.49295">
        <ele>46.752</ele>
        <time>2016-12-04T10:02:15.722Z</time>
      </trkpt>
      <trkpt lat="48.83046" lon="2.49296">
        <ele>45.303</ele>
        <time>2016-12-04T10:02:21.470Z</time>
      </trkpt>
      <trkpt lat="48.83055" lon="2.49296">
        <ele>44.665</ele>
        <time>2016-12-04T10:02:27.432Z</time>
      </trkpt>
      <trkpt lat="48.83064" lon="2.49296">
        <ele>43.853</ele>
        <time>2016-12-04T10:02:33.996Z</time>
      </trkpt>
      <trkpt lat="48.83064" lon="2.49296">
        <ele>43.757</ele>
        <time>2016-12-04T10:02:37.996Z</time>
      </trkpt>
      <trkpt lat="48.83064" lon="2.49296">
        <ele>43.752</ele>
        <time>2016-12-04T10:02:47.725Z</time>
      </trkpt>
      <trkpt lat="48.83075" lon="2.49299">
        <ele>43.769</ele>
        <time>2016-12-04T10:03:03.272Z</time>
      </trkpt>
      <trkpt lat="48.83086" lon="2.493">
        <ele>43.771</ele>
        <time>2016-12-04T10:03:12.969Z</time>
      </trkpt>
      <trkpt lat="48.83095" lon="2.49299">
        <ele>43.801</ele>
        <time>2016-12-04T10:03:19.703Z</time>
      </trkpt>
      <trkpt lat="48.83105" lon="2.49298">
        <ele>43.913</ele>
        <time>2016-12-04T10:03:26.853Z</time>
      </trkpt>
      <trkpt lat="48.83114" lon="2.49297">
        <ele>44.463</ele>
        <time>2016-12-04T10:03:33.402Z</time>
      </trkpt>
      <trkpt lat="48.83124" lon="2.49297">
        <ele>45.69</ele>
        <time>2016-12-04T10:03:41.218Z</time>
      </trkpt>
      <trkpt lat="48.83133" lon="2.49295">
        <ele>47.037</ele>
        <time>2016-12-04T10:03:48.936Z</time>
      </trkpt>
      <trkpt lat="48.83143" lon="2.49295">
        <ele>47.856</ele>
        <time>2016-12-04T10:03:56.448Z</time>
      </trkpt>
      <trkpt lat="48.83152" lon="2.49294">
        <ele>48.18</ele>
        <time>2016-12-04T10:04:03.898Z</time>
      </trkpt>
      <trkpt lat="48.83162" lon="2.49293">
        <ele>48.339</ele>
        <time>2016-12-04T10:04:11.912Z</time>
      </trkpt>
      <trkpt lat="48.83172" lon="2.49294">
        <ele>48.539</ele>
        <time>2016-12-04T10:04:19.961Z</time>
      </trkpt>
      <trkpt lat="48.83181" lon="2.49293">
        <ele>48.504</ele>
        <time>2016-12-04T10:04:27.274Z</time>
      </trkpt>
      <trkpt lat="48.83191" lon="2.49293">
        <ele>47.954</ele>
        <time>2016-12-04T10:04:35.455Z</time>
      </trkpt>
      <trkpt lat="48.83201" lon="2.49292">
        <ele>46.82</ele>
        <time>2016-12-04T10:04:45.490Z</time>
      </trkpt>
      <trkpt lat="48.8321" lon="2.49289">
        <ele>45.314</ele>
        <time>2016-12-04T10:04:56.983Z</time>
      </trkpt>
      <trkpt lat="48.83203" lon="2.4928">
        <ele>44.097</ele>
        <time>2016-12-04T10:05:09.084Z</time>
      </trkpt>
      <trkpt lat="48.83211" lon="2.49272">
        <ele>43.672</ele>
        <time>2016-12-04T10:05:20.999Z</time>
      </trkpt>
      <trkpt lat="48.83211" lon="2.49272">
        <ele>43.639</ele>
        <time>2016-12-04T10:05:22.999Z</time>
      </trkpt>
      <trkpt lat="48.83211" lon="2.49272">
        <ele>43.603</ele>
        <time>2016-12-04T10:05:23.099Z</time>
      </trkpt>
      <trkpt lat="48.83202" lon="2.49274">
        <ele>43.582</ele>
        <time>2016-12-04T10:05:35.999Z</time>
      </trkpt>
      <trkpt lat="48.83202" lon="2.49274">
        <ele>43.577</ele>
        <time>2016-12-04T10:05:42.999Z</time>
      </trkpt>
      <trkpt lat="48.83202" lon="2.49274">
        <ele>43.558</ele>
        <time>2016-12-04T10:06:03.045Z</time>
      </trkpt>
      <trkpt lat="48.83191" lon="2.49277">
        <ele>43.525</ele>
        <time>2016-12-04T10:06:19.350Z</time>
      </trkpt>
      <trkpt lat="48.83184" lon="2.49269">
        <ele>42.962</ele>
        <time>2016-12-04T10:06:28.167Z</time>
      </trkpt>
      <trkpt lat="48.83184" lon="2.49253">
        <ele>41.504</ele>
        <time>2016-12-04T10:06:36.744Z</time>
      </trkpt>
      <trkpt lat="48.83182" lon="2.4924">
        <ele>40.037</ele>
        <time>2016-12-04T10:06:43.090Z</time>
      </trkpt>
      <trkpt lat="48.83181" lon="2.49225">
        <ele>39.414</ele>
        <time>2016-12-04T10:06:49.661Z</time>
      </trkpt>
      <trkpt lat="48.8318" lon="2.4921">
        <ele>39.412</ele>
        <time>2016-12-04T10:06:56.295Z</time>
      </trkpt>
      <trkpt lat="48.83179" lon="2.49196">
        <ele>39.656</ele>
        <time>2016-12-04T10:07:03.047Z</time>
      </trkpt>
      <trkpt lat="48.83178" lon="2.4918">
        <ele>39.952</ele>
        <time>2016-12-04T10:07:10.630Z</time>
      </trkpt>
      <trkpt lat="48.83182" lon="2.49168">
        <ele>40.118</ele>
        <time>2016-12-04T10:07:17.905Z</time>
      </trkpt>
      <trkpt lat="48.83183" lon="2.49153">
        <ele>40.07</ele>
        <time>2016-12-04T10:07:25.661Z</time>
      </trkpt>
      <trkpt lat="48.83182" lon="2.49139">
        <ele>40.098</ele>
        <time>2016-12-04T10:07:33.006Z</time>
      </trkpt>
      <trkpt lat="48.83181" lon="2.49124">
        <ele>40.423</ele>
        <time>2016-12-04T10:07:40.571Z</time>
      </trkpt>
      <trkpt lat="48.8318" lon="2.4911">
        <ele>40.755</ele>
        <time>2016-12-04T10:07:47.449Z</time>
      </trkpt>
      <trkpt lat="48.8318" lon="2.49096">
        <ele>40.797</ele>
        <time>2016-12-04T10:07:54.604Z</time>
      </trkpt>
      <trkpt lat="48.8318" lon="2.49082">
        <ele>40.672</ele>
        <time>2016-12-04T10:08:02.312Z</time>
      </trkpt>
      <trkpt lat="48.83178" lon="2.49067">
        <ele>40.493</ele>
        <time>2016-12-04T10:08:11.183Z</time>
      </trkpt>
      <trkpt lat="48.83178" lon="2.49052">
        <ele>40.156</ele>
        <time>2016-12-04T10:08:19.235Z</time>
      </trkpt>
      <trkpt lat="48.83179" lon="2.49038">
        <ele>39.599</ele>
        <time>2016-12-04T10:08:26.973Z</time>
      </trkpt>
      <trkpt lat="48.83179" lon="2.49022">
        <ele>39.01</ele>
        <time>2016-12-04T10:08:34.878Z</time>
      </trkpt>
      <trkpt lat="48.83177" lon="2.49008">
        <ele>38.639</ele>
        <time>2016-12-04T10:08:42.113Z</time>
      </trkpt>
      <trkpt lat="48.83178" lon="2.48994">
        <ele>38.42</ele>
        <time>2016-12-04T10:08:49.862Z</time>
      </trkpt>
      <trkpt lat="48.8318" lon="2.48979">
        <ele>38.067</ele>
        <time>2016-12-04T10:08:58.572Z</time>
      </trkpt>
      <trkpt lat="48.8318" lon="2.48964">
        <ele>37.579</ele>
        <time>2016-12-04T10:09:06.841Z</time>
      </trkpt>
      <trkpt lat="48.83179" lon="2.4895">
        <ele>37.173</ele>
        <time>2016-12-04T10:09:13.999Z</time>
      </trkpt>
      <trkpt lat="48.83179" lon="2.4895">
        <ele>36.966</ele>
        <time>2016-12-04T10:09:19.999Z</time>
      </trkpt>
      <trkpt lat="48.83179" lon="2.4895">
        <ele>36.927</ele>
        <time>2016-12-04T10:09:23.625Z</time>
      </trkpt>
      <trkpt lat="48.83179" lon="2.48932">
        <ele>36.971</ele>
        <time>2016-12-04T10:09:34.999Z</time>
      </trkpt>
      <trkpt lat="48.83179" lon="2.48932">
        <ele>37.012</ele>
        <time>2016-12-04T10:09:43.999Z</time>
      </trkpt>
      <trkpt lat="48.83179" lon="2.48932">
        <ele>37.013</ele>
        <time>2016-12-04T10:09:47.326Z</time>
      </trkpt>
      <trkpt lat="48.83178" lon="2.489">
        <ele>36.984</ele>
        <time>2016-12-04T10:10:13.123Z</time>
      </trkpt>
      <trkpt lat="48.83179" lon="2.48884">
        <ele>36.968</ele>
        <time>2016-12-04T10:10:21.613Z</time>
      </trkpt>
      <trkpt lat="48.83183" lon="2.48872">
        <ele>36.879</ele>
        <time>2016-12-04T10:10:29.715Z</time>
      </trkpt>
      <trkpt lat="48.83182" lon="2.48857">
        <ele>36.545</ele>
        <time>2016-12-04T10:10:38.070Z</time>
      </trkpt>
      <trkpt lat="48.83184" lon="2.48842">
        <ele>35.944</ele>
        <time>2016-12-04T10:10:45.310Z</time>
      </trkpt>
      <trkpt lat="48.83185" lon="2.48827">
        <ele>35.323</ele>
        <time>2016-12-04T10:10:52.559Z</time>
      </trkpt>
      <trkpt lat="48.83184" lon="2.48812">
        <ele>34.948</ele>
        <time>2016-12-04T10:10:59.571Z</time>
      </trkpt>
      <trkpt lat="48.83185" lon="2.48797">
        <ele>34.975</ele>
        <time>2016-12-04T10:11:06.846Z</time>
      </trkpt>
      <trkpt lat="48.83186" lon="2.48784">
        <ele>35.385</ele>
        <time>2016-12-04T10:11:13.670Z</time>
      </trkpt>
      <trkpt lat="48.83188" lon="2.4877">
        <ele>35.919</ele>
        <time>2016-12-04T10:11:20.168Z</time>
      </trkpt>
      <trkpt lat="48.83189" lon="2.48755">
        <ele>36.305</ele>
        <time>2016-12-04T10:11:26.929Z</time>
      </trkpt>
      <trkpt lat="48.8319" lon="2.48741">
        <ele>36.518</ele>
        <time>2016-12-04T10:11:32.862Z</time>
      </trkpt>
      <trkpt lat="48.83189" lon="2.48726">
        <ele>36.738</ele>
        <time>2016-12-04T10:11:39.405Z</time>
      </trkpt>
      <trkpt lat="48.83189" lon="2.48712">
        <ele>37.208</ele>
        <time>2016-12-04T10:11:45.964Z</time>
      </trkpt>
      <trkpt lat="48.8319" lon="2.48698">
        <ele>37.962</ele>
        <time>2016-12-04T10:11:52.611Z</time>
      </trkpt>
      <trkpt lat="48.83192" lon="2.48683">
        <ele>38.813</ele>
        <time>2016-12-04T10:12:00.103Z</time>
      </trkpt>
      <trkpt lat="48.83192" lon="2.48668">
        <ele>39.59</ele>
        <time>2016-12-04T10:12:08.126Z</time>
      </trkpt>
      <trkpt lat="48.83192" lon="2.48654">
        <ele>40.227</ele>
        <time>2016-12-04T10:12:15.908Z</time>
      </trkpt>
      <trkpt lat="48.83194" lon="2.48639">
        <ele>40.738</ele>
        <time>2016-12-04T10:12:24.041Z</time>
      </trkpt>
      <trkpt lat="48.83195" lon="2.48625">
        <ele>41.155</ele>
        <time>2016-12-04T10:12:30.963Z</time>
      </trkpt>
      <trkpt lat="48.83194" lon="2.4861">
        <ele>41.444</ele>
        <time>2016-12-04T10:12:38.079Z</time>
      </trkpt>
      <trkpt lat="48.83186" lon="2.48603">
        <ele>41.519</ele>
        <time>2016-12-04T10:12:45.441Z</time>
      </trkpt>
      <trkpt lat="48.83177" lon="2.48599">
        <ele>41.32</ele>
        <time>2016-12-04T10:12:52.857Z</time>
      </trkpt>
      <trkpt lat="48.83171" lon="2.48588">
        <ele>40.868</ele>
        <time>2016-12-04T10:13:00.436Z</time>
      </trkpt>
      <trkpt lat="48.83172" lon="2.48574">
        <ele>40.339</ele>
        <time>2016-12-04T10:13:07.979Z</time>
      </trkpt>
      <trkpt lat="48.83175" lon="2.4856">
        <ele>39.878</ele>
        <time>2016-12-04T10:13:15.000Z</time>
      </trkpt>
      <trkpt lat="48.83175" lon="2.4856">
        <ele>39.517</ele>
        <time>2016-12-04T10:13:18.000Z</time>
      </trkpt>
      <trkpt lat="48.83175" lon="2.4856">
        <ele>39.32</ele>
        <time>2016-12-04T10:13:29.956Z</time>
      </trkpt>
      <trkpt lat="48.8318" lon="2.48548">
        <ele>39.32</ele>
        <time>2016-12-04T10:13:42.645Z</time>
      </trkpt>
      <trkpt lat="48.83182" lon="2.48535">
        <ele>39.286</ele>
        <time>2016-12-04T10:13:52.670Z</time>
      </trkpt>
      <trkpt lat="48.83185" lon="2.48522">
        <ele>39.048</ele>
        <time>2016-12-04T10:14:01.939Z</time>
      </trkpt>
      <trkpt lat="48.83187" lon="2.48507">
        <ele>38.792</ele>
        <time>2016-12-04T10:14:09.442Z</time>
      </trkpt>
      <trkpt lat="48.83187" lon="2.48493">
        <ele>38.744</ele>
        <time>2016-12-04T10:14:16.319Z</time>
      </trkpt>
      <trkpt lat="48.83188" lon="2.48479">
        <ele>38.881</ele>
        <time>2016-12-04T10:14:23.026Z</time>
      </trkpt>
      <trkpt lat="48.8319" lon="2.48464">
        <ele>39.183</ele>
        <time>2016-12-04T10:14:30.850Z</time>
      </trkpt>
      <trkpt lat="48.83191" lon="2.48449">
        <ele>39.725</ele>
        <time>2016-12-04T10:14:38.673Z</time>
      </trkpt>
      <trkpt lat="48.83194" lon="2.48434">
        <ele>40.381</ele>
        <time>2016-12-04T10:14:46.507Z</time>
      </trkpt>
      <trkpt lat="48.83195" lon="2.4842">
        <ele>40.854</ele>
        <time>2016-12-04T10:14:53.772Z</time>
      </trkpt>
      <trkpt lat="48.83196" lon="2.48405">
        <ele>41.006</ele>
        <time>2016-12-04T10:15:01.274Z</time>
      </trkpt>
      <trkpt lat="48.83199" lon="2.48392">
        <ele>40.907</ele>
        <time>2016-12-04T10:15:09.233Z</time>
      </trkpt>
      <trkpt lat="48.83209" lon="2.48386">
        <ele>40.675</ele>
        <time>2016-12-04T10:15:17.474Z</time>
      </trkpt>
      <trkpt lat="48.83218" lon="2.48382">
        <ele>40.419</ele>
        <time>2016-12-04T10:15:25.027Z</time>
      </trkpt>
      <trkpt lat="48.83223" lon="2.48369">
        <ele>40.245</ele>
        <time>2016-12-04T10:15:32.548Z</time>
      </trkpt>
      <trkpt lat="48.83223" lon="2.48355">
        <ele>40.273</ele>
        <time>2016-12-04T10:15:39.808Z</time>
      </trkpt>
      <trkpt lat="48.83227" lon="2.48342">
        <ele>40.494</ele>
        <time>2016-12-04T10:15:47.372Z</time>
      </trkpt>
      <trkpt lat="48.83229" lon="2.48327">
        <ele>40.743</ele>
        <time>2016-12-04T10:15:55.266Z</time>
      </trkpt>
      <trkpt lat="48.8323" lon="2.48313">
        <ele>40.878</ele>
        <time>2016-12-04T10:16:03.045Z</time>
      </trkpt>
      <trkpt lat="48.83232" lon="2.48299">
        <ele>40.862</ele>
        <time>2016-12-04T10:16:11.546Z</time>
      </trkpt>
      <trkpt lat="48.83233" lon="2.48285">
        <ele>40.704</ele>
        <time>2016-12-04T10:16:20.514Z</time>
      </trkpt>
      <trkpt lat="48.83234" lon="2.48269">
        <ele>40.45</ele>
        <time>2016-12-04T10:16:27.949Z</time>
      </trkpt>
      <trkpt lat="48.83234" lon="2.48254">
        <ele>40.184</ele>
        <time>2016-12-04T10:16:34.498Z</time>
      </trkpt>
      <trkpt lat="48.83234" lon="2.4824">
        <ele>39.983</ele>
        <time>2016-12-04T10:16:41.195Z</time>
      </trkpt>
      <trkpt lat="48.83235" lon="2.48225">
        <ele>39.86</ele>
        <time>2016-12-04T10:16:48.567Z</time>
      </trkpt>
      <trkpt lat="48.83236" lon="2.48211">
        <ele>39.773</ele>
        <time>2016-12-04T10:16:54.328Z</time>
      </trkpt>
      <trkpt lat="48.83234" lon="2.48196">
        <ele>39.705</ele>
        <time>2016-12-04T10:17:00.185Z</time>
      </trkpt>
      <trkpt lat="48.83231" lon="2.48182">
        <ele>39.661</ele>
        <time>2016-12-04T10:17:05.946Z</time>
      </trkpt>
      <trkpt lat="48.8323" lon="2.48166">
        <ele>39.698</ele>
        <time>2016-12-04T10:17:12.619Z</time>
      </trkpt>
      <trkpt lat="48.8323" lon="2.48152">
        <ele>39.832</ele>
        <time>2016-12-04T10:17:18.975Z</time>
      </trkpt>
      <trkpt lat="48.83231" lon="2.48137">
        <ele>39.964</ele>
        <time>2016-12-04T10:17:26.009Z</time>
      </trkpt>
      <trkpt lat="48.8323" lon="2.48122">
        <ele>40.005</ele>
        <time>2016-12-04T10:17:33.555Z</time>
      </trkpt>
      <trkpt lat="48.8323" lon="2.48109">
        <ele>39.987</ele>
        <time>2016-12-04T10:17:40.773Z</time>
      </trkpt>
      <trkpt lat="48.8323" lon="2.48093">
        <ele>39.941</ele>
        <time>2016-12-04T10:17:48.706Z</time>
      </trkpt>
      <trkpt lat="48.83229" lon="2.48079">
        <ele>39.877</ele>
        <time>2016-12-04T10:17:56.371Z</time>
      </trkpt>
      <trkpt lat="48.83229" lon="2.48065">
        <ele>39.832</ele>
        <time>2016-12-04T10:18:04.217Z</time>
      </trkpt>
      <trkpt lat="48.83227" lon="2.4805">
        <ele>39.864</ele>
        <time>2016-12-04T10:18:12.191Z</time>
      </trkpt>
      <trkpt lat="48.83226" lon="2.48036">
        <ele>40.015</ele>
        <time>2016-12-04T10:18:19.460Z</time>
      </trkpt>
      <trkpt lat="48.83224" lon="2.48021">
        <ele>40.236</ele>
        <time>2016-12-04T10:18:27.456Z</time>
      </trkpt>
      <trkpt lat="48.83224" lon="2.48007">
        <ele>40.452</ele>
        <time>2016-12-04T10:18:36.000Z</time>
      </trkpt>
      <trkpt lat="48.83224" lon="2.48007">
        <ele>40.588</ele>
        <time>2016-12-04T10:19:15.000Z</time>
      </trkpt>
      <trkpt lat="48.83224" lon="2.48007">
        <ele>40.6</ele>
        <time>2016-12-04T10:19:15.100Z</time>
      </trkpt>
      <trkpt lat="48.83222" lon="2.4799">
        <ele>40.533</ele>
        <time>2016-12-04T10:19:53.183Z</time>
      </trkpt>
      <trkpt lat="48.83219" lon="2.47975">
        <ele>40.532</ele>
        <time>2016-12-04T10:20:01.833Z</time>
      </trkpt>
      <trkpt lat="48.83215" lon="2.47963">
        <ele>40.476</ele>
        <time>2016-12-04T10:20:08.673Z</time>
      </trkpt>
      <trkpt lat="48.83212" lon="2.47948">
        <ele>40.214</ele>
        <time>2016-12-04T10:20:15.942Z</time>
      </trkpt>
      <trkpt lat="48.83208" lon="2.47935">
        <ele>39.754</ele>
        <time>2016-12-04T10:20:22.829Z</time>
      </trkpt>
      <trkpt lat="48.83205" lon="2.4792">
        <ele>39.36</ele>
        <time>2016-12-04T10:20:29.582Z</time>
      </trkpt>
      <trkpt lat="48.83203" lon="2.47905">
        <ele>39.21</ele>
        <time>2016-12-04T10:20:36.613Z</time>
      </trkpt>
      <trkpt lat="48.83201" lon="2.47892">
        <ele>39.276</ele>
        <time>2016-12-04T10:20:43.000Z</time>
      </trkpt>
      <trkpt lat="48.83201" lon="2.47892">
        <ele>39.459</ele>
        <time>2016-12-04T10:20:57.000Z</time>
      </trkpt>
      <trkpt lat="48.83201" lon="2.47892">
        <ele>39.588</ele>
        <time>2016-12-04T10:21:07.878Z</time>
      </trkpt>
      <trkpt lat="48.83198" lon="2.47871">
        <ele>39.568</ele>
        <time>2016-12-04T10:21:26.134Z</time>
      </trkpt>
      <trkpt lat="48.83196" lon="2.47857">
        <ele>39.667</ele>
        <time>2016-12-04T10:21:34.340Z</time>
      </trkpt>
      <trkpt lat="48.83196" lon="2.47842">
        <ele>40.096</ele>
        <time>2016-12-04T10:21:43.298Z</time>
      </trkpt>
      <trkpt lat="48.83194" lon="2.47827">
        <ele>40.534</ele>
        <time>2016-12-04T10:21:52.675Z</time>
      </trkpt>
      <trkpt lat="48.83195" lon="2.47812">
        <ele>40.658</ele>
        <time>2016-12-04T10:22:01.593Z</time>
      </trkpt>
      <trkpt lat="48.83194" lon="2.47798">
        <ele>40.697</ele>
        <time>2016-12-04T10:22:09.776Z</time>
      </trkpt>
      <trkpt lat="48.83193" lon="2.47783">
        <ele>40.904</ele>
        <time>2016-12-04T10:22:18.035Z</time>
      </trkpt>
      <trkpt lat="48.83199" lon="2.47771">
        <ele>41.202</ele>
        <time>2016-12-04T10:22:25.981Z</time>
      </trkpt>
      <trkpt lat="48.83206" lon="2.47761">
        <ele>41.448</ele>
        <time>2016-12-04T10:22:33.659Z</time>
      </trkpt>
      <trkpt lat="48.83213" lon="2.47751">
        <ele>41.629</ele>
        <time>2016-12-04T10:22:40.625Z</time>
      </trkpt>
      <trkpt lat="48.83219" lon="2.47738">
        <ele>41.79</ele>
        <time>2016-12-04T10:22:48.223Z</time>
      </trkpt>
      <trkpt lat="48.83226" lon="2.47726">
        <ele>41.999</ele>
        <time>2016-12-04T10:22:55.690Z</time>
      </trkpt>
      <trkpt lat="48.8323" lon="2.47714">
        <ele>42.24</ele>
        <time>2016-12-04T10:23:02.584Z</time>
      </trkpt>
      <trkpt lat="48.83237" lon="2.47704">
        <ele>42.429</ele>
        <time>2016-12-04T10:23:10.354Z</time>
      </trkpt>
      <trkpt lat="48.83246" lon="2.47707">
        <ele>42.542</ele>
        <time>2016-12-04T10:23:19.765Z</time>
      </trkpt>
      <trkpt lat="48.83249" lon="2.47694">
        <ele>42.621</ele>
        <time>2016-12-04T10:23:31.054Z</time>
      </trkpt>
      <trkpt lat="48.83253" lon="2.47682">
        <ele>42.706</ele>
        <time>2016-12-04T10:23:41.045Z</time>
      </trkpt>
      <trkpt lat="48.83263" lon="2.47682">
        <ele>42.893</ele>
        <time>2016-12-04T10:23:49.622Z</time>
      </trkpt>
      <trkpt lat="48.83273" lon="2.47679">
        <ele>43.266</ele>
        <time>2016-12-04T10:23:58.208Z</time>
      </trkpt>
      <trkpt lat="48.83283" lon="2.47679">
        <ele>43.826</ele>
        <time>2016-12-04T10:24:06.248Z</time>
      </trkpt>
      <trkpt lat="48.83292" lon="2.47678">
        <ele>44.452</ele>
        <time>2016-12-04T10:24:13.285Z</time>
      </trkpt>
      <trkpt lat="48.83301" lon="2.47674">
        <ele>44.913</ele>
        <time>2016-12-04T10:24:21.419Z</time>
      </trkpt>
      <trkpt lat="48.83309" lon="2.47664">
        <ele>45.148</ele>
        <time>2016-12-04T10:24:30.360Z</time>
      </trkpt>
      <trkpt lat="48.8331" lon="2.47651">
        <ele>45.477</ele>
        <time>2016-12-04T10:24:39.588Z</time>
      </trkpt>
      <trkpt lat="48.8331" lon="2.47636">
        <ele>46.05</ele>
        <time>2016-12-04T10:24:48.984Z</time>
      </trkpt>
      <trkpt lat="48.83308" lon="2.47622">
        <ele>46.432</ele>
        <time>2016-12-04T10:24:58.337Z</time>
      </trkpt>
      <trkpt lat="48.83305" lon="2.47608">
        <ele>46.233</ele>
        <time>2016-12-04T10:25:06.399Z</time>
      </trkpt>
      <trkpt lat="48.83306" lon="2.47594">
        <ele>45.643</ele>
        <time>2016-12-04T10:25:14.390Z</time>
      </trkpt>
      <trkpt lat="48.83305" lon="2.4758">
        <ele>45.062</ele>
        <time>2016-12-04T10:25:22.446Z</time>
      </trkpt>
      <trkpt lat="48.83307" lon="2.47566">
        <ele>44.712</ele>
        <time>2016-12-04T10:25:30.709Z</time>
      </trkpt>
      <trkpt lat="48.8331" lon="2.47553">
        <ele>44.589</ele>
        <time>2016-12-04T10:25:39.557Z</time>
      </trkpt>
      <trkpt lat="48.83314" lon="2.47539">
        <ele>44.584</ele>
        <time>2016-12-04T10:25:48.854Z</time>
      </trkpt>
      <trkpt lat="48.8332" lon="2.47528">
        <ele>44.669</ele>
        <time>2016-12-04T10:25:56.799Z</time>
      </trkpt>
      <trkpt lat="48.83326" lon="2.47518">
        <ele>45.026</ele>
        <time>2016-12-04T10:26:04.215Z</time>
      </trkpt>
      <trkpt lat="48.83328" lon="2.47504">
        <ele>45.873</ele>
        <time>2016-12-04T10:26:12.783Z</time>
      </trkpt>
      <trkpt lat="48.83332" lon="2.47492">
        <ele>47.263</ele>
        <time>2016-12-04T10:26:22.000Z</time>
      </trkpt>
      <trkpt lat="48.83332" lon="2.47492">
        <ele>48.823</ele>
        <time>2016-12-04T10:26:36.000Z</time>
      </trkpt>
      <trkpt lat="48.83332" lon="2.47492">
        <ele>49.729</ele>
        <time>2016-12-04T10:27:41.360Z</time>
      </trkpt>
      <trkpt lat="48.83337" lon="2.47469">
        <ele>49.647</ele>
        <time>2016-12-04T10:28:00.325Z</time>
      </trkpt>
      <trkpt lat="48.83345" lon="2.47463">
        <ele>50.219</ele>
        <time>2016-12-04T10:28:11.050Z</time>
      </trkpt>
      <trkpt lat="48.83351" lon="2.47452">
        <ele>52.844</ele>
        <time>2016-12-04T10:28:20.518Z</time>
      </trkpt>
      <trkpt lat="48.83356" lon="2.4744">
        <ele>56.32</ele>
        <time>2016-12-04T10:28:28.744Z</time>
      </trkpt>
      <trkpt lat="48.83361" lon="2.47427">
        <ele>58.871</ele>
        <time>2016-12-04T10:28:37.249Z</time>
      </trkpt>
      <trkpt lat="48.83366" lon="2.47415">
        <ele>60.208</ele>
        <time>2016-12-04T10:28:45.856Z</time>
      </trkpt>
      <trkpt lat="48.83373" lon="2.47405">
        <ele>60.691</ele>
        <time>2016-12-04T10:28:54.314Z</time>
      </trkpt>
      <trkpt lat="48.83379" lon="2.47394">
        <ele>60.831</ele>
        <time>2016-12-04T10:29:02.758Z</time>
      </trkpt>
      <trkpt lat="48.83386" lon="2.47385">
        <ele>60.999</ele>
        <time>2016-12-04T10:29:10.906Z</time>
      </trkpt>
      <trkpt lat="48.83394" lon="2.47379">
        <ele>61.411</ele>
        <time>2016-12-04T10:29:18.705Z</time>
      </trkpt>
      <trkpt lat="48.83402" lon="2.47372">
        <ele>62.037</ele>
        <time>2016-12-04T10:29:26.190Z</time>
      </trkpt>
      <trkpt lat="48.8341" lon="2.47366">
        <ele>62.694</ele>
        <time>2016-12-04T10:29:34.051Z</time>
      </trkpt>
      <trkpt lat="48.83418" lon="2.47359">
        <ele>63.21</ele>
        <time>2016-12-04T10:29:42.082Z</time>
      </trkpt>
      <trkpt lat="48.83426" lon="2.47352">
        <ele>63.663</ele>
        <time>2016-12-04T10:29:50.095Z</time>
      </trkpt>
      <trkpt lat="48.83434" lon="2.47343">
        <ele>64.268</ele>
        <time>2016-12-04T10:29:58.493Z</time>
      </trkpt>
      <trkpt lat="48.83444" lon="2.47343">
        <ele>64.955</ele>
        <time>2016-12-04T10:30:07.701Z</time>
      </trkpt>
      <trkpt lat="48.83453" lon="2.47348">
        <ele>65.443</ele>
        <time>2016-12-04T10:30:16.780Z</time>
      </trkpt>
      <trkpt lat="48.83462" lon="2.47343">
        <ele>65.712</ele>
        <time>2016-12-04T10:30:24.446Z</time>
      </trkpt>
      <trkpt lat="48.83468" lon="2.47333">
        <ele>66.027</ele>
        <time>2016-12-04T10:30:31.550Z</time>
      </trkpt>
      <trkpt lat="48.83474" lon="2.47322">
        <ele>66.515</ele>
        <time>2016-12-04T10:30:39.000Z</time>
      </trkpt>
      <trkpt lat="48.83474" lon="2.47322">
        <ele>66.946</ele>
        <time>2016-12-04T10:30:39.000Z</time>
      </trkpt>
      <trkpt lat="48.83474" lon="2.47322">
        <ele>67.102</ele>
        <time>2016-12-04T10:31:47.283Z</time>
      </trkpt>
      <trkpt lat="48.83481" lon="2.47303">
        <ele>66.936</ele>
        <time>2016-12-04T10:32:05.985Z</time>
      </trkpt>
      <trkpt lat="48.83482" lon="2.47287">
        <ele>67.039</ele>
        <time>2016-12-04T10:32:13.616Z</time>
      </trkpt>
      <trkpt lat="48.83477" lon="2.47276">
        <ele>67.556</ele>
        <time>2016-12-04T10:32:20.707Z</time>
      </trkpt>
      <trkpt lat="48.83469" lon="2.4727">
        <ele>68.275</ele>
        <time>2016-12-04T10:32:28.099Z</time>
      </trkpt>
      <trkpt lat="48.8346" lon="2.47266">
        <ele>68.797</ele>
        <time>2016-12-04T10:32:35.760Z</time>
      </trkpt>
      <trkpt lat="48.8345" lon="2.47266">
        <ele>69.011</ele>
        <time>2016-12-04T10:32:43.068Z</time>
      </trkpt>
      <trkpt lat="48.83442" lon="2.47256">
        <ele>69.027</ele>
        <time>2016-12-04T10:32:50.387Z</time>
      </trkpt>
      <trkpt lat="48.83434" lon="2.47247">
        <ele>68.847</ele>
        <time>2016-12-04T10:32:58.429Z</time>
      </trkpt>
      <trkpt lat="48.83425" lon="2.47242">
        <ele>68.462</ele>
        <time>2016-12-04T10:33:06.508Z</time>
      </trkpt>
      <trkpt lat="48.83415" lon="2.47234">
        <ele>68.201</ele>
        <time>2016-12-04T10:33:13.323Z</time>
      </trkpt>
      <trkpt lat="48.83407" lon="2.47226">
        <ele>68.314</ele>
        <time>2016-12-04T10:33:21.320Z</time>
      </trkpt>
      <trkpt lat="48.83398" lon="2.47217">
        <ele>68.524</ele>
        <time>2016-12-04T10:33:30.017Z</time>
      </trkpt>
      <trkpt lat="48.8339" lon="2.47208">
        <ele>68.347</ele>
        <time>2016-12-04T10:33:36.544Z</time>
      </trkpt>
      <trkpt lat="48.83383" lon="2.47201">
        <ele>67.62</ele>
        <time>2016-12-04T10:33:41.485Z</time>
      </trkpt>
      <trkpt lat="48.83375" lon="2.47193">
        <ele>66.59</ele>
        <time>2016-12-04T10:33:46.881Z</time>
      </trkpt>
      <trkpt lat="48.83367" lon="2.47186">
        <ele>65.629</ele>
        <time>2016-12-04T10:33:52.598Z</time>
      </trkpt>
      <trkpt lat="48.83359" lon="2.4718">
        <ele>64.987</ele>
        <time>2016-12-04T10:33:58.723Z</time>
      </trkpt>
      <trkpt lat="48.83352" lon="2.47167">
        <ele>64.772</ele>
        <time>2016-12-04T10:34:05.629Z</time>
      </trkpt>
      <trkpt lat="48.83346" lon="2.47155">
        <ele>64.873</ele>
        <time>2016-12-04T10:34:11.153Z</time>
      </trkpt>
      <trkpt lat="48.8334" lon="2.47144">
        <ele>65.06</ele>
        <time>2016-12-04T10:34:16.700Z</time>
      </trkpt>
      <trkpt lat="48.83335" lon="2.47131">
        <ele>65.16</ele>
        <time>2016-12-04T10:34:22.868Z</time>
      </trkpt>
      <trkpt lat="48.83337" lon="2.47117">
        <ele>65.177</ele>
        <time>2016-12-04T10:34:30.220Z</time>
      </trkpt>
      <trkpt lat="48.8334" lon="2.47103">
        <ele>65.255</ele>
        <time>2016-12-04T10:34:38.000Z</time>
      </trkpt>
      <trkpt lat="48.8334" lon="2.47103">
        <ele>65.45</ele>
        <time>2016-12-04T10:34:46.000Z</time>
      </trkpt>
      <trkpt lat="48.8334" lon="2.47103">
        <ele>65.59</ele>
        <time>2016-12-04T10:35:16.746Z</time>
      </trkpt>
      <trkpt lat="48.83347" lon="2.47093">
        <ele>65.452</ele>
        <time>2016-12-04T10:35:38.020Z</time>
      </trkpt>
      <trkpt lat="48.83352" lon="2.4708">
        <ele>66.22</ele>
        <time>2016-12-04T10:35:47.827Z</time>
      </trkpt>
      <trkpt lat="48.83359" lon="2.47069">
        <ele>68.451</ele>
        <time>2016-12-04T10:35:56.640Z</time>
      </trkpt>
      <trkpt lat="48.83365" lon="2.47059">
        <ele>71.127</ele>
        <time>2016-12-04T10:36:04.834Z</time>
      </trkpt>
      <trkpt lat="48.83372" lon="2.47048">
        <ele>73.038</ele>
        <time>2016-12-04T10:36:12.888Z</time>
      </trkpt>
      <trkpt lat="48.8338" lon="2.47039">
        <ele>73.873</ele>
        <time>2016-12-04T10:36:20.416Z</time>
      </trkpt>
      <trkpt lat="48.83387" lon="2.47031">
        <ele>73.776</ele>
        <time>2016-12-04T10:36:27.755Z</time>
      </trkpt>
      <trkpt lat="48.83394" lon="2.47021">
        <ele>73.316</ele>
        <time>2016-12-04T10:36:36.002Z</time>
      </trkpt>
      <trkpt lat="48.834" lon="2.4701">
        <ele>72.708</ele>
        <time>2016-12-04T10:36:44.591Z</time>
      </trkpt>
      <trkpt lat="48.83407" lon="2.47001">
        <ele>71.95</ele>
        <time>2016-12-04T10:36:52.581Z</time>
      </trkpt>
      <trkpt lat="48.83414" lon="2.46991">
        <ele>71.359</ele>
        <time>2016-12-04T10:37:00.482Z</time>
      </trkpt>
      <trkpt lat="48.83422" lon="2.46982">
        <ele>71.17</ele>
        <time>2016-12-04T10:37:08.229Z</time>
      </trkpt>
      <trkpt lat="48.83429" lon="2.46973">
        <ele>71.19</ele>
        <time>2016-12-04T10:37:15.923Z</time>
      </trkpt>
      <trkpt lat="48.83436" lon="2.46963">
        <ele>71.193</ele>
        <time>2016-12-04T10:37:23.057Z</time>
      </trkpt>
      <trkpt lat="48.83443" lon="2.46954">
        <ele>71.022</ele>
        <time>2016-12-04T10:37:30.173Z</time>
      </trkpt>
      <trkpt lat="48.83449" lon="2.46943">
        <ele>70.104</ele>
        <time>2016-12-04T10:37:37.339Z</time>
      </trkpt>
      <trkpt lat="48.83448" lon="2.46929">
        <ele>68.252</ele>
        <time>2016-12-04T10:37:45.000Z</time>
      </trkpt>
      <trkpt lat="48.83448" lon="2.46929">
        <ele>66.465</ele>
        <time>2016-12-04T10:37:51.000Z</time>
      </trkpt>
      <trkpt lat="48.83448" lon="2.46929">
        <ele>65.682</ele>
        <time>2016-12-04T10:39:14.570Z</time>
      </trkpt>
      <trkpt lat="48.83448" lon="2.46915">
        <ele>65.753</ele>
        <time>2016-12-04T10:39:28.121Z</time>
      </trkpt>
      <trkpt lat="48.83444" lon="2.46903">
        <ele>65.693</ele>
        <time>2016-12-04T10:39:35.306Z</time>
      </trkpt>
      <trkpt lat="48.83445" lon="2.46888">
        <ele>64.851</ele>
        <time>2016-12-04T10:39:42.377Z</time>
      </trkpt>
      <trkpt lat="48.83451" lon="2.46877">
        <ele>63.932</ele>
        <time>2016-12-04T10:39:49.598Z</time>
      </trkpt>
      <trkpt lat="48.8346" lon="2.46875">
        <ele>63.693</ele>
        <time>2016-12-04T10:39:57.000Z</time>
      </trkpt>
      <trkpt lat="48.8346" lon="2.46875">
        <ele>63.88</ele>
        <time>2016-12-04T10:40:11.000Z</time>
      </trkpt>
      <trkpt lat="48.8346" lon="2.46875">
        <ele>64.025</ele>
        <time>2016-12-04T10:40:11.100Z</time>
      </trkpt>
      <trkpt lat="48.8347" lon="2.46856">
        <ele>63.966</ele>
        <time>2016-12-04T10:40:29.749Z</time>
      </trkpt>
      <trkpt lat="48.83476" lon="2.46844">
        <ele>63.602</ele>
        <time>2016-12-04T10:40:36.896Z</time>
      </trkpt>
      <trkpt lat="48.83482" lon="2.46832">
        <ele>62.971</ele>
        <time>2016-12-04T10:40:43.631Z</time>
      </trkpt>
      <trkpt lat="48.83488" lon="2.46821">
        <ele>62.429</ele>
        <time>2016-12-04T10:40:50.034Z</time>
      </trkpt>
      <trkpt lat="48.83495" lon="2.4681">
        <ele>62.267</ele>
        <time>2016-12-04T10:40:57.120Z</time>
      </trkpt>
      <trkpt lat="48.83505" lon="2.46809">
        <ele>62.391</ele>
        <time>2016-12-04T10:41:04.000Z</time>
      </trkpt>
      <trkpt lat="48.83505" lon="2.46809">
        <ele>62.574</ele>
        <time>2016-12-04T10:41:10.000Z</time>
      </trkpt>
      <trkpt lat="48.83505" lon="2.46809">
        <ele>62.648</ele>
        <time>2016-12-04T10:41:24.585Z</time>
      </trkpt>
      <trkpt lat="48.83501" lon="2.46793">
        <ele>62.54</ele>
        <time>2016-12-04T10:41:51.161Z</time>
      </trkpt>
      <trkpt lat="48.83499" lon="2.4678">
        <ele>62.164</ele>
        <time>2016-12-04T10:41:58.206Z</time>
      </trkpt>
      <trkpt lat="48.83492" lon="2.46771">
        <ele>61.262</ele>
        <time>2016-12-04T10:42:05.457Z</time>
      </trkpt>
      <trkpt lat="48.83489" lon="2.46757">
        <ele>60.341</ele>
        <time>2016-12-04T10:42:12.905Z</time>
      </trkpt>
      <trkpt lat="48.83484" lon="2.46745">
        <ele>60.024</ele>
        <time>2016-12-04T10:42:19.827Z</time>
      </trkpt>
      <trkpt lat="48.8348" lon="2.46731">
        <ele>60.257</ele>
        <time>2016-12-04T10:42:27.000Z</time>
      </trkpt>
      <trkpt lat="48.8348" lon="2.46731">
        <ele>60.6</ele>
        <time>2016-12-04T10:42:40.000Z</time>
      </trkpt>
      <trkpt lat="48.8348" lon="2.46731">
        <ele>60.728</ele>
        <time>2016-12-04T10:42:54.583Z</time>
      </trkpt>
      <trkpt lat="48.83471" lon="2.46709">
        <ele>60.626</ele>
        <time>2016-12-04T10:43:26.987Z</time>
      </trkpt>
      <trkpt lat="48.83463" lon="2.467">
        <ele>60.333</ele>
        <time>2016-12-04T10:43:36.676Z</time>
      </trkpt>
      <trkpt lat="48.83454" lon="2.46695">
        <ele>59.901</ele>
        <time>2016-12-04T10:43:45.115Z</time>
      </trkpt>
      <trkpt lat="48.83445" lon="2.46699">
        <ele>59.389</ele>
        <time>2016-12-04T10:43:55.934Z</time>
      </trkpt>
      <trkpt lat="48.83435" lon="2.46703">
        <ele>58.889</ele>
        <time>2016-12-04T10:44:06.397Z</time>
      </trkpt>
      <trkpt lat="48.83426" lon="2.46708">
        <ele>58.637</ele>
        <time>2016-12-04T10:44:15.135Z</time>
      </trkpt>
      <trkpt lat="48.83417" lon="2.46714">
        <ele>58.906</ele>
        <time>2016-12-04T10:44:24.031Z</time>
      </trkpt>
      <trkpt lat="48.8341" lon="2.46705">
        <ele>59.596</ele>
        <time>2016-12-04T10:44:33.141Z</time>
      </trkpt>
      <trkpt lat="48.83406" lon="2.46691">
        <ele>60.253</ele>
        <time>2016-12-04T10:44:42.348Z</time>
      </trkpt>
      <trkpt lat="48.83401" lon="2.46679">
        <ele>60.573</ele>
        <time>2016-12-04T10:44:52.010Z</time>
      </trkpt>
      <trkpt lat="48.83394" lon="2.46668">
        <ele>60.744</ele>
        <time>2016-12-04T10:45:01.479Z</time>
      </trkpt>
      <trkpt lat="48.83388" lon="2.46659">
        <ele>61.009</ele>
        <time>2016-12-04T10:45:09.428Z</time>
      </trkpt>
      <trkpt lat="48.8338" lon="2.46651">
        <ele>61.295</ele>
        <time>2016-12-04T10:45:17.691Z</time>
      </trkpt>
      <trkpt lat="48.83371" lon="2.46649">
        <ele>61.439</ele>
        <time>2016-12-04T10:45:25.782Z</time>
      </trkpt>
      <trkpt lat="48.83362" lon="2.46654">
        <ele>61.463</ele>
        <time>2016-12-04T10:45:34.104Z</time>
      </trkpt>
      <trkpt lat="48.83354" lon="2.4666">
        <ele>61.434</ele>
        <time>2016-12-04T10:45:42.661Z</time>
      </trkpt>
      <trkpt lat="48.83345" lon="2.46666">
        <ele>61.4</ele>
        <time>2016-12-04T10:45:51.835Z</time>
      </trkpt>
      <trkpt lat="48.83339" lon="2.46678">
        <ele>61.381</ele>
        <time>2016-12-04T10:46:00.889Z</time>
      </trkpt>
      <trkpt lat="48.83342" lon="2.46691">
        <ele>61.363</ele>
        <time>2016-12-04T10:46:08.545Z</time>
      </trkpt>
      <trkpt lat="48.83345" lon="2.46705">
        <ele>61.286</ele>
        <time>2016-12-04T10:46:17.151Z</time>
      </trkpt>
      <trkpt lat="48.83348" lon="2.46718">
        <ele>61.141</ele>
        <time>2016-12-04T10:46:26.525Z</time>
      </trkpt>
      <trkpt lat="48.83353" lon="2.46731">
        <ele>61.052</ele>
        <time>2016-12-04T10:46:37.489Z</time>
      </trkpt>
      <trkpt lat="48.83359" lon="2.46743">
        <ele>61.208</ele>
        <time>2016-12-04T10:46:48.000Z</time>
      </trkpt>
      <trkpt lat="48.83359" lon="2.46743">
        <ele>61.583</ele>
        <time>2016-12-04T10:46:56.000Z</time>
      </trkpt>
      <trkpt lat="48.83359" lon="2.46743">
        <ele>61.852</ele>
        <time>2016-12-04T10:46:56.100Z</time>
      </trkpt>
      <trkpt lat="48.83365" lon="2.46759">
        <ele>61.818</ele>
        <time>2016-12-04T10:47:09.111Z</time>
      </trkpt>
      <trkpt lat="48.8337" lon="2.46771">
        <ele>62.1</ele>
        <time>2016-12-04T10:47:16.000Z</time>
      </trkpt>
      <trkpt lat="48.8337" lon="2.46771">
        <ele>63.166</ele>
        <time>2016-12-04T10:47:22.000Z</time>
      </trkpt>
      <trkpt lat="48.8337" lon="2.46771">
        <ele>64.105</ele>
        <time>2016-12-04T10:49:41.000Z</time>
      </trkpt>
      <trkpt lat="48.8337" lon="2.46771">
        <ele>64.07</ele>
        <time>2016-12-04T10:49:41.100Z</time>
      </trkpt>
      <trkpt lat="48.8337" lon="2.46771">
        <ele>63.618</ele>
        <time>2016-12-04T10:50:37.000Z</time>
      </trkpt>
      <trkpt lat="48.8337" lon="2.46771">
        <ele>63.764</ele>
        <time>2016-12-04T10:51:36.219Z</time>
      </trkpt>
      <trkpt lat="48.83375" lon="2.46795">
        <ele>63.769</ele>
        <time>2016-12-04T10:52:39.000Z</time>
      </trkpt>
      <trkpt lat="48.83375" lon="2.46795">
        <ele>63.658</ele>
        <time>2016-12-04T10:52:39.000Z</time>
      </trkpt>
      <trkpt lat="48.83375" lon="2.46795">
        <ele>63.572</ele>
        <time>2016-12-04T10:52:53.246Z</time>
      </trkpt>
      <trkpt lat="48.8338" lon="2.4681">
        <ele>63.549</ele>
        <time>2016-12-04T10:53:05.871Z</time>
      </trkpt>
      <trkpt lat="48.83384" lon="2.46822">
        <ele>63.367</ele>
        <time>2016-12-04T10:53:14.267Z</time>
      </trkpt>
      <trkpt lat="48.83388" lon="2.46835">
        <ele>62.875</ele>
        <time>2016-12-04T10:53:24.066Z</time>
      </trkpt>
      <trkpt lat="48.83393" lon="2.46846">
        <ele>62.562</ele>
        <time>2016-12-04T10:53:36.000Z</time>
      </trkpt>
      <trkpt lat="48.83393" lon="2.46846">
        <ele>62.836</ele>
        <time>2016-12-04T10:53:36.000Z</time>
      </trkpt>
      <trkpt lat="48.83393" lon="2.46846">
        <ele>63.214</ele>
        <time>2016-12-04T10:53:37.568Z</time>
      </trkpt>
      <trkpt lat="48.834" lon="2.46854">
        <ele>62.964</ele>
        <time>2016-12-04T10:53:57.905Z</time>
      </trkpt>
      <trkpt lat="48.83408" lon="2.46862">
        <ele>63.224</ele>
        <time>2016-12-04T10:54:06.314Z</time>
      </trkpt>
      <trkpt lat="48.83415" lon="2.46871">
        <ele>64.299</ele>
        <time>2016-12-04T10:54:13.339Z</time>
      </trkpt>
      <trkpt lat="48.83424" lon="2.46877">
        <ele>65.622</ele>
        <time>2016-12-04T10:54:20.918Z</time>
      </trkpt>
      <trkpt lat="48.83434" lon="2.4688">
        <ele>66.577</ele>
        <time>2016-12-04T10:54:29.000Z</time>
      </trkpt>
      <trkpt lat="48.83434" lon="2.4688">
        <ele>67.048</ele>
        <time>2016-12-04T10:54:35.000Z</time>
      </trkpt>
      <trkpt lat="48.83434" lon="2.4688">
        <ele>67.106</ele>
        <time>2016-12-04T10:54:35.100Z</time>
      </trkpt>
      <trkpt lat="48.83446" lon="2.46904">
        <ele>66.952</ele>
        <time>2016-12-04T10:55:04.700Z</time>
      </trkpt>
      <trkpt lat="48.83451" lon="2.46917">
        <ele>66.639</ele>
        <time>2016-12-04T10:55:16.972Z</time>
      </trkpt>
      <trkpt lat="48.83461" lon="2.46919">
        <ele>66.243</ele>
        <time>2016-12-04T10:55:28.476Z</time>
      </trkpt>
      <trkpt lat="48.8347" lon="2.46917">
        <ele>65.949</ele>
        <time>2016-12-04T10:55:38.312Z</time>
      </trkpt>
      <trkpt lat="48.83478" lon="2.46909">
        <ele>65.84</ele>
        <time>2016-12-04T10:55:46.735Z</time>
      </trkpt>
      <trkpt lat="48.83485" lon="2.46901">
        <ele>65.663</ele>
        <time>2016-12-04T10:55:53.724Z</time>
      </trkpt>
      <trkpt lat="48.83492" lon="2.4689">
        <ele>65.103</ele>
        <time>2016-12-04T10:56:01.511Z</time>
      </trkpt>
      <trkpt lat="48.83498" lon="2.46879">
        <ele>64.317</ele>
        <time>2016-12-04T10:56:09.251Z</time>
      </trkpt>
      <trkpt lat="48.83504" lon="2.46867">
        <ele>63.872</ele>
        <time>2016-12-04T10:56:19.949Z</time>
      </trkpt>
      <trkpt lat="48.83511" lon="2.46859">
        <ele>64.098</ele>
        <time>2016-12-04T10:56:30.270Z</time>
      </trkpt>
      <trkpt lat="48.83519" lon="2.46851">
        <ele>64.746</ele>
        <time>2016-12-04T10:56:38.283Z</time>
      </trkpt>
      <trkpt lat="48.83525" lon="2.46839">
        <ele>65.306</ele>
        <time>2016-12-04T10:56:46.012Z</time>
      </trkpt>
      <trkpt lat="48.83532" lon="2.46831">
        <ele>65.54</ele>
        <time>2016-12-04T10:56:53.476Z</time>
      </trkpt>
      <trkpt lat="48.83539" lon="2.4682">
        <ele>65.518</ele>
        <time>2016-12-04T10:57:01.035Z</time>
      </trkpt>
      <trkpt lat="48.83546" lon="2.46811">
        <ele>65.396</ele>
        <time>2016-12-04T10:57:08.135Z</time>
      </trkpt>
      <trkpt lat="48.83554" lon="2.46803">
        <ele>65.3</ele>
        <time>2016-12-04T10:57:15.446Z</time>
      </trkpt>
      <trkpt lat="48.83561" lon="2.46791">
        <ele>65.263</ele>
        <time>2016-12-04T10:57:23.412Z</time>
      </trkpt>
      <trkpt lat="48.83568" lon="2.46781">
        <ele>65.306</ele>
        <time>2016-12-04T10:57:31.621Z</time>
      </trkpt>
      <trkpt lat="48.83576" lon="2.46772">
        <ele>65.54</ele>
        <time>2016-12-04T10:57:40.340Z</time>
      </trkpt>
      <trkpt lat="48.83582" lon="2.4676">
        <ele>65.984</ele>
        <time>2016-12-04T10:57:48.733Z</time>
      </trkpt>
      <trkpt lat="48.83589" lon="2.4675">
        <ele>66.419</ele>
        <time>2016-12-04T10:57:56.831Z</time>
      </trkpt>
      <trkpt lat="48.83597" lon="2.46741">
        <ele>66.62</ele>
        <time>2016-12-04T10:58:04.515Z</time>
      </trkpt>
      <trkpt lat="48.83605" lon="2.46732">
        <ele>66.425</ele>
        <time>2016-12-04T10:58:11.722Z</time>
      </trkpt>
      <trkpt lat="48.83611" lon="2.46723">
        <ele>65.694</ele>
        <time>2016-12-04T10:58:19.033Z</time>
      </trkpt>
      <trkpt lat="48.83618" lon="2.46713">
        <ele>64.688</ele>
        <time>2016-12-04T10:58:26.679Z</time>
      </trkpt>
      <trkpt lat="48.83625" lon="2.46704">
        <ele>63.914</ele>
        <time>2016-12-04T10:58:34.209Z</time>
      </trkpt>
      <trkpt lat="48.83633" lon="2.46695">
        <ele>63.577</ele>
        <time>2016-12-04T10:58:42.352Z</time>
      </trkpt>
      <trkpt lat="48.83639" lon="2.46685">
        <ele>63.575</ele>
        <time>2016-12-04T10:58:50.245Z</time>
      </trkpt>
      <trkpt lat="48.83646" lon="2.46674">
        <ele>63.787</ele>
        <time>2016-12-04T10:58:58.982Z</time>
      </trkpt>
      <trkpt lat="48.83653" lon="2.46665">
        <ele>64.18</ele>
        <time>2016-12-04T10:59:06.965Z</time>
      </trkpt>
      <trkpt lat="48.83661" lon="2.46655">
        <ele>64.717</ele>
        <time>2016-12-04T10:59:15.699Z</time>
      </trkpt>
      <trkpt lat="48.83668" lon="2.46646">
        <ele>65.288</ele>
        <time>2016-12-04T10:59:24.123Z</time>
      </trkpt>
      <trkpt lat="48.83675" lon="2.46639">
        <ele>65.847</ele>
        <time>2016-12-04T10:59:32.023Z</time>
      </trkpt>
      <trkpt lat="48.83682" lon="2.46628">
        <ele>66.654</ele>
        <time>2016-12-04T10:59:39.838Z</time>
      </trkpt>
      <trkpt lat="48.8369" lon="2.46617">
        <ele>67.787</ele>
        <time>2016-12-04T10:59:47.457Z</time>
      </trkpt>
      <trkpt lat="48.83697" lon="2.46608">
        <ele>68.075</ele>
        <time>2016-12-04T10:59:55.023Z</time>
      </trkpt>
      <trkpt lat="48.83703" lon="2.46598">
        <ele>66.748</ele>
        <time>2016-12-04T11:00:02.546Z</time>
      </trkpt>
      <trkpt lat="48.8371" lon="2.46587">
        <ele>65.016</ele>
        <time>2016-12-04T11:00:11.302Z</time>
      </trkpt>
      <trkpt lat="48.83718" lon="2.46577">
        <ele>64.108</ele>
        <time>2016-12-04T11:00:20.023Z</time>
      </trkpt>
      <trkpt lat="48.83725" lon="2.46568">
        <ele>63.969</ele>
        <time>2016-12-04T11:00:27.821Z</time>
      </trkpt>
      <trkpt lat="48.83731" lon="2.46557">
        <ele>64.249</ele>
        <time>2016-12-04T11:00:36.059Z</time>
      </trkpt>
      <trkpt lat="48.83738" lon="2.46548">
        <ele>64.638</ele>
        <time>2016-12-04T11:00:46.120Z</time>
      </trkpt>
      <trkpt lat="48.83749" lon="2.46546">
        <ele>64.656</ele>
        <time>2016-12-04T11:00:58.864Z</time>
      </trkpt>
      <trkpt lat="48.83757" lon="2.46539">
        <ele>64.01</ele>
        <time>2016-12-04T11:01:07.000Z</time>
      </trkpt>
      <trkpt lat="48.83757" lon="2.46539">
        <ele>63.109</ele>
        <time>2016-12-04T11:01:12.000Z</time>
      </trkpt>
      <trkpt lat="48.83757" lon="2.46539">
        <ele>62.602</ele>
        <time>2016-12-04T11:01:21.590Z</time>
      </trkpt>
      <trkpt lat="48.83765" lon="2.46547">
        <ele>62.615</ele>
        <time>2016-12-04T11:01:35.000Z</time>
      </trkpt>
      <trkpt lat="48.83765" lon="2.46547">
        <ele>62.775</ele>
        <time>2016-12-04T11:01:41.000Z</time>
      </trkpt>
      <trkpt lat="48.83765" lon="2.46547">
        <ele>62.765</ele>
        <time>2016-12-04T11:01:41.100Z</time>
      </trkpt>
      <trkpt lat="48.83765" lon="2.46547">
        <ele>62.635</ele>
        <time>2016-12-04T11:01:52.000Z</time>
      </trkpt>
      <trkpt lat="48.83765" lon="2.46547">
        <ele>62.647</ele>
        <time>2016-12-04T11:02:12.994Z</time>
      </trkpt>
      <trkpt lat="48.83765" lon="2.46547">
        <ele>62.635</ele>
        <time>2016-12-04T11:02:14.304Z</time>
      </trkpt>
      <trkpt lat="48.83776" lon="2.46552">
        <ele>62.578</ele>
        <time>2016-12-04T11:02:31.204Z</time>
      </trkpt>
      <trkpt lat="48.83785" lon="2.4655">
        <ele>62.025</ele>
        <time>2016-12-04T11:02:39.546Z</time>
      </trkpt>
      <trkpt lat="48.83795" lon="2.46548">
        <ele>60.605</ele>
        <time>2016-12-04T11:02:47.596Z</time>
      </trkpt>
      <trkpt lat="48.83804" lon="2.46546">
        <ele>59.149</ele>
        <time>2016-12-04T11:02:54.477Z</time>
      </trkpt>
      <trkpt lat="48.83814" lon="2.46545">
        <ele>58.536</ele>
        <time>2016-12-04T11:03:01.730Z</time>
      </trkpt>
      <trkpt lat="48.83824" lon="2.46546">
        <ele>58.635</ele>
        <time>2016-12-04T11:03:09.477Z</time>
      </trkpt>
      <trkpt lat="48.83833" lon="2.46545">
        <ele>58.922</ele>
        <time>2016-12-04T11:03:16.530Z</time>
      </trkpt>
      <trkpt lat="48.83841" lon="2.46536">
        <ele>59.036</ele>
        <time>2016-12-04T11:03:24.175Z</time>
      </trkpt>
      <trkpt lat="48.83847" lon="2.46525">
        <ele>59.088</ele>
        <time>2016-12-04T11:03:31.655Z</time>
      </trkpt>
      <trkpt lat="48.83853" lon="2.46514">
        <ele>59.352</ele>
        <time>2016-12-04T11:03:39.651Z</time>
      </trkpt>
      <trkpt lat="48.83861" lon="2.46504">
        <ele>59.857</ele>
        <time>2016-12-04T11:03:48.230Z</time>
      </trkpt>
      <trkpt lat="48.83867" lon="2.46493">
        <ele>60.369</ele>
        <time>2016-12-04T11:03:56.413Z</time>
      </trkpt>
      <trkpt lat="48.83872" lon="2.4648">
        <ele>60.685</ele>
        <time>2016-12-04T11:04:03.967Z</time>
      </trkpt>
      <trkpt lat="48.83877" lon="2.46468">
        <ele>60.803</ele>
        <time>2016-12-04T11:04:11.477Z</time>
      </trkpt>
      <trkpt lat="48.83881" lon="2.46455">
        <ele>60.844</ele>
        <time>2016-12-04T11:04:19.000Z</time>
      </trkpt>
      <trkpt lat="48.83881" lon="2.46455">
        <ele>60.877</ele>
        <time>2016-12-04T11:04:26.000Z</time>
      </trkpt>
      <trkpt lat="48.83881" lon="2.46455">
        <ele>60.886</ele>
        <time>2016-12-04T11:04:26.100Z</time>
      </trkpt>
      <trkpt lat="48.83887" lon="2.4644">
        <ele>60.859</ele>
        <time>2016-12-04T11:04:42.151Z</time>
      </trkpt>
      <trkpt lat="48.83893" lon="2.46428">
        <ele>60.87</ele>
        <time>2016-12-04T11:04:51.771Z</time>
      </trkpt>
      <trkpt lat="48.83898" lon="2.46416">
        <ele>61.083</ele>
        <time>2016-12-04T11:04:59.934Z</time>
      </trkpt>
      <trkpt lat="48.83903" lon="2.46404">
        <ele>61.498</ele>
        <time>2016-12-04T11:05:07.628Z</time>
      </trkpt>
      <trkpt lat="48.83908" lon="2.46391">
        <ele>61.865</ele>
        <time>2016-12-04T11:05:16.078Z</time>
      </trkpt>
      <trkpt lat="48.83913" lon="2.46378">
        <ele>62.029</ele>
        <time>2016-12-04T11:05:24.516Z</time>
      </trkpt>
      <trkpt lat="48.83916" lon="2.46365">
        <ele>62.053</ele>
        <time>2016-12-04T11:05:32.520Z</time>
      </trkpt>
      <trkpt lat="48.83921" lon="2.46353">
        <ele>62.027</ele>
        <time>2016-12-04T11:05:40.293Z</time>
      </trkpt>
      <trkpt lat="48.83925" lon="2.4634">
        <ele>62.01</ele>
        <time>2016-12-04T11:05:47.521Z</time>
      </trkpt>
      <trkpt lat="48.8393" lon="2.46328">
        <ele>62.001</ele>
        <time>2016-12-04T11:05:55.301Z</time>
      </trkpt>
      <trkpt lat="48.83933" lon="2.46314">
        <ele>61.987</ele>
        <time>2016-12-04T11:06:03.080Z</time>
      </trkpt>
      <trkpt lat="48.83937" lon="2.463">
        <ele>61.984</ele>
        <time>2016-12-04T11:06:11.174Z</time>
      </trkpt>
      <trkpt lat="48.83941" lon="2.46287">
        <ele>62.003</ele>
        <time>2016-12-04T11:06:19.009Z</time>
      </trkpt>
      <trkpt lat="48.83945" lon="2.46275">
        <ele>62.056</ele>
        <time>2016-12-04T11:06:26.680Z</time>
      </trkpt>
      <trkpt lat="48.83949" lon="2.46261">
        <ele>62.178</ele>
        <time>2016-12-04T11:06:34.726Z</time>
      </trkpt>
      <trkpt lat="48.83954" lon="2.46249">
        <ele>62.331</ele>
        <time>2016-12-04T11:06:42.738Z</time>
      </trkpt>
      <trkpt lat="48.83959" lon="2.46237">
        <ele>62.421</ele>
        <time>2016-12-04T11:06:50.309Z</time>
      </trkpt>
      <trkpt lat="48.83965" lon="2.46225">
        <ele>62.42</ele>
        <time>2016-12-04T11:06:58.213Z</time>
      </trkpt>
      <trkpt lat="48.83969" lon="2.46211">
        <ele>62.404</ele>
        <time>2016-12-04T11:07:06.604Z</time>
      </trkpt>
      <trkpt lat="48.83975" lon="2.46198">
        <ele>62.484</ele>
        <time>2016-12-04T11:07:15.515Z</time>
      </trkpt>
      <trkpt lat="48.8398" lon="2.46186">
        <ele>62.746</ele>
        <time>2016-12-04T11:07:24.311Z</time>
      </trkpt>
      <trkpt lat="48.83987" lon="2.46177">
        <ele>63.17</ele>
        <time>2016-12-04T11:07:32.012Z</time>
      </trkpt>
      <trkpt lat="48.83994" lon="2.46168">
        <ele>63.623</ele>
        <time>2016-12-04T11:07:39.261Z</time>
      </trkpt>
      <trkpt lat="48.84001" lon="2.46156">
        <ele>63.962</ele>
        <time>2016-12-04T11:07:46.817Z</time>
      </trkpt>
      <trkpt lat="48.8401" lon="2.46156">
        <ele>63.995</ele>
        <time>2016-12-04T11:07:53.682Z</time>
      </trkpt>
      <trkpt lat="48.84018" lon="2.46161">
        <ele>63.569</ele>
        <time>2016-12-04T11:07:59.979Z</time>
      </trkpt>
      <trkpt lat="48.84027" lon="2.46167">
        <ele>62.733</ele>
        <time>2016-12-04T11:08:07.044Z</time>
      </trkpt>
      <trkpt lat="48.84037" lon="2.46172">
        <ele>61.723</ele>
        <time>2016-12-04T11:08:15.173Z</time>
      </trkpt>
      <trkpt lat="48.84046" lon="2.46177">
        <ele>60.851</ele>
        <time>2016-12-04T11:08:23.722Z</time>
      </trkpt>
      <trkpt lat="48.84055" lon="2.46173">
        <ele>60.222</ele>
        <time>2016-12-04T11:08:33.403Z</time>
      </trkpt>
      <trkpt lat="48.8406" lon="2.46161">
        <ele>59.701</ele>
        <time>2016-12-04T11:08:43.305Z</time>
      </trkpt>
      <trkpt lat="48.84067" lon="2.46152">
        <ele>59.292</ele>
        <time>2016-12-04T11:08:52.510Z</time>
      </trkpt>
      <trkpt lat="48.84075" lon="2.46146">
        <ele>59.117</ele>
        <time>2016-12-04T11:09:02.054Z</time>
      </trkpt>
      <trkpt lat="48.84083" lon="2.46139">
        <ele>59.208</ele>
        <time>2016-12-04T11:09:12.031Z</time>
      </trkpt>
      <trkpt lat="48.8409" lon="2.46129">
        <ele>59.509</ele>
        <time>2016-12-04T11:09:22.035Z</time>
      </trkpt>
      <trkpt lat="48.84096" lon="2.46117">
        <ele>59.99</ele>
        <time>2016-12-04T11:09:30.800Z</time>
      </trkpt>
      <trkpt lat="48.84103" lon="2.46107">
        <ele>60.602</ele>
        <time>2016-12-04T11:09:39.481Z</time>
      </trkpt>
      <trkpt lat="48.84109" lon="2.46096">
        <ele>61.126</ele>
        <time>2016-12-04T11:09:48.627Z</time>
      </trkpt>
      <trkpt lat="48.84114" lon="2.46084">
        <ele>61.143</ele>
        <time>2016-12-04T11:09:57.505Z</time>
      </trkpt>
      <trkpt lat="48.8412" lon="2.46073">
        <ele>60.512</ele>
        <time>2016-12-04T11:10:06.002Z</time>
      </trkpt>
      <trkpt lat="48.84124" lon="2.4606">
        <ele>59.642</ele>
        <time>2016-12-04T11:10:14.976Z</time>
      </trkpt>
      <trkpt lat="48.84129" lon="2.46048">
        <ele>58.986</ele>
        <time>2016-12-04T11:10:23.876Z</time>
      </trkpt>
      <trkpt lat="48.84135" lon="2.46036">
        <ele>58.605</ele>
        <time>2016-12-04T11:10:33.001Z</time>
      </trkpt>
      <trkpt lat="48.84138" lon="2.46023">
        <ele>58.452</ele>
        <time>2016-12-04T11:10:41.127Z</time>
      </trkpt>
      <trkpt lat="48.84142" lon="2.4601">
        <ele>58.499</ele>
        <time>2016-12-04T11:10:49.287Z</time>
      </trkpt>
      <trkpt lat="48.84147" lon="2.45998">
        <ele>58.669</ele>
        <time>2016-12-04T11:10:56.985Z</time>
      </trkpt>
      <trkpt lat="48.84151" lon="2.45985">
        <ele>58.76</ele>
        <time>2016-12-04T11:11:04.879Z</time>
      </trkpt>
      <trkpt lat="48.84155" lon="2.45972">
        <ele>58.655</ele>
        <time>2016-12-04T11:11:12.830Z</time>
      </trkpt>
      <trkpt lat="48.8416" lon="2.4596">
        <ele>58.481</ele>
        <time>2016-12-04T11:11:20.910Z</time>
      </trkpt>
      <trkpt lat="48.84165" lon="2.45948">
        <ele>58.428</ele>
        <time>2016-12-04T11:11:28.851Z</time>
      </trkpt>
      <trkpt lat="48.8417" lon="2.45936">
        <ele>58.616</ele>
        <time>2016-12-04T11:11:36.595Z</time>
      </trkpt>
      <trkpt lat="48.84174" lon="2.45923">
        <ele>59.007</ele>
        <time>2016-12-04T11:11:44.503Z</time>
      </trkpt>
      <trkpt lat="48.8418" lon="2.45911">
        <ele>59.458</ele>
        <time>2016-12-04T11:11:52.799Z</time>
      </trkpt>
      <trkpt lat="48.84183" lon="2.45897">
        <ele>59.867</ele>
        <time>2016-12-04T11:12:00.603Z</time>
      </trkpt>
      <trkpt lat="48.84188" lon="2.45886">
        <ele>60.159</ele>
        <time>2016-12-04T11:12:08.344Z</time>
      </trkpt>
      <trkpt lat="48.84191" lon="2.45873">
        <ele>60.283</ele>
        <time>2016-12-04T11:12:16.685Z</time>
      </trkpt>
      <trkpt lat="48.84194" lon="2.4586">
        <ele>60.346</ele>
        <time>2016-12-04T11:12:24.970Z</time>
      </trkpt>
      <trkpt lat="48.84199" lon="2.45847">
        <ele>60.446</ele>
        <time>2016-12-04T11:12:33.372Z</time>
      </trkpt>
      <trkpt lat="48.84203" lon="2.45834">
        <ele>60.548</ele>
        <time>2016-12-04T11:12:41.127Z</time>
      </trkpt>
      <trkpt lat="48.84207" lon="2.45822">
        <ele>60.588</ele>
        <time>2016-12-04T11:12:49.453Z</time>
      </trkpt>
      <trkpt lat="48.84209" lon="2.45808">
        <ele>60.637</ele>
        <time>2016-12-04T11:12:57.794Z</time>
      </trkpt>
      <trkpt lat="48.84212" lon="2.45795">
        <ele>60.776</ele>
        <time>2016-12-04T11:13:05.740Z</time>
      </trkpt>
      <trkpt lat="48.84216" lon="2.4578">
        <ele>61.013</ele>
        <time>2016-12-04T11:13:14.658Z</time>
      </trkpt>
      <trkpt lat="48.8422" lon="2.45767">
        <ele>61.297</ele>
        <time>2016-12-04T11:13:22.710Z</time>
      </trkpt>
      <trkpt lat="48.84222" lon="2.45752">
        <ele>61.571</ele>
        <time>2016-12-04T11:13:30.838Z</time>
      </trkpt>
      <trkpt lat="48.84224" lon="2.45738">
        <ele>61.835</ele>
        <time>2016-12-04T11:13:39.137Z</time>
      </trkpt>
      <trkpt lat="48.84227" lon="2.45725">
        <ele>62.084</ele>
        <time>2016-12-04T11:13:46.747Z</time>
      </trkpt>
      <trkpt lat="48.8423" lon="2.45711">
        <ele>62.24</ele>
        <time>2016-12-04T11:13:54.392Z</time>
      </trkpt>
      <trkpt lat="48.84234" lon="2.45698">
        <ele>62.257</ele>
        <time>2016-12-04T11:14:01.662Z</time>
      </trkpt>
      <trkpt lat="48.84237" lon="2.45685">
        <ele>62.052</ele>
        <time>2016-12-04T11:14:08.909Z</time>
      </trkpt>
      <trkpt lat="48.84241" lon="2.45672">
        <ele>61.636</ele>
        <time>2016-12-04T11:14:16.086Z</time>
      </trkpt>
      <trkpt lat="48.84245" lon="2.45658">
        <ele>61.319</ele>
        <time>2016-12-04T11:14:24.234Z</time>
      </trkpt>
      <trkpt lat="48.84249" lon="2.45645">
        <ele>61.315</ele>
        <time>2016-12-04T11:14:31.297Z</time>
      </trkpt>
      <trkpt lat="48.8425" lon="2.4563">
        <ele>61.481</ele>
        <time>2016-12-04T11:14:38.918Z</time>
      </trkpt>
      <trkpt lat="48.84251" lon="2.45617">
        <ele>61.635</ele>
        <time>2016-12-04T11:14:46.055Z</time>
      </trkpt>
      <trkpt lat="48.84255" lon="2.45604">
        <ele>61.727</ele>
        <time>2016-12-04T11:14:53.273Z</time>
      </trkpt>
      <trkpt lat="48.84257" lon="2.45589">
        <ele>61.784</ele>
        <time>2016-12-04T11:15:01.766Z</time>
      </trkpt>
      <trkpt lat="48.84259" lon="2.45575">
        <ele>61.841</ele>
        <time>2016-12-04T11:15:09.262Z</time>
      </trkpt>
      <trkpt lat="48.84261" lon="2.45562">
        <ele>61.884</ele>
        <time>2016-12-04T11:15:16.727Z</time>
      </trkpt>
      <trkpt lat="48.84262" lon="2.45546">
        <ele>61.877</ele>
        <time>2016-12-04T11:15:25.000Z</time>
      </trkpt>
      <trkpt lat="48.84262" lon="2.45546">
        <ele>61.817</ele>
        <time>2016-12-04T11:15:32.000Z</time>
      </trkpt>
      <trkpt lat="48.84262" lon="2.45546">
        <ele>61.754</ele>
        <time>2016-12-04T11:15:39.849Z</time>
      </trkpt>
      <trkpt lat="48.84266" lon="2.45529">
        <ele>61.729</ele>
        <time>2016-12-04T11:15:53.000Z</time>
      </trkpt>
      <trkpt lat="48.84266" lon="2.45529">
        <ele>61.719</ele>
        <time>2016-12-04T11:16:02.000Z</time>
      </trkpt>
      <trkpt lat="48.84266" lon="2.45529">
        <ele>61.694</ele>
        <time>2016-12-04T11:16:35.000Z</time>
      </trkpt>
      <trkpt lat="48.84266" lon="2.45529">
        <ele>61.664</ele>
        <time>2016-12-04T11:16:45.000Z</time>
      </trkpt>
      <trkpt lat="48.84266" lon="2.45529">
        <ele>61.644</ele>
        <time>2016-12-04T11:17:13.690Z</time>
      </trkpt>
      <trkpt lat="48.8427" lon="2.45513">
        <ele>61.626</ele>
        <time>2016-12-04T11:17:24.336Z</time>
      </trkpt>
      <trkpt lat="48.84274" lon="2.455">
        <ele>60.804</ele>
        <time>2016-12-04T11:17:30.827Z</time>
      </trkpt>
      <trkpt lat="48.84274" lon="2.45485">
        <ele>58.686</ele>
        <time>2016-12-04T11:17:38.487Z</time>
      </trkpt>
      <trkpt lat="48.84273" lon="2.45471">
        <ele>56.5</ele>
        <time>2016-12-04T11:17:49.299Z</time>
      </trkpt>
      <trkpt lat="48.84273" lon="2.45457">
        <ele>55.422</ele>
        <time>2016-12-04T11:17:57.877Z</time>
      </trkpt>
      <trkpt lat="48.84271" lon="2.45442">
        <ele>55.191</ele>
        <time>2016-12-04T11:18:06.482Z</time>
      </trkpt>
      <trkpt lat="48.84271" lon="2.45428">
        <ele>55.294</ele>
        <time>2016-12-04T11:18:14.934Z</time>
      </trkpt>
      <trkpt lat="48.8427" lon="2.45413">
        <ele>55.442</ele>
        <time>2016-12-04T11:18:23.490Z</time>
      </trkpt>
      <trkpt lat="48.84269" lon="2.45399">
        <ele>55.543</ele>
        <time>2016-12-04T11:18:31.061Z</time>
      </trkpt>
      <trkpt lat="48.84269" lon="2.45384">
        <ele>55.705</ele>
        <time>2016-12-04T11:18:38.636Z</time>
      </trkpt>
      <trkpt lat="48.8427" lon="2.45369">
        <ele>56.076</ele>
        <time>2016-12-04T11:18:46.084Z</time>
      </trkpt>
      <trkpt lat="48.84272" lon="2.45355">
        <ele>56.551</ele>
        <time>2016-12-04T11:18:53.718Z</time>
      </trkpt>
      <trkpt lat="48.84274" lon="2.45341">
        <ele>56.866</ele>
        <time>2016-12-04T11:19:01.640Z</time>
      </trkpt>
      <trkpt lat="48.84275" lon="2.45325">
        <ele>56.882</ele>
        <time>2016-12-04T11:19:09.690Z</time>
      </trkpt>
      <trkpt lat="48.84276" lon="2.45311">
        <ele>56.632</ele>
        <time>2016-12-04T11:19:17.432Z</time>
      </trkpt>
      <trkpt lat="48.84279" lon="2.45298">
        <ele>56.313</ele>
        <time>2016-12-04T11:19:24.644Z</time>
      </trkpt>
      <trkpt lat="48.84285" lon="2.45286">
        <ele>56.129</ele>
        <time>2016-12-04T11:19:32.260Z</time>
      </trkpt>
      <trkpt lat="48.8429" lon="2.45274">
        <ele>56.104</ele>
        <time>2016-12-04T11:19:40.475Z</time>
      </trkpt>
      <trkpt lat="48.84295" lon="2.45261">
        <ele>56.081</ele>
        <time>2016-12-04T11:19:50.000Z</time>
      </trkpt>
      <trkpt lat="48.84295" lon="2.45261">
        <ele>55.939</ele>
        <time>2016-12-04T11:19:59.000Z</time>
      </trkpt>
      <trkpt lat="48.84295" lon="2.45261">
        <ele>55.794</ele>
        <time>2016-12-04T11:19:59.100Z</time>
      </trkpt>
      <trkpt lat="48.84299" lon="2.45242">
        <ele>55.771</ele>
        <time>2016-12-04T11:20:15.146Z</time>
      </trkpt>
      <trkpt lat="48.84301" lon="2.45228">
        <ele>55.626</ele>
        <time>2016-12-04T11:20:23.510Z</time>
      </trkpt>
      <trkpt lat="48.84302" lon="2.45213">
        <ele>55.165</ele>
        <time>2016-12-04T11:20:31.164Z</time>
      </trkpt>
      <trkpt lat="48.84305" lon="2.45199">
        <ele>54.7</ele>
        <time>2016-12-04T11:20:38.650Z</time>
      </trkpt>
      <trkpt lat="48.84309" lon="2.45186">
        <ele>54.624</ele>
        <time>2016-12-04T11:20:45.903Z</time>
      </trkpt>
      <trkpt lat="48.84313" lon="2.45173">
        <ele>54.882</ele>
        <time>2016-12-04T11:20:53.864Z</time>
      </trkpt>
      <trkpt lat="48.84317" lon="2.45159">
        <ele>55.287</ele>
        <time>2016-12-04T11:21:02.257Z</time>
      </trkpt>
      <trkpt lat="48.84323" lon="2.45147">
        <ele>55.712</ele>
        <time>2016-12-04T11:21:10.049Z</time>
      </trkpt>
      <trkpt lat="48.84329" lon="2.45135">
        <ele>55.906</ele>
        <time>2016-12-04T11:21:17.707Z</time>
      </trkpt>
      <trkpt lat="48.84334" lon="2.45122">
        <ele>55.664</ele>
        <time>2016-12-04T11:21:25.600Z</time>
      </trkpt>
      <trkpt lat="48.84339" lon="2.4511">
        <ele>55.135</ele>
        <time>2016-12-04T11:21:34.220Z</time>
      </trkpt>
      <trkpt lat="48.84344" lon="2.45098">
        <ele>54.619</ele>
        <time>2016-12-04T11:21:42.784Z</time>
      </trkpt>
      <trkpt lat="48.84348" lon="2.45085">
        <ele>54.351</ele>
        <time>2016-12-04T11:21:51.610Z</time>
      </trkpt>
      <trkpt lat="48.84353" lon="2.45074">
        <ele>54.435</ele>
        <time>2016-12-04T11:21:58.636Z</time>
      </trkpt>
      <trkpt lat="48.84358" lon="2.45061">
        <ele>54.814</ele>
        <time>2016-12-04T11:22:05.782Z</time>
      </trkpt>
      <trkpt lat="48.84361" lon="2.45047">
        <ele>55.342</ele>
        <time>2016-12-04T11:22:14.506Z</time>
      </trkpt>
      <trkpt lat="48.84364" lon="2.45033">
        <ele>56.147</ele>
        <time>2016-12-04T11:22:23.761Z</time>
      </trkpt>
      <trkpt lat="48.84364" lon="2.45019">
        <ele>56.327</ele>
        <time>2016-12-04T11:22:33.880Z</time>
      </trkpt>
      <trkpt lat="48.84367" lon="2.45004">
        <ele>56.353</ele>
        <time>2016-12-04T11:22:45.491Z</time>
      </trkpt>
      <trkpt lat="48.84368" lon="2.44991">
        <ele>56.416</ele>
        <time>2016-12-04T11:22:55.465Z</time>
      </trkpt>
      <trkpt lat="48.84369" lon="2.44976">
        <ele>56.405</ele>
        <time>2016-12-04T11:23:04.480Z</time>
      </trkpt>
      <trkpt lat="48.84371" lon="2.4496">
        <ele>56.268</ele>
        <time>2016-12-04T11:23:12.858Z</time>
      </trkpt>
      <trkpt lat="48.84372" lon="2.44946">
        <ele>56.072</ele>
        <time>2016-12-04T11:23:20.525Z</time>
      </trkpt>
      <trkpt lat="48.84373" lon="2.44931">
        <ele>55.856</ele>
        <time>2016-12-04T11:23:29.091Z</time>
      </trkpt>
      <trkpt lat="48.84376" lon="2.44917">
        <ele>55.438</ele>
        <time>2016-12-04T11:23:38.218Z</time>
      </trkpt>
      <trkpt lat="48.84376" lon="2.44901">
        <ele>54.653</ele>
        <time>2016-12-04T11:23:47.499Z</time>
      </trkpt>
      <trkpt lat="48.84377" lon="2.44887">
        <ele>53.669</ele>
        <time>2016-12-04T11:23:55.137Z</time>
      </trkpt>
      <trkpt lat="48.84378" lon="2.44873">
        <ele>52.845</ele>
        <time>2016-12-04T11:24:03.008Z</time>
      </trkpt>
      <trkpt lat="48.84379" lon="2.44857">
        <ele>52.367</ele>
        <time>2016-12-04T11:24:10.944Z</time>
      </trkpt>
      <trkpt lat="48.84379" lon="2.44842">
        <ele>52.095</ele>
        <time>2016-12-04T11:24:18.642Z</time>
      </trkpt>
      <trkpt lat="48.84379" lon="2.44828">
        <ele>51.848</ele>
        <time>2016-12-04T11:24:25.743Z</time>
      </trkpt>
      <trkpt lat="48.84378" lon="2.44813">
        <ele>51.71</ele>
        <time>2016-12-04T11:24:33.663Z</time>
      </trkpt>
      <trkpt lat="48.84379" lon="2.44798">
        <ele>51.856</ele>
        <time>2016-12-04T11:24:42.834Z</time>
      </trkpt>
      <trkpt lat="48.84382" lon="2.44783">
        <ele>52.216</ele>
        <time>2016-12-04T11:24:51.192Z</time>
      </trkpt>
      <trkpt lat="48.84384" lon="2.44768">
        <ele>52.656</ele>
        <time>2016-12-04T11:24:58.924Z</time>
      </trkpt>
      <trkpt lat="48.84388" lon="2.44755">
        <ele>53.154</ele>
        <time>2016-12-04T11:25:06.604Z</time>
      </trkpt>
      <trkpt lat="48.84382" lon="2.44744">
        <ele>53.612</ele>
        <time>2016-12-04T11:25:15.133Z</time>
      </trkpt>
      <trkpt lat="48.84381" lon="2.4473">
        <ele>53.819</ele>
        <time>2016-12-04T11:25:26.000Z</time>
      </trkpt>
      <trkpt lat="48.84381" lon="2.4473">
        <ele>53.749</ele>
        <time>2016-12-04T11:25:28.000Z</time>
      </trkpt>
      <trkpt lat="48.84381" lon="2.4473">
        <ele>53.616</ele>
        <time>2016-12-04T11:25:47.339Z</time>
      </trkpt>
      <trkpt lat="48.84379" lon="2.44716">
        <ele>53.633</ele>
        <time>2016-12-04T11:25:56.000Z</time>
      </trkpt>
      <trkpt lat="48.84379" lon="2.44716">
        <ele>53.659</ele>
        <time>2016-12-04T11:26:03.000Z</time>
      </trkpt>
      <trkpt lat="48.84379" lon="2.44716">
        <ele>53.636</ele>
        <time>2016-12-04T11:26:03.734Z</time>
      </trkpt>
      <trkpt lat="48.84371" lon="2.44708">
        <ele>53.595</ele>
        <time>2016-12-04T11:26:17.198Z</time>
      </trkpt>
      <trkpt lat="48.84362" lon="2.44703">
        <ele>53.505</ele>
        <time>2016-12-04T11:26:27.070Z</time>
      </trkpt>
      <trkpt lat="48.84364" lon="2.44688">
        <ele>53.062</ele>
        <time>2016-12-04T11:26:36.690Z</time>
      </trkpt>
      <trkpt lat="48.84367" lon="2.44676">
        <ele>52.165</ele>
        <time>2016-12-04T11:26:45.025Z</time>
      </trkpt>
      <trkpt lat="48.8437" lon="2.44661">
        <ele>51.234</ele>
        <time>2016-12-04T11:26:53.491Z</time>
      </trkpt>
      <trkpt lat="48.84373" lon="2.44646">
        <ele>50.528</ele>
        <time>2016-12-04T11:27:01.638Z</time>
      </trkpt>
      <trkpt lat="48.84377" lon="2.44632">
        <ele>49.982</ele>
        <time>2016-12-04T11:27:10.074Z</time>
      </trkpt>
      <trkpt lat="48.84382" lon="2.44619">
        <ele>49.649</ele>
        <time>2016-12-04T11:27:18.664Z</time>
      </trkpt>
      <trkpt lat="48.84383" lon="2.44605">
        <ele>49.549</ele>
        <time>2016-12-04T11:27:26.250Z</time>
      </trkpt>
      <trkpt lat="48.84385" lon="2.44591">
        <ele>49.657</ele>
        <time>2016-12-04T11:27:33.506Z</time>
      </trkpt>
      <trkpt lat="48.84386" lon="2.44578">
        <ele>49.98</ele>
        <time>2016-12-04T11:27:40.536Z</time>
      </trkpt>
      <trkpt lat="48.84387" lon="2.44564">
        <ele>50.369</ele>
        <time>2016-12-04T11:27:47.858Z</time>
      </trkpt>
      <trkpt lat="48.8439" lon="2.44549">
        <ele>50.618</ele>
        <time>2016-12-04T11:27:56.217Z</time>
      </trkpt>
      <trkpt lat="48.84393" lon="2.44536">
        <ele>50.727</ele>
        <time>2016-12-04T11:28:05.367Z</time>
      </trkpt>
      <trkpt lat="48.84396" lon="2.44522">
        <ele>50.845</ele>
        <time>2016-12-04T11:28:14.101Z</time>
      </trkpt>
      <trkpt lat="48.84397" lon="2.44509">
        <ele>51.058</ele>
        <time>2016-12-04T11:28:21.411Z</time>
      </trkpt>
      <trkpt lat="48.84399" lon="2.44493">
        <ele>51.363</ele>
        <time>2016-12-04T11:28:29.109Z</time>
      </trkpt>
      <trkpt lat="48.84399" lon="2.44479">
        <ele>51.686</ele>
        <time>2016-12-04T11:28:36.047Z</time>
      </trkpt>
      <trkpt lat="48.84398" lon="2.44466">
        <ele>51.976</ele>
        <time>2016-12-04T11:28:43.221Z</time>
      </trkpt>
      <trkpt lat="48.84398" lon="2.44452">
        <ele>52.229</ele>
        <time>2016-12-04T11:28:50.860Z</time>
      </trkpt>
      <trkpt lat="48.84399" lon="2.44437">
        <ele>52.389</ele>
        <time>2016-12-04T11:28:58.785Z</time>
      </trkpt>
      <trkpt lat="48.844" lon="2.44423">
        <ele>52.414</ele>
        <time>2016-12-04T11:29:07.061Z</time>
      </trkpt>
      <trkpt lat="48.84401" lon="2.44408">
        <ele>52.338</ele>
        <time>2016-12-04T11:29:15.478Z</time>
      </trkpt>
      <trkpt lat="48.84403" lon="2.44393">
        <ele>52.194</ele>
        <time>2016-12-04T11:29:24.175Z</time>
      </trkpt>
      <trkpt lat="48.84405" lon="2.44377">
        <ele>52.044</ele>
        <time>2016-12-04T11:29:32.472Z</time>
      </trkpt>
      <trkpt lat="48.84407" lon="2.44363">
        <ele>51.89</ele>
        <time>2016-12-04T11:29:39.976Z</time>
      </trkpt>
      <trkpt lat="48.8441" lon="2.44349">
        <ele>51.696</ele>
        <time>2016-12-04T11:29:48.187Z</time>
      </trkpt>
      <trkpt lat="48.84411" lon="2.44335">
        <ele>51.529</ele>
        <time>2016-12-04T11:29:57.023Z</time>
      </trkpt>
      <trkpt lat="48.84411" lon="2.44319">
        <ele>51.571</ele>
        <time>2016-12-04T11:30:06.582Z</time>
      </trkpt>
      <trkpt lat="48.8441" lon="2.44305">
        <ele>51.917</ele>
        <time>2016-12-04T11:30:16.032Z</time>
      </trkpt>
      <trkpt lat="48.84411" lon="2.44289">
        <ele>52.45</ele>
        <time>2016-12-04T11:30:25.278Z</time>
      </trkpt>
      <trkpt lat="48.84414" lon="2.44276">
        <ele>52.988</ele>
        <time>2016-12-04T11:30:33.466Z</time>
      </trkpt>
      <trkpt lat="48.84412" lon="2.44262">
        <ele>53.475</ele>
        <time>2016-12-04T11:30:42.134Z</time>
      </trkpt>
      <trkpt lat="48.84408" lon="2.44247">
        <ele>53.865</ele>
        <time>2016-12-04T11:30:50.684Z</time>
      </trkpt>
      <trkpt lat="48.8441" lon="2.44233">
        <ele>54.143</ele>
        <time>2016-12-04T11:30:58.584Z</time>
      </trkpt>
      <trkpt lat="48.84409" lon="2.44218">
        <ele>54.336</ele>
        <time>2016-12-04T11:31:06.434Z</time>
      </trkpt>
      <trkpt lat="48.84403" lon="2.44208">
        <ele>54.364</ele>
        <time>2016-12-04T11:31:15.012Z</time>
      </trkpt>
      <trkpt lat="48.84397" lon="2.44197">
        <ele>54.172</ele>
        <time>2016-12-04T11:31:23.763Z</time>
      </trkpt>
      <trkpt lat="48.84391" lon="2.44186">
        <ele>53.961</ele>
        <time>2016-12-04T11:31:32.639Z</time>
      </trkpt>
      <trkpt lat="48.84387" lon="2.44173">
        <ele>53.967</ele>
        <time>2016-12-04T11:31:42.202Z</time>
      </trkpt>
      <trkpt lat="48.84389" lon="2.44159">
        <ele>54.173</ele>
        <time>2016-12-04T11:31:51.862Z</time>
      </trkpt>
      <trkpt lat="48.8439" lon="2.44143">
        <ele>54.389</ele>
        <time>2016-12-04T11:32:01.659Z</time>
      </trkpt>
      <trkpt lat="48.84391" lon="2.44129">
        <ele>54.516</ele>
        <time>2016-12-04T11:32:10.374Z</time>
      </trkpt>
      <trkpt lat="48.84394" lon="2.44115">
        <ele>54.559</ele>
        <time>2016-12-04T11:32:18.838Z</time>
      </trkpt>
      <trkpt lat="48.84396" lon="2.44101">
        <ele>54.494</ele>
        <time>2016-12-04T11:32:27.711Z</time>
      </trkpt>
      <trkpt lat="48.84397" lon="2.44086">
        <ele>54.36</ele>
        <time>2016-12-04T11:32:36.644Z</time>
      </trkpt>
      <trkpt lat="48.84398" lon="2.44071">
        <ele>54.257</ele>
        <time>2016-12-04T11:32:44.433Z</time>
      </trkpt>
      <trkpt lat="48.84399" lon="2.44056">
        <ele>54.225</ele>
        <time>2016-12-04T11:32:52.414Z</time>
      </trkpt>
      <trkpt lat="48.84404" lon="2.44043">
        <ele>54.243</ele>
        <time>2016-12-04T11:33:01.719Z</time>
      </trkpt>
      <trkpt lat="48.8441" lon="2.44033">
        <ele>54.236</ele>
        <time>2016-12-04T11:33:11.318Z</time>
      </trkpt>
      <trkpt lat="48.84415" lon="2.44021">
        <ele>54.131</ele>
        <time>2016-12-04T11:33:22.131Z</time>
      </trkpt>
      <trkpt lat="48.84422" lon="2.44009">
        <ele>53.904</ele>
        <time>2016-12-04T11:33:33.852Z</time>
      </trkpt>
      <trkpt lat="48.84429" lon="2.43998">
        <ele>53.592</ele>
        <time>2016-12-04T11:33:43.804Z</time>
      </trkpt>
      <trkpt lat="48.84429" lon="2.43983">
        <ele>53.21</ele>
        <time>2016-12-04T11:33:53.011Z</time>
      </trkpt>
      <trkpt lat="48.84423" lon="2.43973">
        <ele>52.791</ele>
        <time>2016-12-04T11:34:01.738Z</time>
      </trkpt>
      <trkpt lat="48.84415" lon="2.43966">
        <ele>52.406</ele>
        <time>2016-12-04T11:34:10.067Z</time>
      </trkpt>
      <trkpt lat="48.84406" lon="2.43957">
        <ele>52.171</ele>
        <time>2016-12-04T11:34:19.404Z</time>
      </trkpt>
      <trkpt lat="48.84403" lon="2.43942">
        <ele>52.173</ele>
        <time>2016-12-04T11:34:28.623Z</time>
      </trkpt>
      <trkpt lat="48.84399" lon="2.43929">
        <ele>52.34</ele>
        <time>2016-12-04T11:34:38.162Z</time>
      </trkpt>
      <trkpt lat="48.84389" lon="2.43925">
        <ele>52.454</ele>
        <time>2016-12-04T11:34:48.071Z</time>
      </trkpt>
      <trkpt lat="48.8438" lon="2.43924">
        <ele>52.303</ele>
        <time>2016-12-04T11:34:57.571Z</time>
      </trkpt>
      <trkpt lat="48.84372" lon="2.43915">
        <ele>51.884</ele>
        <time>2016-12-04T11:35:07.571Z</time>
      </trkpt>
      <trkpt lat="48.84363" lon="2.43908">
        <ele>51.468</ele>
        <time>2016-12-04T11:35:17.153Z</time>
      </trkpt>
      <trkpt lat="48.84354" lon="2.43905">
        <ele>51.276</ele>
        <time>2016-12-04T11:35:26.499Z</time>
      </trkpt>
      <trkpt lat="48.84345" lon="2.43898">
        <ele>51.292</ele>
        <time>2016-12-04T11:35:36.670Z</time>
      </trkpt>
      <trkpt lat="48.84336" lon="2.43893">
        <ele>51.589</ele>
        <time>2016-12-04T11:35:46.000Z</time>
      </trkpt>
      <trkpt lat="48.84336" lon="2.43893">
        <ele>52.169</ele>
        <time>2016-12-04T11:35:52.000Z</time>
      </trkpt>
      <trkpt lat="48.84336" lon="2.43893">
        <ele>52.601</ele>
        <time>2016-12-04T11:39:18.953Z</time>
      </trkpt>
      <trkpt lat="48.84326" lon="2.43893">
        <ele>52.566</ele>
        <time>2016-12-04T11:39:41.799Z</time>
      </trkpt>
      <trkpt lat="48.84317" lon="2.43889">
        <ele>52.313</ele>
        <time>2016-12-04T11:39:51.569Z</time>
      </trkpt>
      <trkpt lat="48.84308" lon="2.43885">
        <ele>51.958</ele>
        <time>2016-12-04T11:39:59.924Z</time>
      </trkpt>
      <trkpt lat="48.84299" lon="2.43881">
        <ele>51.443</ele>
        <time>2016-12-04T11:40:08.334Z</time>
      </trkpt>
      <trkpt lat="48.8429" lon="2.43879">
        <ele>51.084</ele>
        <time>2016-12-04T11:40:17.312Z</time>
      </trkpt>
      <trkpt lat="48.8428" lon="2.43877">
        <ele>51.247</ele>
        <time>2016-12-04T11:40:26.187Z</time>
      </trkpt>
      <trkpt lat="48.8427" lon="2.43876">
        <ele>51.842</ele>
        <time>2016-12-04T11:40:35.034Z</time>
      </trkpt>
      <trkpt lat="48.84261" lon="2.43873">
        <ele>52.507</ele>
        <time>2016-12-04T11:40:45.007Z</time>
      </trkpt>
      <trkpt lat="48.84252" lon="2.43871">
        <ele>52.897</ele>
        <time>2016-12-04T11:40:55.027Z</time>
      </trkpt>
      <trkpt lat="48.84243" lon="2.43873">
        <ele>52.928</ele>
        <time>2016-12-04T11:41:03.426Z</time>
      </trkpt>
      <trkpt lat="48.84233" lon="2.43876">
        <ele>52.741</ele>
        <time>2016-12-04T11:41:13.863Z</time>
      </trkpt>
      <trkpt lat="48.84224" lon="2.43873">
        <ele>52.398</ele>
        <time>2016-12-04T11:41:24.556Z</time>
      </trkpt>
      <trkpt lat="48.84215" lon="2.43872">
        <ele>51.834</ele>
        <time>2016-12-04T11:41:35.696Z</time>
      </trkpt>
      <trkpt lat="48.84205" lon="2.43871">
        <ele>51.148</ele>
        <time>2016-12-04T11:41:44.811Z</time>
      </trkpt>
      <trkpt lat="48.84196" lon="2.43868">
        <ele>50.61</ele>
        <time>2016-12-04T11:41:53.603Z</time>
      </trkpt>
      <trkpt lat="48.84186" lon="2.43866">
        <ele>50.362</ele>
        <time>2016-12-04T11:42:01.712Z</time>
      </trkpt>
      <trkpt lat="48.84178" lon="2.43863">
        <ele>50.391</ele>
        <time>2016-12-04T11:42:09.589Z</time>
      </trkpt>
      <trkpt lat="48.84168" lon="2.43861">
        <ele>50.625</ele>
        <time>2016-12-04T11:42:18.097Z</time>
      </trkpt>
      <trkpt lat="48.84159" lon="2.43859">
        <ele>50.97</ele>
        <time>2016-12-04T11:42:26.049Z</time>
      </trkpt>
      <trkpt lat="48.84149" lon="2.43857">
        <ele>51.348</ele>
        <time>2016-12-04T11:42:34.329Z</time>
      </trkpt>
      <trkpt lat="48.8414" lon="2.43857">
        <ele>51.682</ele>
        <time>2016-12-04T11:42:41.809Z</time>
      </trkpt>
      <trkpt lat="48.84131" lon="2.43856">
        <ele>51.892</ele>
        <time>2016-12-04T11:42:49.824Z</time>
      </trkpt>
      <trkpt lat="48.84121" lon="2.43853">
        <ele>51.974</ele>
        <time>2016-12-04T11:42:58.078Z</time>
      </trkpt>
      <trkpt lat="48.84112" lon="2.43854">
        <ele>51.921</ele>
        <time>2016-12-04T11:43:06.194Z</time>
      </trkpt>
      <trkpt lat="48.84102" lon="2.43857">
        <ele>51.761</ele>
        <time>2016-12-04T11:43:14.388Z</time>
      </trkpt>
      <trkpt lat="48.84092" lon="2.4386">
        <ele>51.631</ele>
        <time>2016-12-04T11:43:22.660Z</time>
      </trkpt>
      <trkpt lat="48.84083" lon="2.43864">
        <ele>51.622</ele>
        <time>2016-12-04T11:43:30.989Z</time>
      </trkpt>
      <trkpt lat="48.84074" lon="2.43871">
        <ele>51.556</ele>
        <time>2016-12-04T11:43:39.332Z</time>
      </trkpt>
      <trkpt lat="48.8407" lon="2.43885">
        <ele>51.286</ele>
        <time>2016-12-04T11:43:47.999Z</time>
      </trkpt>
      <trkpt lat="48.84066" lon="2.43897">
        <ele>50.992</ele>
        <time>2016-12-04T11:43:55.739Z</time>
      </trkpt>
      <trkpt lat="48.84062" lon="2.43911">
        <ele>50.872</ele>
        <time>2016-12-04T11:44:04.033Z</time>
      </trkpt>
      <trkpt lat="48.8406" lon="2.43924">
        <ele>50.904</ele>
        <time>2016-12-04T11:44:11.894Z</time>
      </trkpt>
      <trkpt lat="48.84057" lon="2.43938">
        <ele>50.984</ele>
        <time>2016-12-04T11:44:20.052Z</time>
      </trkpt>
      <trkpt lat="48.84056" lon="2.43952">
        <ele>51.039</ele>
        <time>2016-12-04T11:44:27.686Z</time>
      </trkpt>
      <trkpt lat="48.84057" lon="2.43967">
        <ele>51.055</ele>
        <time>2016-12-04T11:44:35.772Z</time>
      </trkpt>
      <trkpt lat="48.84056" lon="2.43982">
        <ele>51.029</ele>
        <time>2016-12-04T11:44:44.399Z</time>
      </trkpt>
      <trkpt lat="48.84055" lon="2.43997">
        <ele>50.978</ele>
        <time>2016-12-04T11:44:52.737Z</time>
      </trkpt>
      <trkpt lat="48.84053" lon="2.4401">
        <ele>50.999</ele>
        <time>2016-12-04T11:45:00.309Z</time>
      </trkpt>
      <trkpt lat="48.84051" lon="2.44024">
        <ele>51.138</ele>
        <time>2016-12-04T11:45:07.819Z</time>
      </trkpt>
      <trkpt lat="48.8405" lon="2.44039">
        <ele>51.349</ele>
        <time>2016-12-04T11:45:15.823Z</time>
      </trkpt>
      <trkpt lat="48.84049" lon="2.44053">
        <ele>51.515</ele>
        <time>2016-12-04T11:45:24.000Z</time>
      </trkpt>
      <trkpt lat="48.84049" lon="2.44053">
        <ele>51.553</ele>
        <time>2016-12-04T11:45:29.000Z</time>
      </trkpt>
      <trkpt lat="48.84049" lon="2.44053">
        <ele>51.504</ele>
        <time>2016-12-04T11:45:33.740Z</time>
      </trkpt>
      <trkpt lat="48.84046" lon="2.44068">
        <ele>51.467</ele>
        <time>2016-12-04T11:45:50.620Z</time>
      </trkpt>
      <trkpt lat="48.84044" lon="2.44081">
        <ele>51.429</ele>
        <time>2016-12-04T11:45:59.312Z</time>
      </trkpt>
      <trkpt lat="48.84044" lon="2.44096">
        <ele>51.307</ele>
        <time>2016-12-04T11:46:07.090Z</time>
      </trkpt>
      <trkpt lat="48.84044" lon="2.4411">
        <ele>51.164</ele>
        <time>2016-12-04T11:46:14.181Z</time>
      </trkpt>
      <trkpt lat="48.84044" lon="2.44124">
        <ele>51.095</ele>
        <time>2016-12-04T11:46:20.987Z</time>
      </trkpt>
      <trkpt lat="48.84041" lon="2.44137">
        <ele>51.111</ele>
        <time>2016-12-04T11:46:28.361Z</time>
      </trkpt>
      <trkpt lat="48.84039" lon="2.44151">
        <ele>51.161</ele>
        <time>2016-12-04T11:46:35.878Z</time>
      </trkpt>
      <trkpt lat="48.84036" lon="2.44166">
        <ele>51.194</ele>
        <time>2016-12-04T11:46:44.016Z</time>
      </trkpt>
      <trkpt lat="48.84036" lon="2.44181">
        <ele>51.139</ele>
        <time>2016-12-04T11:46:51.967Z</time>
      </trkpt>
      <trkpt lat="48.84035" lon="2.44195">
        <ele>50.927</ele>
        <time>2016-12-04T11:46:59.431Z</time>
      </trkpt>
      <trkpt lat="48.84035" lon="2.44209">
        <ele>50.639</ele>
        <time>2016-12-04T11:47:06.894Z</time>
      </trkpt>
      <trkpt lat="48.84036" lon="2.44222">
        <ele>50.481</ele>
        <time>2016-12-04T11:47:14.371Z</time>
      </trkpt>
      <trkpt lat="48.84034" lon="2.44237">
        <ele>50.593</ele>
        <time>2016-12-04T11:47:22.246Z</time>
      </trkpt>
      <trkpt lat="48.84032" lon="2.4425">
        <ele>50.893</ele>
        <time>2016-12-04T11:47:29.312Z</time>
      </trkpt>
      <trkpt lat="48.84029" lon="2.44264">
        <ele>51.1</ele>
        <time>2016-12-04T11:47:36.790Z</time>
      </trkpt>
      <trkpt lat="48.84027" lon="2.44278">
        <ele>51.07</ele>
        <time>2016-12-04T11:47:45.147Z</time>
      </trkpt>
      <trkpt lat="48.84027" lon="2.44292">
        <ele>50.933</ele>
        <time>2016-12-04T11:47:53.169Z</time>
      </trkpt>
      <trkpt lat="48.84026" lon="2.44307">
        <ele>50.815</ele>
        <time>2016-12-04T11:48:01.860Z</time>
      </trkpt>
      <trkpt lat="48.84024" lon="2.44322">
        <ele>50.723</ele>
        <time>2016-12-04T11:48:09.870Z</time>
      </trkpt>
      <trkpt lat="48.84023" lon="2.44337">
        <ele>50.631</ele>
        <time>2016-12-04T11:48:18.356Z</time>
      </trkpt>
      <trkpt lat="48.84021" lon="2.44351">
        <ele>50.555</ele>
        <time>2016-12-04T11:48:26.947Z</time>
      </trkpt>
      <trkpt lat="48.84022" lon="2.44366">
        <ele>50.546</ele>
        <time>2016-12-04T11:48:35.908Z</time>
      </trkpt>
      <trkpt lat="48.8402" lon="2.4438">
        <ele>50.591</ele>
        <time>2016-12-04T11:48:43.668Z</time>
      </trkpt>
      <trkpt lat="48.8402" lon="2.44395">
        <ele>50.645</ele>
        <time>2016-12-04T11:48:51.937Z</time>
      </trkpt>
      <trkpt lat="48.84018" lon="2.4441">
        <ele>50.682</ele>
        <time>2016-12-04T11:49:00.668Z</time>
      </trkpt>
      <trkpt lat="48.84017" lon="2.44424">
        <ele>50.671</ele>
        <time>2016-12-04T11:49:09.274Z</time>
      </trkpt>
      <trkpt lat="48.84016" lon="2.44439">
        <ele>50.631</ele>
        <time>2016-12-04T11:49:17.562Z</time>
      </trkpt>
      <trkpt lat="48.84014" lon="2.44453">
        <ele>50.677</ele>
        <time>2016-12-04T11:49:26.262Z</time>
      </trkpt>
      <trkpt lat="48.84015" lon="2.44467">
        <ele>50.873</ele>
        <time>2016-12-04T11:49:35.054Z</time>
      </trkpt>
      <trkpt lat="48.84013" lon="2.44481">
        <ele>51.14</ele>
        <time>2016-12-04T11:49:44.011Z</time>
      </trkpt>
      <trkpt lat="48.8401" lon="2.44494">
        <ele>51.358</ele>
        <time>2016-12-04T11:49:52.241Z</time>
      </trkpt>
      <trkpt lat="48.84009" lon="2.44509">
        <ele>51.475</ele>
        <time>2016-12-04T11:50:00.930Z</time>
      </trkpt>
      <trkpt lat="48.84008" lon="2.44523">
        <ele>51.492</ele>
        <time>2016-12-04T11:50:09.025Z</time>
      </trkpt>
      <trkpt lat="48.84007" lon="2.44538">
        <ele>51.463</ele>
        <time>2016-12-04T11:50:17.949Z</time>
      </trkpt>
      <trkpt lat="48.84006" lon="2.44553">
        <ele>51.474</ele>
        <time>2016-12-04T11:50:26.918Z</time>
      </trkpt>
      <trkpt lat="48.84005" lon="2.44567">
        <ele>51.565</ele>
        <time>2016-12-04T11:50:35.624Z</time>
      </trkpt>
      <trkpt lat="48.84002" lon="2.44582">
        <ele>51.589</ele>
        <time>2016-12-04T11:50:44.634Z</time>
      </trkpt>
      <trkpt lat="48.84" lon="2.44595">
        <ele>51.38</ele>
        <time>2016-12-04T11:50:52.655Z</time>
      </trkpt>
      <trkpt lat="48.83998" lon="2.4461">
        <ele>51.037</ele>
        <time>2016-12-04T11:51:01.396Z</time>
      </trkpt>
      <trkpt lat="48.83998" lon="2.44625">
        <ele>50.825</ele>
        <time>2016-12-04T11:51:09.451Z</time>
      </trkpt>
      <trkpt lat="48.83997" lon="2.4464">
        <ele>50.904</ele>
        <time>2016-12-04T11:51:17.651Z</time>
      </trkpt>
      <trkpt lat="48.83997" lon="2.44654">
        <ele>51.189</ele>
        <time>2016-12-04T11:51:25.738Z</time>
      </trkpt>
      <trkpt lat="48.83995" lon="2.44668">
        <ele>51.483</ele>
        <time>2016-12-04T11:51:34.656Z</time>
      </trkpt>
      <trkpt lat="48.83991" lon="2.44682">
        <ele>51.686</ele>
        <time>2016-12-04T11:51:45.063Z</time>
      </trkpt>
      <trkpt lat="48.83988" lon="2.44695">
        <ele>51.745</ele>
        <time>2016-12-04T11:51:55.004Z</time>
      </trkpt>
      <trkpt lat="48.83985" lon="2.4471">
        <ele>51.652</ele>
        <time>2016-12-04T11:52:05.702Z</time>
      </trkpt>
      <trkpt lat="48.83981" lon="2.44724">
        <ele>51.542</ele>
        <time>2016-12-04T11:52:14.467Z</time>
      </trkpt>
      <trkpt lat="48.83976" lon="2.44736">
        <ele>51.581</ele>
        <time>2016-12-04T11:52:22.081Z</time>
      </trkpt>
      <trkpt lat="48.83972" lon="2.4475">
        <ele>51.791</ele>
        <time>2016-12-04T11:52:30.103Z</time>
      </trkpt>
      <trkpt lat="48.83967" lon="2.44763">
        <ele>52.051</ele>
        <time>2016-12-04T11:52:38.207Z</time>
      </trkpt>
      <trkpt lat="48.83962" lon="2.44775">
        <ele>52.237</ele>
        <time>2016-12-04T11:52:46.437Z</time>
      </trkpt>
      <trkpt lat="48.83959" lon="2.44789">
        <ele>52.326</ele>
        <time>2016-12-04T11:52:54.271Z</time>
      </trkpt>
      <trkpt lat="48.83955" lon="2.44802">
        <ele>52.402</ele>
        <time>2016-12-04T11:53:01.762Z</time>
      </trkpt>
      <trkpt lat="48.83951" lon="2.44814">
        <ele>52.478</ele>
        <time>2016-12-04T11:53:09.101Z</time>
      </trkpt>
      <trkpt lat="48.83949" lon="2.44828">
        <ele>52.461</ele>
        <time>2016-12-04T11:53:17.464Z</time>
      </trkpt>
      <trkpt lat="48.83944" lon="2.4484">
        <ele>52.279</ele>
        <time>2016-12-04T11:53:26.173Z</time>
      </trkpt>
      <trkpt lat="48.83939" lon="2.44852">
        <ele>51.996</ele>
        <time>2016-12-04T11:53:35.114Z</time>
      </trkpt>
      <trkpt lat="48.83933" lon="2.44865">
        <ele>51.731</ele>
        <time>2016-12-04T11:53:43.714Z</time>
      </trkpt>
      <trkpt lat="48.83927" lon="2.44875">
        <ele>51.531</ele>
        <time>2016-12-04T11:53:51.387Z</time>
      </trkpt>
      <trkpt lat="48.83923" lon="2.44888">
        <ele>51.381</ele>
        <time>2016-12-04T11:53:59.074Z</time>
      </trkpt>
      <trkpt lat="48.83918" lon="2.44899">
        <ele>51.361</ele>
        <time>2016-12-04T11:54:07.361Z</time>
      </trkpt>
      <trkpt lat="48.83911" lon="2.44911">
        <ele>51.607</ele>
        <time>2016-12-04T11:54:16.134Z</time>
      </trkpt>
      <trkpt lat="48.83904" lon="2.44921">
        <ele>52.084</ele>
        <time>2016-12-04T11:54:24.951Z</time>
      </trkpt>
      <trkpt lat="48.83899" lon="2.44934">
        <ele>52.545</ele>
        <time>2016-12-04T11:54:33.260Z</time>
      </trkpt>
      <trkpt lat="48.83893" lon="2.44946">
        <ele>52.85</ele>
        <time>2016-12-04T11:54:41.909Z</time>
      </trkpt>
      <trkpt lat="48.83886" lon="2.44956">
        <ele>53.051</ele>
        <time>2016-12-04T11:54:49.692Z</time>
      </trkpt>
      <trkpt lat="48.83879" lon="2.44966">
        <ele>53.189</ele>
        <time>2016-12-04T11:54:57.514Z</time>
      </trkpt>
      <trkpt lat="48.83875" lon="2.44978">
        <ele>53.239</ele>
        <time>2016-12-04T11:55:05.464Z</time>
      </trkpt>
      <trkpt lat="48.83869" lon="2.44989">
        <ele>53.209</ele>
        <time>2016-12-04T11:55:14.000Z</time>
      </trkpt>
      <trkpt lat="48.83863" lon="2.45001">
        <ele>53.236</ele>
        <time>2016-12-04T11:55:22.056Z</time>
      </trkpt>
      <trkpt lat="48.83856" lon="2.45011">
        <ele>53.467</ele>
        <time>2016-12-04T11:55:29.971Z</time>
      </trkpt>
      <trkpt lat="48.83849" lon="2.45022">
        <ele>53.823</ele>
        <time>2016-12-04T11:55:37.932Z</time>
      </trkpt>
      <trkpt lat="48.83843" lon="2.45033">
        <ele>54.094</ele>
        <time>2016-12-04T11:55:45.802Z</time>
      </trkpt>
      <trkpt lat="48.83837" lon="2.45045">
        <ele>54.236</ele>
        <time>2016-12-04T11:55:54.643Z</time>
      </trkpt>
      <trkpt lat="48.83831" lon="2.45058">
        <ele>54.332</ele>
        <time>2016-12-04T11:56:04.647Z</time>
      </trkpt>
      <trkpt lat="48.83825" lon="2.45069">
        <ele>54.526</ele>
        <time>2016-12-04T11:56:13.637Z</time>
      </trkpt>
      <trkpt lat="48.83818" lon="2.45078">
        <ele>54.869</ele>
        <time>2016-12-04T11:56:21.048Z</time>
      </trkpt>
      <trkpt lat="48.8381" lon="2.45088">
        <ele>55.066</ele>
        <time>2016-12-04T11:56:28.886Z</time>
      </trkpt>
      <trkpt lat="48.83803" lon="2.45098">
        <ele>54.845</ele>
        <time>2016-12-04T11:56:36.568Z</time>
      </trkpt>
      <trkpt lat="48.83798" lon="2.4511">
        <ele>54.344</ele>
        <time>2016-12-04T11:56:44.090Z</time>
      </trkpt>
      <trkpt lat="48.83795" lon="2.45123">
        <ele>53.819</ele>
        <time>2016-12-04T11:56:51.967Z</time>
      </trkpt>
      <trkpt lat="48.83789" lon="2.45133">
        <ele>53.461</ele>
        <time>2016-12-04T11:57:00.690Z</time>
      </trkpt>
      <trkpt lat="48.83782" lon="2.45145">
        <ele>53.33</ele>
        <time>2016-12-04T11:57:10.032Z</time>
      </trkpt>
      <trkpt lat="48.83777" lon="2.45156">
        <ele>53.298</ele>
        <time>2016-12-04T11:57:18.063Z</time>
      </trkpt>
      <trkpt lat="48.83771" lon="2.45167">
        <ele>53.261</ele>
        <time>2016-12-04T11:57:26.532Z</time>
      </trkpt>
      <trkpt lat="48.83765" lon="2.45177">
        <ele>53.274</ele>
        <time>2016-12-04T11:57:35.333Z</time>
      </trkpt>
      <trkpt lat="48.83762" lon="2.45191">
        <ele>53.434</ele>
        <time>2016-12-04T11:57:44.831Z</time>
      </trkpt>
      <trkpt lat="48.83756" lon="2.45202">
        <ele>53.748</ele>
        <time>2016-12-04T11:57:54.500Z</time>
      </trkpt>
      <trkpt lat="48.83752" lon="2.45215">
        <ele>54.076</ele>
        <time>2016-12-04T11:58:02.877Z</time>
      </trkpt>
      <trkpt lat="48.83744" lon="2.45224">
        <ele>54.262</ele>
        <time>2016-12-04T11:58:11.804Z</time>
      </trkpt>
      <trkpt lat="48.83738" lon="2.45235">
        <ele>54.281</ele>
        <time>2016-12-04T11:58:20.078Z</time>
      </trkpt>
      <trkpt lat="48.83731" lon="2.45244">
        <ele>54.254</ele>
        <time>2016-12-04T11:58:27.804Z</time>
      </trkpt>
      <trkpt lat="48.83725" lon="2.45255">
        <ele>54.308</ele>
        <time>2016-12-04T11:58:35.815Z</time>
      </trkpt>
      <trkpt lat="48.83719" lon="2.45267">
        <ele>54.458</ele>
        <time>2016-12-04T11:58:43.163Z</time>
      </trkpt>
      <trkpt lat="48.83713" lon="2.45277">
        <ele>54.686</ele>
        <time>2016-12-04T11:58:50.765Z</time>
      </trkpt>
      <trkpt lat="48.83707" lon="2.45288">
        <ele>54.952</ele>
        <time>2016-12-04T11:58:58.577Z</time>
      </trkpt>
      <trkpt lat="48.837" lon="2.453">
        <ele>55.129</ele>
        <time>2016-12-04T11:59:07.180Z</time>
      </trkpt>
      <trkpt lat="48.83694" lon="2.45311">
        <ele>55.14</ele>
        <time>2016-12-04T11:59:15.563Z</time>
      </trkpt>
      <trkpt lat="48.83689" lon="2.45323">
        <ele>55.07</ele>
        <time>2016-12-04T11:59:23.805Z</time>
      </trkpt>
      <trkpt lat="48.83683" lon="2.45335">
        <ele>55.033</ele>
        <time>2016-12-04T11:59:32.866Z</time>
      </trkpt>
      <trkpt lat="48.8368" lon="2.45349">
        <ele>55.074</ele>
        <time>2016-12-04T11:59:41.429Z</time>
      </trkpt>
      <trkpt lat="48.83677" lon="2.45363">
        <ele>55.178</ele>
        <time>2016-12-04T11:59:49.175Z</time>
      </trkpt>
      <trkpt lat="48.83677" lon="2.45378">
        <ele>55.298</ele>
        <time>2016-12-04T11:59:57.293Z</time>
      </trkpt>
      <trkpt lat="48.83674" lon="2.45392">
        <ele>55.379</ele>
        <time>2016-12-04T12:00:04.661Z</time>
      </trkpt>
      <trkpt lat="48.83673" lon="2.45408">
        <ele>55.445</ele>
        <time>2016-12-04T12:00:12.348Z</time>
      </trkpt>
      <trkpt lat="48.83672" lon="2.45423">
        <ele>55.544</ele>
        <time>2016-12-04T12:00:20.061Z</time>
      </trkpt>
      <trkpt lat="48.83672" lon="2.45436">
        <ele>55.554</ele>
        <time>2016-12-04T12:00:27.056Z</time>
      </trkpt>
      <trkpt lat="48.83671" lon="2.45452">
        <ele>55.378</ele>
        <time>2016-12-04T12:00:34.991Z</time>
      </trkpt>
      <trkpt lat="48.83671" lon="2.45467">
        <ele>55.247</ele>
        <time>2016-12-04T12:00:43.353Z</time>
      </trkpt>
      <trkpt lat="48.83671" lon="2.4548">
        <ele>55.373</ele>
        <time>2016-12-04T12:00:51.968Z</time>
      </trkpt>
      <trkpt lat="48.8367" lon="2.45495">
        <ele>55.65</ele>
        <time>2016-12-04T12:01:01.088Z</time>
      </trkpt>
      <trkpt lat="48.83665" lon="2.45509">
        <ele>55.908</ele>
        <time>2016-12-04T12:01:09.629Z</time>
      </trkpt>
      <trkpt lat="48.83669" lon="2.45522">
        <ele>56.057</ele>
        <time>2016-12-04T12:01:19.848Z</time>
      </trkpt>
      <trkpt lat="48.83666" lon="2.45537">
        <ele>56.083</ele>
        <time>2016-12-04T12:01:30.152Z</time>
      </trkpt>
      <trkpt lat="48.83667" lon="2.45551">
        <ele>56.097</ele>
        <time>2016-12-04T12:01:37.656Z</time>
      </trkpt>
      <trkpt lat="48.83672" lon="2.45565">
        <ele>56.181</ele>
        <time>2016-12-04T12:01:45.287Z</time>
      </trkpt>
      <trkpt lat="48.83677" lon="2.45576">
        <ele>56.179</ele>
        <time>2016-12-04T12:01:52.605Z</time>
      </trkpt>
      <trkpt lat="48.83678" lon="2.4559">
        <ele>55.956</ele>
        <time>2016-12-04T12:02:00.458Z</time>
      </trkpt>
      <trkpt lat="48.83671" lon="2.456">
        <ele>55.684</ele>
        <time>2016-12-04T12:02:08.999Z</time>
      </trkpt>
      <trkpt lat="48.83671" lon="2.456">
        <ele>55.542</ele>
        <time>2016-12-04T12:02:14.999Z</time>
      </trkpt>
      <trkpt lat="48.83671" lon="2.456">
        <ele>55.501</ele>
        <time>2016-12-04T12:02:16.927Z</time>
      </trkpt>
      <trkpt lat="48.8366" lon="2.4561">
        <ele>55.489</ele>
        <time>2016-12-04T12:02:29.992Z</time>
      </trkpt>
      <trkpt lat="48.83651" lon="2.45613">
        <ele>55.449</ele>
        <time>2016-12-04T12:02:35.999Z</time>
      </trkpt>
      <trkpt lat="48.83651" lon="2.45613">
        <ele>55.366</ele>
        <time>2016-12-04T12:02:43.999Z</time>
      </trkpt>
      <trkpt lat="48.83651" lon="2.45613">
        <ele>55.291</ele>
        <time>2016-12-04T12:02:49.004Z</time>
      </trkpt>
      <trkpt lat="48.83639" lon="2.45615">
        <ele>55.269</ele>
        <time>2016-12-04T12:03:06.166Z</time>
      </trkpt>
      <trkpt lat="48.83629" lon="2.45616">
        <ele>55.116</ele>
        <time>2016-12-04T12:03:15.094Z</time>
      </trkpt>
      <trkpt lat="48.8362" lon="2.45616">
        <ele>54.702</ele>
        <time>2016-12-04T12:03:23.357Z</time>
      </trkpt>
      <trkpt lat="48.8361" lon="2.45615">
        <ele>54.298</ele>
        <time>2016-12-04T12:03:31.156Z</time>
      </trkpt>
      <trkpt lat="48.83601" lon="2.45613">
        <ele>54.17</ele>
        <time>2016-12-04T12:03:38.480Z</time>
      </trkpt>
      <trkpt lat="48.83591" lon="2.45611">
        <ele>54.224</ele>
        <time>2016-12-04T12:03:46.012Z</time>
      </trkpt>
      <trkpt lat="48.83582" lon="2.45607">
        <ele>54.245</ele>
        <time>2016-12-04T12:03:53.584Z</time>
      </trkpt>
      <trkpt lat="48.83573" lon="2.45605">
        <ele>54.106</ele>
        <time>2016-12-04T12:04:01.999Z</time>
      </trkpt>
      <trkpt lat="48.83573" lon="2.45605">
        <ele>53.886</ele>
        <time>2016-12-04T12:04:08.999Z</time>
      </trkpt>
      <trkpt lat="48.83573" lon="2.45605">
        <ele>53.749</ele>
        <time>2016-12-04T12:25:38.748Z</time>
      </trkpt>
      <trkpt lat="48.83564" lon="2.45599">
        <ele>53.779</ele>
        <time>2016-12-04T12:25:49.000Z</time>
      </trkpt>
      <trkpt lat="48.83564" lon="2.45599">
        <ele>53.801</ele>
        <time>2016-12-04T12:25:50.000Z</time>
      </trkpt>
      <trkpt lat="48.83564" lon="2.45599">
        <ele>53.777</ele>
        <time>2016-12-04T12:25:58.590Z</time>
      </trkpt>
      <trkpt lat="48.83574" lon="2.45602">
        <ele>53.727</ele>
        <time>2016-12-04T12:26:22.000Z</time>
      </trkpt>
      <trkpt lat="48.83574" lon="2.45602">
        <ele>53.719</ele>
        <time>2016-12-04T12:26:24.000Z</time>
      </trkpt>
      <trkpt lat="48.83574" lon="2.45602">
        <ele>53.697</ele>
        <time>2016-12-04T12:26:48.726Z</time>
      </trkpt>
      <trkpt lat="48.8359" lon="2.45603">
        <ele>53.671</ele>
        <time>2016-12-04T12:27:07.756Z</time>
      </trkpt>
      <trkpt lat="48.83599" lon="2.45605">
        <ele>53.518</ele>
        <time>2016-12-04T12:27:13.804Z</time>
      </trkpt>
      <trkpt lat="48.83608" lon="2.45607">
        <ele>53.155</ele>
        <time>2016-12-04T12:27:19.000Z</time>
      </trkpt>
      <trkpt lat="48.83608" lon="2.45607">
        <ele>52.819</ele>
        <time>2016-12-04T12:27:24.000Z</time>
      </trkpt>
      <trkpt lat="48.83608" lon="2.45607">
        <ele>52.731</ele>
        <time>2016-12-04T12:27:25.959Z</time>
      </trkpt>
      <trkpt lat="48.83621" lon="2.45611">
        <ele>52.82</ele>
        <time>2016-12-04T12:27:37.000Z</time>
      </trkpt>
      <trkpt lat="48.83621" lon="2.45611">
        <ele>52.917</ele>
        <time>2016-12-04T12:27:41.000Z</time>
      </trkpt>
      <trkpt lat="48.83621" lon="2.45611">
        <ele>52.92</ele>
        <time>2016-12-04T12:27:51.401Z</time>
      </trkpt>
      <trkpt lat="48.83631" lon="2.45615">
        <ele>52.851</ele>
        <time>2016-12-04T12:28:04.600Z</time>
      </trkpt>
      <trkpt lat="48.83641" lon="2.45613">
        <ele>52.739</ele>
        <time>2016-12-04T12:28:10.000Z</time>
      </trkpt>
      <trkpt lat="48.83641" lon="2.45613">
        <ele>52.459</ele>
        <time>2016-12-04T12:28:14.000Z</time>
      </trkpt>
      <trkpt lat="48.83641" lon="2.45613">
        <ele>52.217</ele>
        <time>2016-12-04T12:28:23.196Z</time>
      </trkpt>
      <trkpt lat="48.83655" lon="2.45606">
        <ele>52.238</ele>
        <time>2016-12-04T12:28:34.000Z</time>
      </trkpt>
      <trkpt lat="48.83655" lon="2.45606">
        <ele>52.401</ele>
        <time>2016-12-04T12:28:43.000Z</time>
      </trkpt>
      <trkpt lat="48.83655" lon="2.45606">
        <ele>52.477</ele>
        <time>2016-12-04T12:29:11.757Z</time>
      </trkpt>
      <trkpt lat="48.83646" lon="2.45613">
        <ele>52.372</ele>
        <time>2016-12-04T12:29:24.142Z</time>
      </trkpt>
      <trkpt lat="48.83636" lon="2.45613">
        <ele>52.338</ele>
        <time>2016-12-04T12:29:32.157Z</time>
      </trkpt>
      <trkpt lat="48.83627" lon="2.45613">
        <ele>52.419</ele>
        <time>2016-12-04T12:29:39.078Z</time>
      </trkpt>
      <trkpt lat="48.83616" lon="2.45614">
        <ele>52.713</ele>
        <time>2016-12-04T12:29:45.770Z</time>
      </trkpt>
      <trkpt lat="48.83607" lon="2.45612">
        <ele>53.124</ele>
        <time>2016-12-04T12:29:51.750Z</time>
      </trkpt>
      <trkpt lat="48.83597" lon="2.4561">
        <ele>53.434</ele>
        <time>2016-12-04T12:29:58.241Z</time>
      </trkpt>
      <trkpt lat="48.83587" lon="2.45608">
        <ele>53.562</ele>
        <time>2016-12-04T12:30:05.923Z</time>
      </trkpt>
      <trkpt lat="48.83578" lon="2.45606">
        <ele>53.531</ele>
        <time>2016-12-04T12:30:15.000Z</time>
      </trkpt>
      <trkpt lat="48.83578" lon="2.45606">
        <ele>53.398</ele>
        <time>2016-12-04T12:30:23.000Z</time>
      </trkpt>
      <trkpt lat="48.83578" lon="2.45606">
        <ele>53.283</ele>
        <time>2016-12-04T12:33:44.533Z</time>
      </trkpt>
      <trkpt lat="48.83586" lon="2.45599">
        <ele>53.297</ele>
        <time>2016-12-04T12:33:57.641Z</time>
      </trkpt>
      <trkpt lat="48.83595" lon="2.45605">
        <ele>53.328</ele>
        <time>2016-12-04T12:34:04.579Z</time>
      </trkpt>
      <trkpt lat="48.83605" lon="2.45607">
        <ele>53.412</ele>
        <time>2016-12-04T12:34:11.399Z</time>
      </trkpt>
      <trkpt lat="48.83614" lon="2.4561">
        <ele>53.805</ele>
        <time>2016-12-04T12:34:17.574Z</time>
      </trkpt>
      <trkpt lat="48.83623" lon="2.45613">
        <ele>54.601</ele>
        <time>2016-12-04T12:34:23.538Z</time>
      </trkpt>
      <trkpt lat="48.83632" lon="2.45613">
        <ele>55.423</ele>
        <time>2016-12-04T12:34:29.475Z</time>
      </trkpt>
      <trkpt lat="48.83642" lon="2.45611">
        <ele>55.697</ele>
        <time>2016-12-04T12:34:36.000Z</time>
      </trkpt>
      <trkpt lat="48.83642" lon="2.45611">
        <ele>55.325</ele>
        <time>2016-12-04T12:34:46.000Z</time>
      </trkpt>
      <trkpt lat="48.83642" lon="2.45611">
        <ele>54.886</ele>
        <time>2016-12-04T12:35:32.181Z</time>
      </trkpt>
      <trkpt lat="48.83631" lon="2.45614">
        <ele>54.857</ele>
        <time>2016-12-04T12:36:20.963Z</time>
      </trkpt>
      <trkpt lat="48.83621" lon="2.45615">
        <ele>54.576</ele>
        <time>2016-12-04T12:36:29.642Z</time>
      </trkpt>
      <trkpt lat="48.83612" lon="2.45611">
        <ele>53.471</ele>
        <time>2016-12-04T12:36:36.389Z</time>
      </trkpt>
      <trkpt lat="48.83603" lon="2.45609">
        <ele>52.284</ele>
        <time>2016-12-04T12:36:42.381Z</time>
      </trkpt>
      <trkpt lat="48.83594" lon="2.45606">
        <ele>51.804</ele>
        <time>2016-12-04T12:36:48.000Z</time>
      </trkpt>
      <trkpt lat="48.83594" lon="2.45606">
        <ele>51.782</ele>
        <time>2016-12-04T12:36:53.000Z</time>
      </trkpt>
      <trkpt lat="48.83594" lon="2.45606">
        <ele>51.804</ele>
        <time>2016-12-04T12:36:53.100Z</time>
      </trkpt>
      <trkpt lat="48.83579" lon="2.45604">
        <ele>51.77</ele>
        <time>2016-12-04T12:37:09.000Z</time>
      </trkpt>
      <trkpt lat="48.83579" lon="2.45604">
        <ele>51.733</ele>
        <time>2016-12-04T12:37:17.000Z</time>
      </trkpt>
      <trkpt lat="48.83579" lon="2.45604">
        <ele>51.707</ele>
        <time>2016-12-04T12:39:20.285Z</time>
      </trkpt>
      <trkpt lat="48.83556" lon="2.456">
        <ele>51.692</ele>
        <time>2016-12-04T12:40:00.419Z</time>
      </trkpt>
      <trkpt lat="48.83546" lon="2.45598">
        <ele>52.008</ele>
        <time>2016-12-04T12:40:10.926Z</time>
      </trkpt>
      <trkpt lat="48.83537" lon="2.45602">
        <ele>52.84</ele>
        <time>2016-12-04T12:40:19.430Z</time>
      </trkpt>
      <trkpt lat="48.83529" lon="2.4561">
        <ele>53.566</ele>
        <time>2016-12-04T12:40:26.926Z</time>
      </trkpt>
      <trkpt lat="48.83519" lon="2.45615">
        <ele>53.597</ele>
        <time>2016-12-04T12:40:34.006Z</time>
      </trkpt>
      <trkpt lat="48.83511" lon="2.45623">
        <ele>53.086</ele>
        <time>2016-12-04T12:40:40.852Z</time>
      </trkpt>
      <trkpt lat="48.83502" lon="2.4563">
        <ele>52.308</ele>
        <time>2016-12-04T12:40:48.237Z</time>
      </trkpt>
      <trkpt lat="48.83493" lon="2.45635">
        <ele>51.516</ele>
        <time>2016-12-04T12:40:55.987Z</time>
      </trkpt>
      <trkpt lat="48.83485" lon="2.45644">
        <ele>50.978</ele>
        <time>2016-12-04T12:41:03.764Z</time>
      </trkpt>
      <trkpt lat="48.83478" lon="2.45653">
        <ele>50.746</ele>
        <time>2016-12-04T12:41:11.210Z</time>
      </trkpt>
      <trkpt lat="48.83469" lon="2.45662">
        <ele>50.715</ele>
        <time>2016-12-04T12:41:19.000Z</time>
      </trkpt>
      <trkpt lat="48.83469" lon="2.45662">
        <ele>50.785</ele>
        <time>2016-12-04T12:41:23.000Z</time>
      </trkpt>
      <trkpt lat="48.83469" lon="2.45662">
        <ele>50.839</ele>
        <time>2016-12-04T12:41:41.467Z</time>
      </trkpt>
      <trkpt lat="48.83461" lon="2.45673">
        <ele>50.763</ele>
        <time>2016-12-04T12:41:58.284Z</time>
      </trkpt>
      <trkpt lat="48.83454" lon="2.45681">
        <ele>51.116</ele>
        <time>2016-12-04T12:42:07.451Z</time>
      </trkpt>
      <trkpt lat="48.83446" lon="2.45691">
        <ele>52.164</ele>
        <time>2016-12-04T12:42:16.788Z</time>
      </trkpt>
      <trkpt lat="48.8344" lon="2.45702">
        <ele>53.345</ele>
        <time>2016-12-04T12:42:25.724Z</time>
      </trkpt>
      <trkpt lat="48.83434" lon="2.45713">
        <ele>54.067</ele>
        <time>2016-12-04T12:42:34.074Z</time>
      </trkpt>
      <trkpt lat="48.83425" lon="2.45721">
        <ele>54.522</ele>
        <time>2016-12-04T12:42:42.484Z</time>
      </trkpt>
      <trkpt lat="48.8342" lon="2.45732">
        <ele>55.055</ele>
        <time>2016-12-04T12:42:50.025Z</time>
      </trkpt>
      <trkpt lat="48.83413" lon="2.45743">
        <ele>55.69</ele>
        <time>2016-12-04T12:42:58.139Z</time>
      </trkpt>
      <trkpt lat="48.83407" lon="2.45755">
        <ele>56.314</ele>
        <time>2016-12-04T12:43:07.028Z</time>
      </trkpt>
      <trkpt lat="48.83403" lon="2.45768">
        <ele>56.921</ele>
        <time>2016-12-04T12:43:14.961Z</time>
      </trkpt>
      <trkpt lat="48.83397" lon="2.45781">
        <ele>57.439</ele>
        <time>2016-12-04T12:43:22.239Z</time>
      </trkpt>
      <trkpt lat="48.83393" lon="2.45793">
        <ele>57.727</ele>
        <time>2016-12-04T12:43:28.959Z</time>
      </trkpt>
      <trkpt lat="48.83388" lon="2.45805">
        <ele>57.798</ele>
        <time>2016-12-04T12:43:35.860Z</time>
      </trkpt>
      <trkpt lat="48.83385" lon="2.45819">
        <ele>57.769</ele>
        <time>2016-12-04T12:43:43.248Z</time>
      </trkpt>
      <trkpt lat="48.83381" lon="2.45832">
        <ele>57.712</ele>
        <time>2016-12-04T12:43:51.224Z</time>
      </trkpt>
      <trkpt lat="48.83377" lon="2.45846">
        <ele>57.621</ele>
        <time>2016-12-04T12:43:59.494Z</time>
      </trkpt>
      <trkpt lat="48.83372" lon="2.4586">
        <ele>57.465</ele>
        <time>2016-12-04T12:44:07.192Z</time>
      </trkpt>
      <trkpt lat="48.83365" lon="2.45871">
        <ele>57.08</ele>
        <time>2016-12-04T12:44:14.886Z</time>
      </trkpt>
      <trkpt lat="48.83362" lon="2.45885">
        <ele>56.426</ele>
        <time>2016-12-04T12:44:22.445Z</time>
      </trkpt>
      <trkpt lat="48.83358" lon="2.45899">
        <ele>55.835</ele>
        <time>2016-12-04T12:44:31.342Z</time>
      </trkpt>
      <trkpt lat="48.83358" lon="2.45914">
        <ele>55.593</ele>
        <time>2016-12-04T12:44:40.210Z</time>
      </trkpt>
      <trkpt lat="48.8336" lon="2.45927">
        <ele>55.644</ele>
        <time>2016-12-04T12:44:48.051Z</time>
      </trkpt>
      <trkpt lat="48.83363" lon="2.45941">
        <ele>55.814</ele>
        <time>2016-12-04T12:44:55.475Z</time>
      </trkpt>
      <trkpt lat="48.83363" lon="2.45955">
        <ele>55.939</ele>
        <time>2016-12-04T12:45:04.033Z</time>
      </trkpt>
      <trkpt lat="48.83368" lon="2.4597">
        <ele>55.935</ele>
        <time>2016-12-04T12:45:13.551Z</time>
      </trkpt>
      <trkpt lat="48.83372" lon="2.45984">
        <ele>55.771</ele>
        <time>2016-12-04T12:45:20.433Z</time>
      </trkpt>
      <trkpt lat="48.83377" lon="2.45996">
        <ele>55.264</ele>
        <time>2016-12-04T12:45:25.871Z</time>
      </trkpt>
      <trkpt lat="48.83379" lon="2.46009">
        <ele>55.074</ele>
        <time>2016-12-04T12:45:31.599Z</time>
      </trkpt>
      <trkpt lat="48.83383" lon="2.46023">
        <ele>54.927</ele>
        <time>2016-12-04T12:45:39.043Z</time>
      </trkpt>
      <trkpt lat="48.83387" lon="2.46035">
        <ele>54.943</ele>
        <time>2016-12-04T12:45:47.000Z</time>
      </trkpt>
      <trkpt lat="48.83387" lon="2.46035">
        <ele>54.971</ele>
        <time>2016-12-04T12:45:57.000Z</time>
      </trkpt>
      <trkpt lat="48.83387" lon="2.46035">
        <ele>54.974</ele>
        <time>2016-12-04T12:46:00.051Z</time>
      </trkpt>
      <trkpt lat="48.83391" lon="2.46054">
        <ele>54.947</ele>
        <time>2016-12-04T12:46:14.000Z</time>
      </trkpt>
      <trkpt lat="48.83391" lon="2.46054">
        <ele>54.918</ele>
        <time>2016-12-04T12:46:25.000Z</time>
      </trkpt>
      <trkpt lat="48.83391" lon="2.46054">
        <ele>54.901</ele>
        <time>2016-12-04T12:46:27.588Z</time>
      </trkpt>
      <trkpt lat="48.83379" lon="2.46059">
        <ele>54.89</ele>
        <time>2016-12-04T12:46:41.370Z</time>
      </trkpt>
      <trkpt lat="48.83369" lon="2.46061">
        <ele>55.007</ele>
        <time>2016-12-04T12:46:47.904Z</time>
      </trkpt>
      <trkpt lat="48.8336" lon="2.46059">
        <ele>55.341</ele>
        <time>2016-12-04T12:46:54.014Z</time>
      </trkpt>
      <trkpt lat="48.83351" lon="2.46066">
        <ele>55.739</ele>
        <time>2016-12-04T12:47:01.000Z</time>
      </trkpt>
      <trkpt lat="48.83351" lon="2.46066">
        <ele>56.013</ele>
        <time>2016-12-04T12:47:10.000Z</time>
      </trkpt>
      <trkpt lat="48.83351" lon="2.46066">
        <ele>56.115</ele>
        <time>2016-12-04T12:47:56.000Z</time>
      </trkpt>
      <trkpt lat="48.83351" lon="2.46066">
        <ele>56.076</ele>
        <time>2016-12-04T12:47:56.267Z</time>
      </trkpt>
      <trkpt lat="48.83351" lon="2.46066">
        <ele>55.999</ele>
        <time>2016-12-04T12:48:16.000Z</time>
      </trkpt>
      <trkpt lat="48.83351" lon="2.46066">
        <ele>56.009</ele>
        <time>2016-12-04T12:48:18.532Z</time>
      </trkpt>
      <trkpt lat="48.83355" lon="2.46087">
        <ele>55.993</ele>
        <time>2016-12-04T12:48:36.167Z</time>
      </trkpt>
      <trkpt lat="48.83358" lon="2.46101">
        <ele>56.334</ele>
        <time>2016-12-04T12:48:43.000Z</time>
      </trkpt>
      <trkpt lat="48.83358" lon="2.46101">
        <ele>57.282</ele>
        <time>2016-12-04T12:49:05.000Z</time>
      </trkpt>
      <trkpt lat="48.83358" lon="2.46101">
        <ele>58.074</ele>
        <time>2016-12-04T12:49:17.596Z</time>
      </trkpt>
      <trkpt lat="48.83368" lon="2.46113">
        <ele>58.037</ele>
        <time>2016-12-04T12:50:35.992Z</time>
      </trkpt>
      <trkpt lat="48.8336" lon="2.46105">
        <ele>57.829</ele>
        <time>2016-12-04T12:51:25.894Z</time>
      </trkpt>
      <trkpt lat="48.83356" lon="2.46092">
        <ele>58.359</ele>
        <time>2016-12-04T12:52:14.000Z</time>
      </trkpt>
      <trkpt lat="48.83356" lon="2.46092">
        <ele>59.49</ele>
        <time>2016-12-04T12:52:25.000Z</time>
      </trkpt>
      <trkpt lat="48.83356" lon="2.46092">
        <ele>60.255</ele>
        <time>2016-12-04T12:52:25.100Z</time>
      </trkpt>
      <trkpt lat="48.83351" lon="2.46075">
        <ele>60.095</ele>
        <time>2016-12-04T12:52:40.000Z</time>
      </trkpt>
      <trkpt lat="48.83351" lon="2.46075">
        <ele>59.501</ele>
        <time>2016-12-04T12:52:41.000Z</time>
      </trkpt>
      <trkpt lat="48.83351" lon="2.46075">
        <ele>59.188</ele>
        <time>2016-12-04T12:52:41.329Z</time>
      </trkpt>
      <trkpt lat="48.83344" lon="2.46065">
        <ele>59.228</ele>
        <time>2016-12-04T12:53:34.459Z</time>
      </trkpt>
      <trkpt lat="48.83349" lon="2.46078">
        <ele>59.306</ele>
        <time>2016-12-04T12:53:45.799Z</time>
      </trkpt>
      <trkpt lat="48.83356" lon="2.46089">
        <ele>59.275</ele>
        <time>2016-12-04T12:53:52.008Z</time>
      </trkpt>
      <trkpt lat="48.83363" lon="2.46099">
        <ele>59.199</ele>
        <time>2016-12-04T12:53:59.896Z</time>
      </trkpt>
      <trkpt lat="48.83367" lon="2.46112">
        <ele>59.282</ele>
        <time>2016-12-04T12:54:08.000Z</time>
      </trkpt>
      <trkpt lat="48.83367" lon="2.46112">
        <ele>59.577</ele>
        <time>2016-12-04T12:54:19.000Z</time>
      </trkpt>
      <trkpt lat="48.83367" lon="2.46112">
        <ele>59.816</ele>
        <time>2016-12-04T12:54:58.143Z</time>
      </trkpt>
      <trkpt lat="48.83368" lon="2.46132">
        <ele>59.787</ele>
        <time>2016-12-04T12:55:13.000Z</time>
      </trkpt>
      <trkpt lat="48.83368" lon="2.46132">
        <ele>59.66</ele>
        <time>2016-12-04T12:55:23.000Z</time>
      </trkpt>
      <trkpt lat="48.83368" lon="2.46132">
        <ele>59.626</ele>
        <time>2016-12-04T12:55:23.100Z</time>
      </trkpt>
      <trkpt lat="48.8338" lon="2.4615">
        <ele>59.665</ele>
        <time>2016-12-04T12:55:31.000Z</time>
      </trkpt>
      <trkpt lat="48.8338" lon="2.4615">
        <ele>59.688</ele>
        <time>2016-12-04T12:55:39.000Z</time>
      </trkpt>
      <trkpt lat="48.8338" lon="2.4615">
        <ele>59.666</ele>
        <time>2016-12-04T12:56:24.596Z</time>
      </trkpt>
      <trkpt lat="48.83368" lon="2.46174">
        <ele>59.629</ele>
        <time>2016-12-04T12:56:53.020Z</time>
      </trkpt>
      <trkpt lat="48.8336" lon="2.46181">
        <ele>59.599</ele>
        <time>2016-12-04T12:57:01.274Z</time>
      </trkpt>
      <trkpt lat="48.83352" lon="2.46189">
        <ele>59.574</ele>
        <time>2016-12-04T12:57:09.646Z</time>
      </trkpt>
      <trkpt lat="48.83344" lon="2.46198">
        <ele>59.629</ele>
        <time>2016-12-04T12:57:17.373Z</time>
      </trkpt>
      <trkpt lat="48.83336" lon="2.46206">
        <ele>59.898</ele>
        <time>2016-12-04T12:57:24.674Z</time>
      </trkpt>
      <trkpt lat="48.83329" lon="2.46214">
        <ele>60.323</ele>
        <time>2016-12-04T12:57:32.030Z</time>
      </trkpt>
      <trkpt lat="48.8332" lon="2.46222">
        <ele>60.656</ele>
        <time>2016-12-04T12:57:40.708Z</time>
      </trkpt>
      <trkpt lat="48.83313" lon="2.46231">
        <ele>60.793</ele>
        <time>2016-12-04T12:57:49.192Z</time>
      </trkpt>
      <trkpt lat="48.83305" lon="2.46239">
        <ele>60.838</ele>
        <time>2016-12-04T12:57:57.539Z</time>
      </trkpt>
      <trkpt lat="48.83296" lon="2.46247">
        <ele>60.886</ele>
        <time>2016-12-04T12:58:04.516Z</time>
      </trkpt>
      <trkpt lat="48.83288" lon="2.46253">
        <ele>60.978</ele>
        <time>2016-12-04T12:58:11.686Z</time>
      </trkpt>
      <trkpt lat="48.8328" lon="2.46261">
        <ele>61.136</ele>
        <time>2016-12-04T12:58:19.493Z</time>
      </trkpt>
      <trkpt lat="48.83272" lon="2.46269">
        <ele>61.388</ele>
        <time>2016-12-04T12:58:26.922Z</time>
      </trkpt>
      <trkpt lat="48.83264" lon="2.46279">
        <ele>61.679</ele>
        <time>2016-12-04T12:58:35.774Z</time>
      </trkpt>
      <trkpt lat="48.8326" lon="2.46291">
        <ele>61.852</ele>
        <time>2016-12-04T12:58:45.007Z</time>
      </trkpt>
      <trkpt lat="48.83251" lon="2.46299">
        <ele>61.766</ele>
        <time>2016-12-04T12:58:52.086Z</time>
      </trkpt>
      <trkpt lat="48.83243" lon="2.46307">
        <ele>61.476</ele>
        <time>2016-12-04T12:58:58.205Z</time>
      </trkpt>
      <trkpt lat="48.83235" lon="2.46315">
        <ele>61.157</ele>
        <time>2016-12-04T12:59:04.983Z</time>
      </trkpt>
      <trkpt lat="48.83228" lon="2.46325">
        <ele>60.937</ele>
        <time>2016-12-04T12:59:12.042Z</time>
      </trkpt>
      <trkpt lat="48.83219" lon="2.46333">
        <ele>60.856</ele>
        <time>2016-12-04T12:59:19.780Z</time>
      </trkpt>
      <trkpt lat="48.83212" lon="2.46343">
        <ele>60.929</ele>
        <time>2016-12-04T12:59:27.865Z</time>
      </trkpt>
      <trkpt lat="48.83205" lon="2.46354">
        <ele>61.136</ele>
        <time>2016-12-04T12:59:35.915Z</time>
      </trkpt>
      <trkpt lat="48.83199" lon="2.46364">
        <ele>61.381</ele>
        <time>2016-12-04T12:59:43.429Z</time>
      </trkpt>
      <trkpt lat="48.83191" lon="2.46375">
        <ele>61.546</ele>
        <time>2016-12-04T12:59:51.206Z</time>
      </trkpt>
      <trkpt lat="48.83183" lon="2.46382">
        <ele>61.518</ele>
        <time>2016-12-04T12:59:58.634Z</time>
      </trkpt>
      <trkpt lat="48.83175" lon="2.46391">
        <ele>61.181</ele>
        <time>2016-12-04T13:00:05.831Z</time>
      </trkpt>
      <trkpt lat="48.83167" lon="2.464">
        <ele>60.63</ele>
        <time>2016-12-04T13:00:13.586Z</time>
      </trkpt>
      <trkpt lat="48.83159" lon="2.46409">
        <ele>60.185</ele>
        <time>2016-12-04T13:00:21.614Z</time>
      </trkpt>
      <trkpt lat="48.8315" lon="2.46417">
        <ele>60.014</ele>
        <time>2016-12-04T13:00:29.672Z</time>
      </trkpt>
      <trkpt lat="48.83142" lon="2.46425">
        <ele>60.025</ele>
        <time>2016-12-04T13:00:37.832Z</time>
      </trkpt>
      <trkpt lat="48.83134" lon="2.46435">
        <ele>60.085</ele>
        <time>2016-12-04T13:00:46.000Z</time>
      </trkpt>
      <trkpt lat="48.83134" lon="2.46435">
        <ele>60.114</ele>
        <time>2016-12-04T13:00:53.000Z</time>
      </trkpt>
      <trkpt lat="48.83134" lon="2.46435">
        <ele>60.092</ele>
        <time>2016-12-04T13:00:53.571Z</time>
      </trkpt>
      <trkpt lat="48.83118" lon="2.46422">
        <ele>60.056</ele>
        <time>2016-12-04T13:01:20.347Z</time>
      </trkpt>
      <trkpt lat="48.83113" lon="2.4641">
        <ele>60.192</ele>
        <time>2016-12-04T13:01:29.776Z</time>
      </trkpt>
      <trkpt lat="48.83107" lon="2.46398">
        <ele>60.602</ele>
        <time>2016-12-04T13:01:38.403Z</time>
      </trkpt>
      <trkpt lat="48.83099" lon="2.46388">
        <ele>61.139</ele>
        <time>2016-12-04T13:01:45.615Z</time>
      </trkpt>
      <trkpt lat="48.83097" lon="2.46372">
        <ele>61.612</ele>
        <time>2016-12-04T13:01:52.628Z</time>
      </trkpt>
      <trkpt lat="48.83092" lon="2.46358">
        <ele>61.921</ele>
        <time>2016-12-04T13:01:59.805Z</time>
      </trkpt>
      <trkpt lat="48.83086" lon="2.46347">
        <ele>62.028</ele>
        <time>2016-12-04T13:02:07.243Z</time>
      </trkpt>
      <trkpt lat="48.83078" lon="2.46338">
        <ele>62.027</ele>
        <time>2016-12-04T13:02:14.025Z</time>
      </trkpt>
      <trkpt lat="48.83073" lon="2.46326">
        <ele>62.039</ele>
        <time>2016-12-04T13:02:20.406Z</time>
      </trkpt>
      <trkpt lat="48.8307" lon="2.46312">
        <ele>62.114</ele>
        <time>2016-12-04T13:02:26.481Z</time>
      </trkpt>
      <trkpt lat="48.83065" lon="2.46299">
        <ele>62.207</ele>
        <time>2016-12-04T13:02:32.924Z</time>
      </trkpt>
      <trkpt lat="48.83059" lon="2.46287">
        <ele>62.286</ele>
        <time>2016-12-04T13:02:39.617Z</time>
      </trkpt>
      <trkpt lat="48.83052" lon="2.46276">
        <ele>62.339</ele>
        <time>2016-12-04T13:02:46.348Z</time>
      </trkpt>
      <trkpt lat="48.83047" lon="2.46265">
        <ele>62.356</ele>
        <time>2016-12-04T13:02:53.005Z</time>
      </trkpt>
      <trkpt lat="48.83042" lon="2.46252">
        <ele>62.318</ele>
        <time>2016-12-04T13:02:59.937Z</time>
      </trkpt>
      <trkpt lat="48.83036" lon="2.4624">
        <ele>62.255</ele>
        <time>2016-12-04T13:03:07.145Z</time>
      </trkpt>
      <trkpt lat="48.83029" lon="2.46229">
        <ele>62.255</ele>
        <time>2016-12-04T13:03:13.516Z</time>
      </trkpt>
      <trkpt lat="48.83023" lon="2.46218">
        <ele>62.327</ele>
        <time>2016-12-04T13:03:19.754Z</time>
      </trkpt>
      <trkpt lat="48.83018" lon="2.46206">
        <ele>62.363</ele>
        <time>2016-12-04T13:03:26.086Z</time>
      </trkpt>
      <trkpt lat="48.83013" lon="2.46194">
        <ele>62.234</ele>
        <time>2016-12-04T13:03:32.828Z</time>
      </trkpt>
      <trkpt lat="48.83009" lon="2.46181">
        <ele>61.883</ele>
        <time>2016-12-04T13:03:39.615Z</time>
      </trkpt>
      <trkpt lat="48.83003" lon="2.46169">
        <ele>61.491</ele>
        <time>2016-12-04T13:03:47.330Z</time>
      </trkpt>
      <trkpt lat="48.82997" lon="2.46156">
        <ele>61.27</ele>
        <time>2016-12-04T13:03:55.208Z</time>
      </trkpt>
      <trkpt lat="48.82993" lon="2.46144">
        <ele>61.228</ele>
        <time>2016-12-04T13:04:02.221Z</time>
      </trkpt>
      <trkpt lat="48.82986" lon="2.46133">
        <ele>61.285</ele>
        <time>2016-12-04T13:04:08.997Z</time>
      </trkpt>
      <trkpt lat="48.82986" lon="2.46133">
        <ele>61.341</ele>
        <time>2016-12-04T13:04:19.997Z</time>
      </trkpt>
      <trkpt lat="48.82986" lon="2.46133">
        <ele>61.332</ele>
        <time>2016-12-04T13:04:39.996Z</time>
      </trkpt>
      <trkpt lat="48.82973" lon="2.4612">
        <ele>61.281</ele>
        <time>2016-12-04T13:05:00.470Z</time>
      </trkpt>
      <trkpt lat="48.82964" lon="2.46124">
        <ele>61.169</ele>
        <time>2016-12-04T13:05:08.346Z</time>
      </trkpt>
      <trkpt lat="48.82957" lon="2.46133">
        <ele>60.964</ele>
        <time>2016-12-04T13:05:15.562Z</time>
      </trkpt>
      <trkpt lat="48.8295" lon="2.46144">
        <ele>60.833</ele>
        <time>2016-12-04T13:05:21.862Z</time>
      </trkpt>
      <trkpt lat="48.82943" lon="2.46153">
        <ele>60.944</ele>
        <time>2016-12-04T13:05:28.338Z</time>
      </trkpt>
      <trkpt lat="48.82937" lon="2.46164">
        <ele>61.22</ele>
        <time>2016-12-04T13:05:34.871Z</time>
      </trkpt>
      <trkpt lat="48.82931" lon="2.46173">
        <ele>61.493</ele>
        <time>2016-12-04T13:05:41.514Z</time>
      </trkpt>
      <trkpt lat="48.82924" lon="2.46184">
        <ele>61.658</ele>
        <time>2016-12-04T13:05:48.411Z</time>
      </trkpt>
      <trkpt lat="48.82918" lon="2.46194">
        <ele>61.684</ele>
        <time>2016-12-04T13:05:54.886Z</time>
      </trkpt>
      <trkpt lat="48.8291" lon="2.46205">
        <ele>61.63</ele>
        <time>2016-12-04T13:06:02.138Z</time>
      </trkpt>
      <trkpt lat="48.82903" lon="2.46214">
        <ele>61.582</ele>
        <time>2016-12-04T13:06:09.109Z</time>
      </trkpt>
      <trkpt lat="48.82895" lon="2.46224">
        <ele>61.595</ele>
        <time>2016-12-04T13:06:16.178Z</time>
      </trkpt>
      <trkpt lat="48.82888" lon="2.46235">
        <ele>61.674</ele>
        <time>2016-12-04T13:06:23.695Z</time>
      </trkpt>
      <trkpt lat="48.82881" lon="2.46245">
        <ele>61.737</ele>
        <time>2016-12-04T13:06:31.137Z</time>
      </trkpt>
      <trkpt lat="48.82873" lon="2.46253">
        <ele>61.715</ele>
        <time>2016-12-04T13:06:38.510Z</time>
      </trkpt>
      <trkpt lat="48.82866" lon="2.46264">
        <ele>61.645</ele>
        <time>2016-12-04T13:06:46.524Z</time>
      </trkpt>
      <trkpt lat="48.82858" lon="2.46275">
        <ele>61.658</ele>
        <time>2016-12-04T13:06:54.235Z</time>
      </trkpt>
      <trkpt lat="48.82852" lon="2.46285">
        <ele>61.852</ele>
        <time>2016-12-04T13:07:01.172Z</time>
      </trkpt>
      <trkpt lat="48.82845" lon="2.46295">
        <ele>62.143</ele>
        <time>2016-12-04T13:07:07.698Z</time>
      </trkpt>
      <trkpt lat="48.82837" lon="2.46304">
        <ele>62.387</ele>
        <time>2016-12-04T13:07:14.819Z</time>
      </trkpt>
      <trkpt lat="48.8283" lon="2.46314">
        <ele>62.534</ele>
        <time>2016-12-04T13:07:21.682Z</time>
      </trkpt>
      <trkpt lat="48.82823" lon="2.46323">
        <ele>62.615</ele>
        <time>2016-12-04T13:07:27.999Z</time>
      </trkpt>
      <trkpt lat="48.82816" lon="2.46332">
        <ele>62.674</ele>
        <time>2016-12-04T13:07:34.731Z</time>
      </trkpt>
      <trkpt lat="48.82809" lon="2.46341">
        <ele>62.688</ele>
        <time>2016-12-04T13:07:41.037Z</time>
      </trkpt>
      <trkpt lat="48.82801" lon="2.4635">
        <ele>62.625</ele>
        <time>2016-12-04T13:07:48.020Z</time>
      </trkpt>
      <trkpt lat="48.82793" lon="2.46359">
        <ele>62.551</ele>
        <time>2016-12-04T13:07:55.177Z</time>
      </trkpt>
      <trkpt lat="48.82785" lon="2.46368">
        <ele>62.526</ele>
        <time>2016-12-04T13:08:02.331Z</time>
      </trkpt>
      <trkpt lat="48.82777" lon="2.46377">
        <ele>62.492</ele>
        <time>2016-12-04T13:08:09.660Z</time>
      </trkpt>
      <trkpt lat="48.82771" lon="2.4639">
        <ele>62.395</ele>
        <time>2016-12-04T13:08:17.153Z</time>
      </trkpt>
      <trkpt lat="48.82763" lon="2.46398">
        <ele>62.299</ele>
        <time>2016-12-04T13:08:24.427Z</time>
      </trkpt>
      <trkpt lat="48.82753" lon="2.46395">
        <ele>62.273</ele>
        <time>2016-12-04T13:08:30.964Z</time>
      </trkpt>
      <trkpt lat="48.82744" lon="2.46399">
        <ele>62.249</ele>
        <time>2016-12-04T13:08:38.087Z</time>
      </trkpt>
      <trkpt lat="48.82746" lon="2.46414">
        <ele>62.162</ele>
        <time>2016-12-04T13:08:46.629Z</time>
      </trkpt>
      <trkpt lat="48.82738" lon="2.46421">
        <ele>62.065</ele>
        <time>2016-12-04T13:08:54.138Z</time>
      </trkpt>
      <trkpt lat="48.82729" lon="2.46419">
        <ele>62.079</ele>
        <time>2016-12-04T13:09:00.888Z</time>
      </trkpt>
      <trkpt lat="48.8272" lon="2.46414">
        <ele>62.23</ele>
        <time>2016-12-04T13:09:07.696Z</time>
      </trkpt>
      <trkpt lat="48.8271" lon="2.46415">
        <ele>62.287</ele>
        <time>2016-12-04T13:09:13.999Z</time>
      </trkpt>
      <trkpt lat="48.8271" lon="2.46415">
        <ele>62.081</ele>
        <time>2016-12-04T13:09:24.999Z</time>
      </trkpt>
      <trkpt lat="48.8271" lon="2.46415">
        <ele>61.847</ele>
        <time>2016-12-04T13:09:53.947Z</time>
      </trkpt>
      <trkpt lat="48.82697" lon="2.46428">
        <ele>61.819</ele>
        <time>2016-12-04T13:10:13.383Z</time>
      </trkpt>
      <trkpt lat="48.82692" lon="2.4644">
        <ele>61.755</ele>
        <time>2016-12-04T13:10:20.533Z</time>
      </trkpt>
      <trkpt lat="48.82689" lon="2.46454">
        <ele>61.353</ele>
        <time>2016-12-04T13:10:27.925Z</time>
      </trkpt>
      <trkpt lat="48.82679" lon="2.46456">
        <ele>60.698</ele>
        <time>2016-12-04T13:10:34.594Z</time>
      </trkpt>
      <trkpt lat="48.8267" lon="2.46456">
        <ele>60.042</ele>
        <time>2016-12-04T13:10:40.546Z</time>
      </trkpt>
      <trkpt lat="48.8266" lon="2.46459">
        <ele>59.53</ele>
        <time>2016-12-04T13:10:47.253Z</time>
      </trkpt>
      <trkpt lat="48.82649" lon="2.46461">
        <ele>59.234</ele>
        <time>2016-12-04T13:10:54.159Z</time>
      </trkpt>
      <trkpt lat="48.8264" lon="2.46463">
        <ele>59.149</ele>
        <time>2016-12-04T13:11:01.027Z</time>
      </trkpt>
      <trkpt lat="48.8263" lon="2.46465">
        <ele>59.196</ele>
        <time>2016-12-04T13:11:07.816Z</time>
      </trkpt>
      <trkpt lat="48.8262" lon="2.46468">
        <ele>59.254</ele>
        <time>2016-12-04T13:11:14.680Z</time>
      </trkpt>
      <trkpt lat="48.82609" lon="2.46468">
        <ele>59.204</ele>
        <time>2016-12-04T13:11:21.646Z</time>
      </trkpt>
      <trkpt lat="48.82599" lon="2.4647">
        <ele>58.792</ele>
        <time>2016-12-04T13:11:28.538Z</time>
      </trkpt>
      <trkpt lat="48.8259" lon="2.46471">
        <ele>57.939</ele>
        <time>2016-12-04T13:11:35.329Z</time>
      </trkpt>
      <trkpt lat="48.82581" lon="2.46473">
        <ele>56.959</ele>
        <time>2016-12-04T13:11:42.094Z</time>
      </trkpt>
      <trkpt lat="48.82571" lon="2.46475">
        <ele>56.017</ele>
        <time>2016-12-04T13:11:49.026Z</time>
      </trkpt>
      <trkpt lat="48.82561" lon="2.46478">
        <ele>55.139</ele>
        <time>2016-12-04T13:11:55.989Z</time>
      </trkpt>
      <trkpt lat="48.82551" lon="2.4648">
        <ele>54.572</ele>
        <time>2016-12-04T13:12:03.251Z</time>
      </trkpt>
      <trkpt lat="48.82542" lon="2.46483">
        <ele>54.428</ele>
        <time>2016-12-04T13:12:10.087Z</time>
      </trkpt>
      <trkpt lat="48.82532" lon="2.46486">
        <ele>54.586</ele>
        <time>2016-12-04T13:12:17.615Z</time>
      </trkpt>
      <trkpt lat="48.82523" lon="2.46487">
        <ele>54.94</ele>
        <time>2016-12-04T13:12:24.494Z</time>
      </trkpt>
      <trkpt lat="48.82513" lon="2.4649">
        <ele>55.416</ele>
        <time>2016-12-04T13:12:31.688Z</time>
      </trkpt>
      <trkpt lat="48.82504" lon="2.46493">
        <ele>55.864</ele>
        <time>2016-12-04T13:12:39.044Z</time>
      </trkpt>
      <trkpt lat="48.82494" lon="2.46495">
        <ele>56.112</ele>
        <time>2016-12-04T13:12:45.989Z</time>
      </trkpt>
      <trkpt lat="48.82485" lon="2.46498">
        <ele>56.118</ele>
        <time>2016-12-04T13:12:52.141Z</time>
      </trkpt>
      <trkpt lat="48.82476" lon="2.465">
        <ele>55.953</ele>
        <time>2016-12-04T13:12:58.792Z</time>
      </trkpt>
      <trkpt lat="48.82466" lon="2.46503">
        <ele>55.699</ele>
        <time>2016-12-04T13:13:05.605Z</time>
      </trkpt>
      <trkpt lat="48.82456" lon="2.46503">
        <ele>55.405</ele>
        <time>2016-12-04T13:13:13.277Z</time>
      </trkpt>
      <trkpt lat="48.82446" lon="2.46506">
        <ele>55.07</ele>
        <time>2016-12-04T13:13:21.198Z</time>
      </trkpt>
      <trkpt lat="48.82437" lon="2.46507">
        <ele>54.716</ele>
        <time>2016-12-04T13:13:29.060Z</time>
      </trkpt>
      <trkpt lat="48.82427" lon="2.46507">
        <ele>54.43</ele>
        <time>2016-12-04T13:13:36.924Z</time>
      </trkpt>
      <trkpt lat="48.82417" lon="2.46508">
        <ele>54.319</ele>
        <time>2016-12-04T13:13:45.916Z</time>
      </trkpt>
      <trkpt lat="48.82409" lon="2.46514">
        <ele>54.383</ele>
        <time>2016-12-04T13:13:53.404Z</time>
      </trkpt>
      <trkpt lat="48.824" lon="2.4652">
        <ele>54.41</ele>
        <time>2016-12-04T13:14:00.143Z</time>
      </trkpt>
      <trkpt lat="48.82391" lon="2.46524">
        <ele>54.11</ele>
        <time>2016-12-04T13:14:06.476Z</time>
      </trkpt>
      <trkpt lat="48.82382" lon="2.46522">
        <ele>53.493</ele>
        <time>2016-12-04T13:14:12.860Z</time>
      </trkpt>
      <trkpt lat="48.82372" lon="2.46524">
        <ele>52.892</ele>
        <time>2016-12-04T13:14:19.702Z</time>
      </trkpt>
      <trkpt lat="48.82363" lon="2.46526">
        <ele>52.544</ele>
        <time>2016-12-04T13:14:26.243Z</time>
      </trkpt>
      <trkpt lat="48.82353" lon="2.46529">
        <ele>52.49</ele>
        <time>2016-12-04T13:14:33.076Z</time>
      </trkpt>
      <trkpt lat="48.82344" lon="2.46532">
        <ele>52.69</ele>
        <time>2016-12-04T13:14:40.054Z</time>
      </trkpt>
      <trkpt lat="48.82335" lon="2.46534">
        <ele>52.976</ele>
        <time>2016-12-04T13:14:47.473Z</time>
      </trkpt>
      <trkpt lat="48.82325" lon="2.46527">
        <ele>53.126</ele>
        <time>2016-12-04T13:14:56.351Z</time>
      </trkpt>
      <trkpt lat="48.82316" lon="2.46527">
        <ele>53.063</ele>
        <time>2016-12-04T13:15:04.245Z</time>
      </trkpt>
      <trkpt lat="48.82306" lon="2.46527">
        <ele>52.873</ele>
        <time>2016-12-04T13:15:10.907Z</time>
      </trkpt>
      <trkpt lat="48.82297" lon="2.46528">
        <ele>52.67</ele>
        <time>2016-12-04T13:15:17.478Z</time>
      </trkpt>
      <trkpt lat="48.82288" lon="2.46526">
        <ele>52.458</ele>
        <time>2016-12-04T13:15:24.739Z</time>
      </trkpt>
      <trkpt lat="48.82278" lon="2.4652">
        <ele>52.186</ele>
        <time>2016-12-04T13:15:32.808Z</time>
      </trkpt>
      <trkpt lat="48.8227" lon="2.46514">
        <ele>51.836</ele>
        <time>2016-12-04T13:15:40.602Z</time>
      </trkpt>
      <trkpt lat="48.82261" lon="2.46508">
        <ele>51.378</ele>
        <time>2016-12-04T13:15:48.277Z</time>
      </trkpt>
      <trkpt lat="48.82252" lon="2.46502">
        <ele>50.859</ele>
        <time>2016-12-04T13:15:56.402Z</time>
      </trkpt>
      <trkpt lat="48.82244" lon="2.46496">
        <ele>50.483</ele>
        <time>2016-12-04T13:16:03.606Z</time>
      </trkpt>
      <trkpt lat="48.82235" lon="2.4649">
        <ele>50.311</ele>
        <time>2016-12-04T13:16:11.062Z</time>
      </trkpt>
      <trkpt lat="48.82226" lon="2.46483">
        <ele>50.2</ele>
        <time>2016-12-04T13:16:18.920Z</time>
      </trkpt>
      <trkpt lat="48.82217" lon="2.46479">
        <ele>50.045</ele>
        <time>2016-12-04T13:16:27.055Z</time>
      </trkpt>
      <trkpt lat="48.82208" lon="2.46472">
        <ele>49.862</ele>
        <time>2016-12-04T13:16:34.755Z</time>
      </trkpt>
      <trkpt lat="48.82199" lon="2.46464">
        <ele>49.719</ele>
        <time>2016-12-04T13:16:43.002Z</time>
      </trkpt>
      <trkpt lat="48.82193" lon="2.46454">
        <ele>49.752</ele>
        <time>2016-12-04T13:16:50.664Z</time>
      </trkpt>
      <trkpt lat="48.82185" lon="2.46446">
        <ele>50.113</ele>
        <time>2016-12-04T13:16:57.817Z</time>
      </trkpt>
      <trkpt lat="48.82176" lon="2.46443">
        <ele>50.737</ele>
        <time>2016-12-04T13:17:04.732Z</time>
      </trkpt>
      <trkpt lat="48.82167" lon="2.46439">
        <ele>51.321</ele>
        <time>2016-12-04T13:17:11.721Z</time>
      </trkpt>
      <trkpt lat="48.82158" lon="2.46437">
        <ele>51.718</ele>
        <time>2016-12-04T13:17:18.641Z</time>
      </trkpt>
      <trkpt lat="48.82149" lon="2.46434">
        <ele>52.024</ele>
        <time>2016-12-04T13:17:25.309Z</time>
      </trkpt>
      <trkpt lat="48.8214" lon="2.46428">
        <ele>52.278</ele>
        <time>2016-12-04T13:17:32.477Z</time>
      </trkpt>
      <trkpt lat="48.8213" lon="2.46424">
        <ele>52.27</ele>
        <time>2016-12-04T13:17:41.629Z</time>
      </trkpt>
      <trkpt lat="48.82121" lon="2.46422">
        <ele>51.919</ele>
        <time>2016-12-04T13:17:49.543Z</time>
      </trkpt>
      <trkpt lat="48.82112" lon="2.4642">
        <ele>51.628</ele>
        <time>2016-12-04T13:17:55.795Z</time>
      </trkpt>
      <trkpt lat="48.82102" lon="2.46418">
        <ele>51.728</ele>
        <time>2016-12-04T13:18:02.000Z</time>
      </trkpt>
      <trkpt lat="48.82102" lon="2.46418">
        <ele>51.977</ele>
        <time>2016-12-04T13:18:11.000Z</time>
      </trkpt>
      <trkpt lat="48.82102" lon="2.46418">
        <ele>52.077</ele>
        <time>2016-12-04T13:18:55.386Z</time>
      </trkpt>
      <trkpt lat="48.82094" lon="2.46433">
        <ele>52.033</ele>
        <time>2016-12-04T13:19:09.905Z</time>
      </trkpt>
      <trkpt lat="48.82091" lon="2.46446">
        <ele>52.064</ele>
        <time>2016-12-04T13:19:17.968Z</time>
      </trkpt>
      <trkpt lat="48.82082" lon="2.46445">
        <ele>52.331</ele>
        <time>2016-12-04T13:19:26.681Z</time>
      </trkpt>
      <trkpt lat="48.82072" lon="2.46439">
        <ele>52.846</ele>
        <time>2016-12-04T13:19:34.866Z</time>
      </trkpt>
      <trkpt lat="48.82062" lon="2.46437">
        <ele>53.522</ele>
        <time>2016-12-04T13:19:41.924Z</time>
      </trkpt>
      <trkpt lat="48.82053" lon="2.46433">
        <ele>54.126</ele>
        <time>2016-12-04T13:19:48.783Z</time>
      </trkpt>
      <trkpt lat="48.82044" lon="2.46431">
        <ele>54.297</ele>
        <time>2016-12-04T13:19:55.103Z</time>
      </trkpt>
      <trkpt lat="48.82034" lon="2.46428">
        <ele>53.897</ele>
        <time>2016-12-04T13:20:02.147Z</time>
      </trkpt>
      <trkpt lat="48.82025" lon="2.46434">
        <ele>53.229</ele>
        <time>2016-12-04T13:20:09.724Z</time>
      </trkpt>
      <trkpt lat="48.82017" lon="2.46441">
        <ele>52.804</ele>
        <time>2016-12-04T13:20:16.955Z</time>
      </trkpt>
      <trkpt lat="48.8201" lon="2.4645">
        <ele>52.789</ele>
        <time>2016-12-04T13:20:23.878Z</time>
      </trkpt>
      <trkpt lat="48.82002" lon="2.46457">
        <ele>52.951</ele>
        <time>2016-12-04T13:20:31.356Z</time>
      </trkpt>
      <trkpt lat="48.82" lon="2.46471">
        <ele>53.062</ele>
        <time>2016-12-04T13:20:39.259Z</time>
      </trkpt>
      <trkpt lat="48.82003" lon="2.46483">
        <ele>53.104</ele>
        <time>2016-12-04T13:20:46.650Z</time>
      </trkpt>
      <trkpt lat="48.82006" lon="2.46497">
        <ele>53.13</ele>
        <time>2016-12-04T13:20:53.538Z</time>
      </trkpt>
      <trkpt lat="48.82009" lon="2.46511">
        <ele>53.189</ele>
        <time>2016-12-04T13:21:00.576Z</time>
      </trkpt>
      <trkpt lat="48.82011" lon="2.46526">
        <ele>53.235</ele>
        <time>2016-12-04T13:21:07.518Z</time>
      </trkpt>
      <trkpt lat="48.82012" lon="2.46541">
        <ele>53.174</ele>
        <time>2016-12-04T13:21:14.299Z</time>
      </trkpt>
      <trkpt lat="48.82015" lon="2.46556">
        <ele>53.052</ele>
        <time>2016-12-04T13:21:21.340Z</time>
      </trkpt>
      <trkpt lat="48.82016" lon="2.46569">
        <ele>53.1</ele>
        <time>2016-12-04T13:21:27.924Z</time>
      </trkpt>
      <trkpt lat="48.82017" lon="2.46585">
        <ele>53.398</ele>
        <time>2016-12-04T13:21:35.466Z</time>
      </trkpt>
      <trkpt lat="48.82018" lon="2.466">
        <ele>53.631</ele>
        <time>2016-12-04T13:21:42.731Z</time>
      </trkpt>
      <trkpt lat="48.82021" lon="2.46614">
        <ele>53.465</ele>
        <time>2016-12-04T13:21:49.923Z</time>
      </trkpt>
      <trkpt lat="48.82021" lon="2.46628">
        <ele>53.038</ele>
        <time>2016-12-04T13:21:57.194Z</time>
      </trkpt>
      <trkpt lat="48.82021" lon="2.46642">
        <ele>52.718</ele>
        <time>2016-12-04T13:22:04.875Z</time>
      </trkpt>
      <trkpt lat="48.82021" lon="2.46657">
        <ele>52.647</ele>
        <time>2016-12-04T13:22:12.262Z</time>
      </trkpt>
      <trkpt lat="48.82022" lon="2.46671">
        <ele>52.619</ele>
        <time>2016-12-04T13:22:18.788Z</time>
      </trkpt>
      <trkpt lat="48.82025" lon="2.46684">
        <ele>52.282</ele>
        <time>2016-12-04T13:22:25.886Z</time>
      </trkpt>
      <trkpt lat="48.82026" lon="2.46699">
        <ele>51.611</ele>
        <time>2016-12-04T13:22:33.257Z</time>
      </trkpt>
      <trkpt lat="48.82029" lon="2.46712">
        <ele>50.811</ele>
        <time>2016-12-04T13:22:41.203Z</time>
      </trkpt>
      <trkpt lat="48.82029" lon="2.46727">
        <ele>49.876</ele>
        <time>2016-12-04T13:22:50.000Z</time>
      </trkpt>
      <trkpt lat="48.82029" lon="2.46727">
        <ele>48.917</ele>
        <time>2016-12-04T13:22:55.000Z</time>
      </trkpt>
      <trkpt lat="48.82029" lon="2.46727">
        <ele>48.382</ele>
        <time>2016-12-04T13:23:25.921Z</time>
      </trkpt>
      <trkpt lat="48.82026" lon="2.46741">
        <ele>48.404</ele>
        <time>2016-12-04T13:23:36.000Z</time>
      </trkpt>
      <trkpt lat="48.82026" lon="2.46741">
        <ele>48.582</ele>
        <time>2016-12-04T13:23:48.000Z</time>
      </trkpt>
      <trkpt lat="48.82026" lon="2.46741">
        <ele>48.579</ele>
        <time>2016-12-04T13:24:36.239Z</time>
      </trkpt>
      <trkpt lat="48.82024" lon="2.46772">
        <ele>48.455</ele>
        <time>2016-12-04T13:24:57.621Z</time>
      </trkpt>
      <trkpt lat="48.82024" lon="2.46786">
        <ele>47.75</ele>
        <time>2016-12-04T13:25:03.730Z</time>
      </trkpt>
      <trkpt lat="48.82024" lon="2.46801">
        <ele>46.12</ele>
        <time>2016-12-04T13:25:10.242Z</time>
      </trkpt>
      <trkpt lat="48.82024" lon="2.46816">
        <ele>44.514</ele>
        <time>2016-12-04T13:25:16.000Z</time>
      </trkpt>
      <trkpt lat="48.82024" lon="2.46816">
        <ele>43.845</ele>
        <time>2016-12-04T13:25:28.000Z</time>
      </trkpt>
      <trkpt lat="48.82024" lon="2.46816">
        <ele>43.863</ele>
        <time>2016-12-04T13:26:06.925Z</time>
      </trkpt>
      <trkpt lat="48.82025" lon="2.46801">
        <ele>44.01</ele>
        <time>2016-12-04T13:26:21.212Z</time>
      </trkpt>
      <trkpt lat="48.82025" lon="2.46787">
        <ele>44.062</ele>
        <time>2016-12-04T13:26:28.649Z</time>
      </trkpt>
      <trkpt lat="48.82025" lon="2.46772">
        <ele>44.483</ele>
        <time>2016-12-04T13:26:35.716Z</time>
      </trkpt>
      <trkpt lat="48.82026" lon="2.46758">
        <ele>45.071</ele>
        <time>2016-12-04T13:26:42.000Z</time>
      </trkpt>
      <trkpt lat="48.82026" lon="2.46758">
        <ele>45.457</ele>
        <time>2016-12-04T13:26:44.000Z</time>
      </trkpt>
      <trkpt lat="48.82026" lon="2.46758">
        <ele>45.569</ele>
        <time>2016-12-04T13:27:18.824Z</time>
      </trkpt>
      <trkpt lat="48.82024" lon="2.46772">
        <ele>45.448</ele>
        <time>2016-12-04T13:27:52.896Z</time>
      </trkpt>
      <trkpt lat="48.82022" lon="2.46786">
        <ele>46.411</ele>
        <time>2016-12-04T13:28:02.090Z</time>
      </trkpt>
      <trkpt lat="48.82023" lon="2.46801">
        <ele>49.086</ele>
        <time>2016-12-04T13:28:10.979Z</time>
      </trkpt>
      <trkpt lat="48.82024" lon="2.46815">
        <ele>51.961</ele>
        <time>2016-12-04T13:28:18.881Z</time>
      </trkpt>
      <trkpt lat="48.82024" lon="2.4683">
        <ele>53.446</ele>
        <time>2016-12-04T13:28:25.980Z</time>
      </trkpt>
      <trkpt lat="48.82025" lon="2.46845">
        <ele>53.546</ele>
        <time>2016-12-04T13:28:32.092Z</time>
      </trkpt>
      <trkpt lat="48.82027" lon="2.4686">
        <ele>52.477</ele>
        <time>2016-12-04T13:28:38.185Z</time>
      </trkpt>
      <trkpt lat="48.82027" lon="2.46876">
        <ele>50.069</ele>
        <time>2016-12-04T13:28:45.003Z</time>
      </trkpt>
      <trkpt lat="48.82027" lon="2.46891">
        <ele>46.804</ele>
        <time>2016-12-04T13:28:51.947Z</time>
      </trkpt>
      <trkpt lat="48.82027" lon="2.46906">
        <ele>44.253</ele>
        <time>2016-12-04T13:28:58.983Z</time>
      </trkpt>
      <trkpt lat="48.82028" lon="2.4692">
        <ele>43.26</ele>
        <time>2016-12-04T13:29:05.984Z</time>
      </trkpt>
      <trkpt lat="48.82028" lon="2.46934">
        <ele>43.187</ele>
        <time>2016-12-04T13:29:12.829Z</time>
      </trkpt>
      <trkpt lat="48.82026" lon="2.46948">
        <ele>43.288</ele>
        <time>2016-12-04T13:29:19.721Z</time>
      </trkpt>
      <trkpt lat="48.82026" lon="2.46963">
        <ele>43.272</ele>
        <time>2016-12-04T13:29:29.286Z</time>
      </trkpt>
      <trkpt lat="48.82033" lon="2.46971">
        <ele>43.277</ele>
        <time>2016-12-04T13:29:40.003Z</time>
      </trkpt>
      <trkpt lat="48.82042" lon="2.46973">
        <ele>43.491</ele>
        <time>2016-12-04T13:29:54.000Z</time>
      </trkpt>
      <trkpt lat="48.82042" lon="2.46973">
        <ele>43.772</ele>
        <time>2016-12-04T13:29:59.000Z</time>
      </trkpt>
      <trkpt lat="48.82042" lon="2.46973">
        <ele>43.885</ele>
        <time>2016-12-04T13:30:01.631Z</time>
      </trkpt>
      <trkpt lat="48.82052" lon="2.46973">
        <ele>43.763</ele>
        <time>2016-12-04T13:30:09.000Z</time>
      </trkpt>
      <trkpt lat="48.82052" lon="2.46973">
        <ele>43.72</ele>
        <time>2016-12-04T13:30:14.000Z</time>
      </trkpt>
      <trkpt lat="48.82052" lon="2.46973">
        <ele>43.707</ele>
        <time>2016-12-04T13:30:20.489Z</time>
      </trkpt>
      <trkpt lat="48.82062" lon="2.46973">
        <ele>43.689</ele>
        <time>2016-12-04T13:30:36.062Z</time>
      </trkpt>
      <trkpt lat="48.82072" lon="2.46974">
        <ele>43.595</ele>
        <time>2016-12-04T13:30:44.922Z</time>
      </trkpt>
      <trkpt lat="48.82082" lon="2.46974">
        <ele>43.268</ele>
        <time>2016-12-04T13:30:52.166Z</time>
      </trkpt>
      <trkpt lat="48.82092" lon="2.46976">
        <ele>42.739</ele>
        <time>2016-12-04T13:31:00.031Z</time>
      </trkpt>
      <trkpt lat="48.82101" lon="2.46978">
        <ele>42.283</ele>
        <time>2016-12-04T13:31:07.735Z</time>
      </trkpt>
      <trkpt lat="48.8211" lon="2.46983">
        <ele>42.066</ele>
        <time>2016-12-04T13:31:16.276Z</time>
      </trkpt>
      <trkpt lat="48.82119" lon="2.46986">
        <ele>42.027</ele>
        <time>2016-12-04T13:31:25.258Z</time>
      </trkpt>
      <trkpt lat="48.82128" lon="2.46987">
        <ele>42.058</ele>
        <time>2016-12-04T13:31:33.115Z</time>
      </trkpt>
      <trkpt lat="48.82137" lon="2.46994">
        <ele>41.968</ele>
        <time>2016-12-04T13:31:41.123Z</time>
      </trkpt>
      <trkpt lat="48.82147" lon="2.46996">
        <ele>41.66</ele>
        <time>2016-12-04T13:31:48.967Z</time>
      </trkpt>
      <trkpt lat="48.82157" lon="2.46997">
        <ele>41.333</ele>
        <time>2016-12-04T13:31:57.024Z</time>
      </trkpt>
      <trkpt lat="48.82166" lon="2.46995">
        <ele>41.164</ele>
        <time>2016-12-04T13:32:04.272Z</time>
      </trkpt>
      <trkpt lat="48.82175" lon="2.46992">
        <ele>41.127</ele>
        <time>2016-12-04T13:32:11.454Z</time>
      </trkpt>
      <trkpt lat="48.82184" lon="2.4699">
        <ele>41.148</ele>
        <time>2016-12-04T13:32:18.476Z</time>
      </trkpt>
      <trkpt lat="48.82193" lon="2.46987">
        <ele>41.124</ele>
        <time>2016-12-04T13:32:25.852Z</time>
      </trkpt>
      <trkpt lat="48.82203" lon="2.46983">
        <ele>41.018</ele>
        <time>2016-12-04T13:32:33.272Z</time>
      </trkpt>
      <trkpt lat="48.82212" lon="2.46978">
        <ele>40.859</ele>
        <time>2016-12-04T13:32:41.005Z</time>
      </trkpt>
      <trkpt lat="48.82221" lon="2.46976">
        <ele>40.655</ele>
        <time>2016-12-04T13:32:47.829Z</time>
      </trkpt>
      <trkpt lat="48.82231" lon="2.46973">
        <ele>40.445</ele>
        <time>2016-12-04T13:32:55.134Z</time>
      </trkpt>
      <trkpt lat="48.8224" lon="2.46969">
        <ele>40.279</ele>
        <time>2016-12-04T13:33:02.628Z</time>
      </trkpt>
      <trkpt lat="48.8225" lon="2.46968">
        <ele>39.918</ele>
        <time>2016-12-04T13:33:10.000Z</time>
      </trkpt>
      <trkpt lat="48.8225" lon="2.46968">
        <ele>39.212</ele>
        <time>2016-12-04T13:33:16.000Z</time>
      </trkpt>
      <trkpt lat="48.8225" lon="2.46968">
        <ele>38.651</ele>
        <time>2016-12-04T13:33:16.100Z</time>
      </trkpt>
      <trkpt lat="48.82261" lon="2.46968">
        <ele>38.648</ele>
        <time>2016-12-04T13:33:34.688Z</time>
      </trkpt>
      <trkpt lat="48.82262" lon="2.46983">
        <ele>38.813</ele>
        <time>2016-12-04T13:33:45.832Z</time>
      </trkpt>
      <trkpt lat="48.82264" lon="2.46997">
        <ele>38.723</ele>
        <time>2016-12-04T13:33:56.855Z</time>
      </trkpt>
      <trkpt lat="48.82265" lon="2.47011">
        <ele>38.479</ele>
        <time>2016-12-04T13:34:06.058Z</time>
      </trkpt>
      <trkpt lat="48.82267" lon="2.47025">
        <ele>38.193</ele>
        <time>2016-12-04T13:34:14.218Z</time>
      </trkpt>
      <trkpt lat="48.82268" lon="2.47039">
        <ele>37.823</ele>
        <time>2016-12-04T13:34:22.554Z</time>
      </trkpt>
      <trkpt lat="48.82272" lon="2.47052">
        <ele>37.487</ele>
        <time>2016-12-04T13:34:31.333Z</time>
      </trkpt>
      <trkpt lat="48.82279" lon="2.47061">
        <ele>37.381</ele>
        <time>2016-12-04T13:34:40.182Z</time>
      </trkpt>
      <trkpt lat="48.82287" lon="2.4707">
        <ele>37.501</ele>
        <time>2016-12-04T13:34:49.463Z</time>
      </trkpt>
      <trkpt lat="48.82295" lon="2.47077">
        <ele>37.597</ele>
        <time>2016-12-04T13:34:58.675Z</time>
      </trkpt>
      <trkpt lat="48.82304" lon="2.47082">
        <ele>37.484</ele>
        <time>2016-12-04T13:35:07.123Z</time>
      </trkpt>
      <trkpt lat="48.82312" lon="2.47089">
        <ele>37.316</ele>
        <time>2016-12-04T13:35:15.974Z</time>
      </trkpt>
      <trkpt lat="48.82321" lon="2.47095">
        <ele>37.266</ele>
        <time>2016-12-04T13:35:24.785Z</time>
      </trkpt>
      <trkpt lat="48.8233" lon="2.47095">
        <ele>37.301</ele>
        <time>2016-12-04T13:35:32.892Z</time>
      </trkpt>
      <trkpt lat="48.8234" lon="2.47095">
        <ele>37.414</ele>
        <time>2016-12-04T13:35:40.462Z</time>
      </trkpt>
      <trkpt lat="48.8235" lon="2.47097">
        <ele>37.626</ele>
        <time>2016-12-04T13:35:48.644Z</time>
      </trkpt>
      <trkpt lat="48.8236" lon="2.47096">
        <ele>37.815</ele>
        <time>2016-12-04T13:35:57.467Z</time>
      </trkpt>
      <trkpt lat="48.82369" lon="2.47094">
        <ele>37.867</ele>
        <time>2016-12-04T13:36:05.689Z</time>
      </trkpt>
      <trkpt lat="48.82379" lon="2.47093">
        <ele>37.808</ele>
        <time>2016-12-04T13:36:14.935Z</time>
      </trkpt>
      <trkpt lat="48.82388" lon="2.47089">
        <ele>37.673</ele>
        <time>2016-12-04T13:36:22.761Z</time>
      </trkpt>
      <trkpt lat="48.82397" lon="2.47086">
        <ele>37.44</ele>
        <time>2016-12-04T13:36:29.931Z</time>
      </trkpt>
      <trkpt lat="48.82407" lon="2.47084">
        <ele>37.136</ele>
        <time>2016-12-04T13:36:37.777Z</time>
      </trkpt>
      <trkpt lat="48.82416" lon="2.47082">
        <ele>36.869</ele>
        <time>2016-12-04T13:36:45.772Z</time>
      </trkpt>
      <trkpt lat="48.82425" lon="2.47079">
        <ele>36.68</ele>
        <time>2016-12-04T13:36:53.522Z</time>
      </trkpt>
      <trkpt lat="48.82435" lon="2.47077">
        <ele>36.526</ele>
        <time>2016-12-04T13:37:01.644Z</time>
      </trkpt>
      <trkpt lat="48.82444" lon="2.47075">
        <ele>36.33</ele>
        <time>2016-12-04T13:37:09.266Z</time>
      </trkpt>
      <trkpt lat="48.82454" lon="2.47074">
        <ele>36.073</ele>
        <time>2016-12-04T13:37:16.852Z</time>
      </trkpt>
      <trkpt lat="48.82463" lon="2.47075">
        <ele>35.861</ele>
        <time>2016-12-04T13:37:24.202Z</time>
      </trkpt>
      <trkpt lat="48.82473" lon="2.47077">
        <ele>35.738</ele>
        <time>2016-12-04T13:37:32.224Z</time>
      </trkpt>
      <trkpt lat="48.82482" lon="2.47079">
        <ele>35.63</ele>
        <time>2016-12-04T13:37:40.120Z</time>
      </trkpt>
      <trkpt lat="48.82492" lon="2.47081">
        <ele>35.458</ele>
        <time>2016-12-04T13:37:47.881Z</time>
      </trkpt>
      <trkpt lat="48.82502" lon="2.4708">
        <ele>35.205</ele>
        <time>2016-12-04T13:37:56.046Z</time>
      </trkpt>
      <trkpt lat="48.82511" lon="2.47077">
        <ele>34.963</ele>
        <time>2016-12-04T13:38:03.452Z</time>
      </trkpt>
      <trkpt lat="48.82521" lon="2.47075">
        <ele>34.893</ele>
        <time>2016-12-04T13:38:11.642Z</time>
      </trkpt>
      <trkpt lat="48.8253" lon="2.47074">
        <ele>35.072</ele>
        <time>2016-12-04T13:38:19.079Z</time>
      </trkpt>
      <trkpt lat="48.8254" lon="2.47073">
        <ele>35.412</ele>
        <time>2016-12-04T13:38:26.559Z</time>
      </trkpt>
      <trkpt lat="48.82549" lon="2.47074">
        <ele>35.718</ele>
        <time>2016-12-04T13:38:34.742Z</time>
      </trkpt>
      <trkpt lat="48.82558" lon="2.47077">
        <ele>35.878</ele>
        <time>2016-12-04T13:38:42.944Z</time>
      </trkpt>
      <trkpt lat="48.82568" lon="2.47077">
        <ele>35.943</ele>
        <time>2016-12-04T13:38:51.237Z</time>
      </trkpt>
      <trkpt lat="48.82577" lon="2.47076">
        <ele>36.043</ele>
        <time>2016-12-04T13:39:00.089Z</time>
      </trkpt>
      <trkpt lat="48.82587" lon="2.47074">
        <ele>36.204</ele>
        <time>2016-12-04T13:39:08.467Z</time>
      </trkpt>
      <trkpt lat="48.82597" lon="2.47071">
        <ele>36.334</ele>
        <time>2016-12-04T13:39:15.380Z</time>
      </trkpt>
      <trkpt lat="48.82607" lon="2.47071">
        <ele>36.398</ele>
        <time>2016-12-04T13:39:22.285Z</time>
      </trkpt>
      <trkpt lat="48.82616" lon="2.47072">
        <ele>36.448</ele>
        <time>2016-12-04T13:39:29.599Z</time>
      </trkpt>
      <trkpt lat="48.82626" lon="2.47075">
        <ele>36.561</ele>
        <time>2016-12-04T13:39:36.808Z</time>
      </trkpt>
      <trkpt lat="48.82636" lon="2.47076">
        <ele>36.771</ele>
        <time>2016-12-04T13:39:43.744Z</time>
      </trkpt>
      <trkpt lat="48.82645" lon="2.47079">
        <ele>37.047</ele>
        <time>2016-12-04T13:39:51.656Z</time>
      </trkpt>
      <trkpt lat="48.82655" lon="2.47077">
        <ele>37.307</ele>
        <time>2016-12-04T13:40:00.409Z</time>
      </trkpt>
      <trkpt lat="48.82661" lon="2.47066">
        <ele>37.484</ele>
        <time>2016-12-04T13:40:08.817Z</time>
      </trkpt>
      <trkpt lat="48.82666" lon="2.47052">
        <ele>37.655</ele>
        <time>2016-12-04T13:40:17.450Z</time>
      </trkpt>
      <trkpt lat="48.82671" lon="2.47041">
        <ele>38.002</ele>
        <time>2016-12-04T13:40:25.560Z</time>
      </trkpt>
      <trkpt lat="48.82675" lon="2.47027">
        <ele>38.56</ele>
        <time>2016-12-04T13:40:35.103Z</time>
      </trkpt>
      <trkpt lat="48.82679" lon="2.47013">
        <ele>39.122</ele>
        <time>2016-12-04T13:40:44.710Z</time>
      </trkpt>
      <trkpt lat="48.82683" lon="2.47">
        <ele>39.457</ele>
        <time>2016-12-04T13:40:54.043Z</time>
      </trkpt>
      <trkpt lat="48.82686" lon="2.46985">
        <ele>39.493</ele>
        <time>2016-12-04T13:41:03.227Z</time>
      </trkpt>
      <trkpt lat="48.82688" lon="2.4697">
        <ele>39.33</ele>
        <time>2016-12-04T13:41:11.571Z</time>
      </trkpt>
      <trkpt lat="48.82694" lon="2.46958">
        <ele>39.143</ele>
        <time>2016-12-04T13:41:19.226Z</time>
      </trkpt>
      <trkpt lat="48.82704" lon="2.46957">
        <ele>39.134</ele>
        <time>2016-12-04T13:41:26.415Z</time>
      </trkpt>
      <trkpt lat="48.82713" lon="2.46964">
        <ele>39.391</ele>
        <time>2016-12-04T13:41:34.034Z</time>
      </trkpt>
      <trkpt lat="48.82722" lon="2.46972">
        <ele>39.761</ele>
        <time>2016-12-04T13:41:41.256Z</time>
      </trkpt>
      <trkpt lat="48.82729" lon="2.46982">
        <ele>39.966</ele>
        <time>2016-12-04T13:41:48.887Z</time>
      </trkpt>
      <trkpt lat="48.82736" lon="2.46991">
        <ele>39.904</ele>
        <time>2016-12-04T13:41:57.678Z</time>
      </trkpt>
      <trkpt lat="48.82744" lon="2.47001">
        <ele>39.319</ele>
        <time>2016-12-04T13:42:08.031Z</time>
      </trkpt>
      <trkpt lat="48.8275" lon="2.47013">
        <ele>37.964</ele>
        <time>2016-12-04T13:42:15.703Z</time>
      </trkpt>
      <trkpt lat="48.82757" lon="2.47023">
        <ele>36.338</ele>
        <time>2016-12-04T13:42:22.849Z</time>
      </trkpt>
      <trkpt lat="48.82763" lon="2.47033">
        <ele>35.245</ele>
        <time>2016-12-04T13:42:29.383Z</time>
      </trkpt>
      <trkpt lat="48.82771" lon="2.47041">
        <ele>34.796</ele>
        <time>2016-12-04T13:42:36.246Z</time>
      </trkpt>
      <trkpt lat="48.82778" lon="2.47051">
        <ele>34.571</ele>
        <time>2016-12-04T13:42:43.780Z</time>
      </trkpt>
      <trkpt lat="48.82786" lon="2.4706">
        <ele>34.261</ele>
        <time>2016-12-04T13:42:52.758Z</time>
      </trkpt>
      <trkpt lat="48.82793" lon="2.47068">
        <ele>33.931</ele>
        <time>2016-12-04T13:43:01.311Z</time>
      </trkpt>
      <trkpt lat="48.828" lon="2.47078">
        <ele>33.698</ele>
        <time>2016-12-04T13:43:09.853Z</time>
      </trkpt>
      <trkpt lat="48.82807" lon="2.47089">
        <ele>33.546</ele>
        <time>2016-12-04T13:43:18.691Z</time>
      </trkpt>
      <trkpt lat="48.82815" lon="2.47099">
        <ele>33.579</ele>
        <time>2016-12-04T13:43:27.125Z</time>
      </trkpt>
      <trkpt lat="48.82822" lon="2.47108">
        <ele>33.858</ele>
        <time>2016-12-04T13:43:34.469Z</time>
      </trkpt>
      <trkpt lat="48.82828" lon="2.47119">
        <ele>34.233</ele>
        <time>2016-12-04T13:43:41.837Z</time>
      </trkpt>
      <trkpt lat="48.82835" lon="2.4713">
        <ele>34.506</ele>
        <time>2016-12-04T13:43:49.234Z</time>
      </trkpt>
      <trkpt lat="48.82841" lon="2.47139">
        <ele>34.581</ele>
        <time>2016-12-04T13:43:56.780Z</time>
      </trkpt>
      <trkpt lat="48.82847" lon="2.4715">
        <ele>34.48</ele>
        <time>2016-12-04T13:44:04.675Z</time>
      </trkpt>
      <trkpt lat="48.82854" lon="2.47161">
        <ele>34.319</ele>
        <time>2016-12-04T13:44:12.967Z</time>
      </trkpt>
      <trkpt lat="48.82862" lon="2.47169">
        <ele>34.158</ele>
        <time>2016-12-04T13:44:20.165Z</time>
      </trkpt>
      <trkpt lat="48.82869" lon="2.47178">
        <ele>34.055</ele>
        <time>2016-12-04T13:44:26.636Z</time>
      </trkpt>
      <trkpt lat="48.82877" lon="2.47187">
        <ele>34.059</ele>
        <time>2016-12-04T13:44:33.381Z</time>
      </trkpt>
      <trkpt lat="48.82884" lon="2.47197">
        <ele>34.16</ele>
        <time>2016-12-04T13:44:40.438Z</time>
      </trkpt>
      <trkpt lat="48.8289" lon="2.47206">
        <ele>34.291</ele>
        <time>2016-12-04T13:44:47.610Z</time>
      </trkpt>
      <trkpt lat="48.82896" lon="2.47218">
        <ele>34.391</ele>
        <time>2016-12-04T13:44:55.415Z</time>
      </trkpt>
      <trkpt lat="48.82902" lon="2.47229">
        <ele>34.43</ele>
        <time>2016-12-04T13:45:02.316Z</time>
      </trkpt>
      <trkpt lat="48.8291" lon="2.47239">
        <ele>34.519</ele>
        <time>2016-12-04T13:45:09.752Z</time>
      </trkpt>
      <trkpt lat="48.82917" lon="2.47249">
        <ele>34.859</ele>
        <time>2016-12-04T13:45:16.957Z</time>
      </trkpt>
      <trkpt lat="48.82924" lon="2.47261">
        <ele>35.415</ele>
        <time>2016-12-04T13:45:24.162Z</time>
      </trkpt>
      <trkpt lat="48.82931" lon="2.4727">
        <ele>35.88</ele>
        <time>2016-12-04T13:45:31.384Z</time>
      </trkpt>
      <trkpt lat="48.82936" lon="2.47281">
        <ele>36.001</ele>
        <time>2016-12-04T13:45:39.320Z</time>
      </trkpt>
      <trkpt lat="48.82941" lon="2.47294">
        <ele>35.68</ele>
        <time>2016-12-04T13:45:47.540Z</time>
      </trkpt>
      <trkpt lat="48.82946" lon="2.47307">
        <ele>34.959</ele>
        <time>2016-12-04T13:45:55.524Z</time>
      </trkpt>
      <trkpt lat="48.82952" lon="2.4732">
        <ele>34.148</ele>
        <time>2016-12-04T13:46:03.264Z</time>
      </trkpt>
      <trkpt lat="48.82953" lon="2.47335">
        <ele>33.621</ele>
        <time>2016-12-04T13:46:10.720Z</time>
      </trkpt>
      <trkpt lat="48.82955" lon="2.47349">
        <ele>33.43</ele>
        <time>2016-12-04T13:46:18.000Z</time>
      </trkpt>
      <trkpt lat="48.82955" lon="2.47349">
        <ele>33.387</ele>
        <time>2016-12-04T13:46:22.000Z</time>
      </trkpt>
      <trkpt lat="48.82955" lon="2.47349">
        <ele>33.379</ele>
        <time>2016-12-04T13:51:47.702Z</time>
      </trkpt>
      <trkpt lat="48.82961" lon="2.47362">
        <ele>33.367</ele>
        <time>2016-12-04T13:52:06.056Z</time>
      </trkpt>
      <trkpt lat="48.82963" lon="2.47376">
        <ele>32.979</ele>
        <time>2016-12-04T13:52:15.126Z</time>
      </trkpt>
      <trkpt lat="48.82967" lon="2.4739">
        <ele>31.901</ele>
        <time>2016-12-04T13:52:24.237Z</time>
      </trkpt>
      <trkpt lat="48.8297" lon="2.47403">
        <ele>30.55</ele>
        <time>2016-12-04T13:52:33.611Z</time>
      </trkpt>
      <trkpt lat="48.82975" lon="2.47414">
        <ele>29.452</ele>
        <time>2016-12-04T13:52:42.235Z</time>
      </trkpt>
      <trkpt lat="48.82979" lon="2.47427">
        <ele>28.666</ele>
        <time>2016-12-04T13:52:50.084Z</time>
      </trkpt>
      <trkpt lat="48.82984" lon="2.4744">
        <ele>28.101</ele>
        <time>2016-12-04T13:52:58.185Z</time>
      </trkpt>
      <trkpt lat="48.82988" lon="2.47452">
        <ele>27.621</ele>
        <time>2016-12-04T13:53:06.211Z</time>
      </trkpt>
      <trkpt lat="48.83008" lon="2.47516">
        <ele>27.062</ele>
        <time>2016-12-04T13:53:46.329Z</time>
      </trkpt>
      <trkpt lat="48.8301" lon="2.47531">
        <ele>27.328</ele>
        <time>2016-12-04T13:53:53.667Z</time>
      </trkpt>
      <trkpt lat="48.83014" lon="2.47544">
        <ele>27.893</ele>
        <time>2016-12-04T13:54:01.366Z</time>
      </trkpt>
      <trkpt lat="48.83017" lon="2.47558">
        <ele>28.412</ele>
        <time>2016-12-04T13:54:09.438Z</time>
      </trkpt>
      <trkpt lat="48.8302" lon="2.47571">
        <ele>28.673</ele>
        <time>2016-12-04T13:54:17.504Z</time>
      </trkpt>
      <trkpt lat="48.83025" lon="2.47584">
        <ele>28.719</ele>
        <time>2016-12-04T13:54:26.419Z</time>
      </trkpt>
      <trkpt lat="48.83027" lon="2.47597">
        <ele>28.749</ele>
        <time>2016-12-04T13:54:33.899Z</time>
      </trkpt>
      <trkpt lat="48.83031" lon="2.47611">
        <ele>28.961</ele>
        <time>2016-12-04T13:54:41.573Z</time>
      </trkpt>
      <trkpt lat="48.83035" lon="2.47625">
        <ele>29.396</ele>
        <time>2016-12-04T13:54:49.509Z</time>
      </trkpt>
      <trkpt lat="48.83037" lon="2.47638">
        <ele>29.943</ele>
        <time>2016-12-04T13:54:56.534Z</time>
      </trkpt>
      <trkpt lat="48.8304" lon="2.47652">
        <ele>30.522</ele>
        <time>2016-12-04T13:55:03.525Z</time>
      </trkpt>
      <trkpt lat="48.83044" lon="2.47666">
        <ele>31.102</ele>
        <time>2016-12-04T13:55:10.722Z</time>
      </trkpt>
      <trkpt lat="48.83047" lon="2.47679">
        <ele>31.606</ele>
        <time>2016-12-04T13:55:17.595Z</time>
      </trkpt>
      <trkpt lat="48.83051" lon="2.47694">
        <ele>31.942</ele>
        <time>2016-12-04T13:55:24.970Z</time>
      </trkpt>
      <trkpt lat="48.83053" lon="2.47708">
        <ele>32.091</ele>
        <time>2016-12-04T13:55:32.040Z</time>
      </trkpt>
      <trkpt lat="48.83055" lon="2.47722">
        <ele>32.176</ele>
        <time>2016-12-04T13:55:39.000Z</time>
      </trkpt>
      <trkpt lat="48.83055" lon="2.47722">
        <ele>32.319</ele>
        <time>2016-12-04T13:55:47.000Z</time>
      </trkpt>
      <trkpt lat="48.83055" lon="2.47722">
        <ele>32.434</ele>
        <time>2016-12-04T13:55:47.100Z</time>
      </trkpt>
      <trkpt lat="48.83059" lon="2.47745">
        <ele>32.399</ele>
        <time>2016-12-04T13:56:07.239Z</time>
      </trkpt>
      <trkpt lat="48.83058" lon="2.47759">
        <ele>32.26</ele>
        <time>2016-12-04T13:56:16.185Z</time>
      </trkpt>
      <trkpt lat="48.8306" lon="2.47773">
        <ele>32.128</ele>
        <time>2016-12-04T13:56:23.576Z</time>
      </trkpt>
      <trkpt lat="48.83063" lon="2.47787">
        <ele>32.048</ele>
        <time>2016-12-04T13:56:30.494Z</time>
      </trkpt>
      <trkpt lat="48.83065" lon="2.478">
        <ele>31.99</ele>
        <time>2016-12-04T13:56:37.147Z</time>
      </trkpt>
      <trkpt lat="48.83067" lon="2.47815">
        <ele>31.922</ele>
        <time>2016-12-04T13:56:44.112Z</time>
      </trkpt>
      <trkpt lat="48.83068" lon="2.47829">
        <ele>31.845</ele>
        <time>2016-12-04T13:56:51.049Z</time>
      </trkpt>
      <trkpt lat="48.83071" lon="2.47842">
        <ele>31.766</ele>
        <time>2016-12-04T13:56:58.259Z</time>
      </trkpt>
      <trkpt lat="48.83074" lon="2.47857">
        <ele>31.682</ele>
        <time>2016-12-04T13:57:06.581Z</time>
      </trkpt>
      <trkpt lat="48.83075" lon="2.47872">
        <ele>31.629</ele>
        <time>2016-12-04T13:57:14.444Z</time>
      </trkpt>
      <trkpt lat="48.83075" lon="2.47886">
        <ele>31.659</ele>
        <time>2016-12-04T13:57:21.270Z</time>
      </trkpt>
      <trkpt lat="48.83076" lon="2.47901">
        <ele>31.819</ele>
        <time>2016-12-04T13:57:28.239Z</time>
      </trkpt>
      <trkpt lat="48.83077" lon="2.47916">
        <ele>32.1</ele>
        <time>2016-12-04T13:57:35.897Z</time>
      </trkpt>
      <trkpt lat="48.83077" lon="2.4793">
        <ele>32.418</ele>
        <time>2016-12-04T13:57:42.923Z</time>
      </trkpt>
      <trkpt lat="48.83078" lon="2.47944">
        <ele>32.736</ele>
        <time>2016-12-04T13:57:49.633Z</time>
      </trkpt>
      <trkpt lat="48.8308" lon="2.47958">
        <ele>33.055</ele>
        <time>2016-12-04T13:57:56.649Z</time>
      </trkpt>
      <trkpt lat="48.83082" lon="2.47973">
        <ele>33.247</ele>
        <time>2016-12-04T13:58:04.260Z</time>
      </trkpt>
      <trkpt lat="48.83084" lon="2.47986">
        <ele>33.223</ele>
        <time>2016-12-04T13:58:11.303Z</time>
      </trkpt>
      <trkpt lat="48.83084" lon="2.48001">
        <ele>33.078</ele>
        <time>2016-12-04T13:58:19.131Z</time>
      </trkpt>
      <trkpt lat="48.83087" lon="2.48016">
        <ele>32.985</ele>
        <time>2016-12-04T13:58:26.810Z</time>
      </trkpt>
      <trkpt lat="48.83088" lon="2.48029">
        <ele>33.028</ele>
        <time>2016-12-04T13:58:33.770Z</time>
      </trkpt>
      <trkpt lat="48.83088" lon="2.48044">
        <ele>33.156</ele>
        <time>2016-12-04T13:58:40.730Z</time>
      </trkpt>
      <trkpt lat="48.8309" lon="2.48058">
        <ele>33.328</ele>
        <time>2016-12-04T13:58:47.588Z</time>
      </trkpt>
      <trkpt lat="48.8309" lon="2.48073">
        <ele>33.52</ele>
        <time>2016-12-04T13:58:55.330Z</time>
      </trkpt>
      <trkpt lat="48.83091" lon="2.48087">
        <ele>33.649</ele>
        <time>2016-12-04T13:59:02.936Z</time>
      </trkpt>
      <trkpt lat="48.83092" lon="2.48102">
        <ele>33.673</ele>
        <time>2016-12-04T13:59:11.040Z</time>
      </trkpt>
      <trkpt lat="48.83094" lon="2.48117">
        <ele>33.648</ele>
        <time>2016-12-04T13:59:18.953Z</time>
      </trkpt>
      <trkpt lat="48.83095" lon="2.48131">
        <ele>33.662</ele>
        <time>2016-12-04T13:59:26.722Z</time>
      </trkpt>
      <trkpt lat="48.83096" lon="2.48145">
        <ele>33.77</ele>
        <time>2016-12-04T13:59:34.371Z</time>
      </trkpt>
      <trkpt lat="48.83097" lon="2.4816">
        <ele>34.004</ele>
        <time>2016-12-04T13:59:42.340Z</time>
      </trkpt>
      <trkpt lat="48.83099" lon="2.48173">
        <ele>34.339</ele>
        <time>2016-12-04T13:59:49.389Z</time>
      </trkpt>
      <trkpt lat="48.83101" lon="2.48187">
        <ele>34.687</ele>
        <time>2016-12-04T13:59:56.474Z</time>
      </trkpt>
      <trkpt lat="48.83101" lon="2.48201">
        <ele>34.941</ele>
        <time>2016-12-04T14:00:04.031Z</time>
      </trkpt>
      <trkpt lat="48.83101" lon="2.48217">
        <ele>35.059</ele>
        <time>2016-12-04T14:00:11.834Z</time>
      </trkpt>
      <trkpt lat="48.83101" lon="2.48232">
        <ele>35.002</ele>
        <time>2016-12-04T14:00:19.062Z</time>
      </trkpt>
      <trkpt lat="48.83102" lon="2.48245">
        <ele>34.792</ele>
        <time>2016-12-04T14:00:25.750Z</time>
      </trkpt>
      <trkpt lat="48.83104" lon="2.4826">
        <ele>34.494</ele>
        <time>2016-12-04T14:00:33.295Z</time>
      </trkpt>
      <trkpt lat="48.83106" lon="2.48274">
        <ele>33.986</ele>
        <time>2016-12-04T14:00:41.088Z</time>
      </trkpt>
      <trkpt lat="48.83107" lon="2.48289">
        <ele>33.263</ele>
        <time>2016-12-04T14:00:48.934Z</time>
      </trkpt>
      <trkpt lat="48.83111" lon="2.48303">
        <ele>32.702</ele>
        <time>2016-12-04T14:00:56.806Z</time>
      </trkpt>
      <trkpt lat="48.83113" lon="2.48318">
        <ele>32.537</ele>
        <time>2016-12-04T14:01:04.694Z</time>
      </trkpt>
      <trkpt lat="48.83114" lon="2.48332">
        <ele>32.636</ele>
        <time>2016-12-04T14:01:12.385Z</time>
      </trkpt>
      <trkpt lat="48.83114" lon="2.48346">
        <ele>32.847</ele>
        <time>2016-12-04T14:01:19.519Z</time>
      </trkpt>
      <trkpt lat="48.83114" lon="2.4836">
        <ele>33.069</ele>
        <time>2016-12-04T14:01:26.466Z</time>
      </trkpt>
      <trkpt lat="48.83115" lon="2.48375">
        <ele>33.213</ele>
        <time>2016-12-04T14:01:33.900Z</time>
      </trkpt>
      <trkpt lat="48.83116" lon="2.48389">
        <ele>33.256</ele>
        <time>2016-12-04T14:01:41.705Z</time>
      </trkpt>
      <trkpt lat="48.83115" lon="2.48405">
        <ele>33.245</ele>
        <time>2016-12-04T14:01:49.657Z</time>
      </trkpt>
      <trkpt lat="48.83114" lon="2.4842">
        <ele>33.18</ele>
        <time>2016-12-04T14:01:57.615Z</time>
      </trkpt>
      <trkpt lat="48.83113" lon="2.48434">
        <ele>33.051</ele>
        <time>2016-12-04T14:02:05.180Z</time>
      </trkpt>
      <trkpt lat="48.83114" lon="2.48449">
        <ele>32.952</ele>
        <time>2016-12-04T14:02:13.069Z</time>
      </trkpt>
      <trkpt lat="48.83116" lon="2.48464">
        <ele>32.974</ele>
        <time>2016-12-04T14:02:21.582Z</time>
      </trkpt>
      <trkpt lat="48.83115" lon="2.48478">
        <ele>33.1</ele>
        <time>2016-12-04T14:02:29.553Z</time>
      </trkpt>
      <trkpt lat="48.83113" lon="2.48492">
        <ele>33.269</ele>
        <time>2016-12-04T14:02:37.868Z</time>
      </trkpt>
      <trkpt lat="48.83111" lon="2.48507">
        <ele>33.524</ele>
        <time>2016-12-04T14:02:45.956Z</time>
      </trkpt>
      <trkpt lat="48.83109" lon="2.48522">
        <ele>34.027</ele>
        <time>2016-12-04T14:02:54.441Z</time>
      </trkpt>
      <trkpt lat="48.83109" lon="2.48536">
        <ele>34.697</ele>
        <time>2016-12-04T14:03:01.599Z</time>
      </trkpt>
      <trkpt lat="48.83107" lon="2.4855">
        <ele>35.194</ele>
        <time>2016-12-04T14:03:08.981Z</time>
      </trkpt>
      <trkpt lat="48.83102" lon="2.48564">
        <ele>35.38</ele>
        <time>2016-12-04T14:03:16.757Z</time>
      </trkpt>
      <trkpt lat="48.83104" lon="2.48578">
        <ele>35.446</ele>
        <time>2016-12-04T14:03:23.995Z</time>
      </trkpt>
      <trkpt lat="48.83104" lon="2.48578">
        <ele>35.568</ele>
        <time>2016-12-04T14:03:32.995Z</time>
      </trkpt>
      <trkpt lat="48.83104" lon="2.48578">
        <ele>35.676</ele>
        <time>2016-12-04T14:04:27.973Z</time>
      </trkpt>
      <trkpt lat="48.83089" lon="2.486">
        <ele>35.661</ele>
        <time>2016-12-04T14:04:48.000Z</time>
      </trkpt>
      <trkpt lat="48.83089" lon="2.486">
        <ele>35.598</ele>
        <time>2016-12-04T14:04:55.000Z</time>
      </trkpt>
      <trkpt lat="48.83089" lon="2.486">
        <ele>35.579</ele>
        <time>2016-12-04T14:04:55.100Z</time>
      </trkpt>
      <trkpt lat="48.83077" lon="2.4861">
        <ele>35.595</ele>
        <time>2016-12-04T14:05:13.551Z</time>
      </trkpt>
      <trkpt lat="48.83069" lon="2.48617">
        <ele>35.656</ele>
        <time>2016-12-04T14:05:21.301Z</time>
      </trkpt>
      <trkpt lat="48.83061" lon="2.48622">
        <ele>36.03</ele>
        <time>2016-12-04T14:05:29.126Z</time>
      </trkpt>
      <trkpt lat="48.83054" lon="2.48631">
        <ele>36.806</ele>
        <time>2016-12-04T14:05:37.491Z</time>
      </trkpt>
      <trkpt lat="48.83058" lon="2.48645">
        <ele>37.518</ele>
        <time>2016-12-04T14:05:46.380Z</time>
      </trkpt>
      <trkpt lat="48.83061" lon="2.48658">
        <ele>37.799</ele>
        <time>2016-12-04T14:05:54.565Z</time>
      </trkpt>
      <trkpt lat="48.83064" lon="2.48672">
        <ele>37.85</ele>
        <time>2016-12-04T14:06:03.695Z</time>
      </trkpt>
      <trkpt lat="48.83069" lon="2.4866">
        <ele>37.92</ele>
        <time>2016-12-04T14:06:12.807Z</time>
      </trkpt>
      <trkpt lat="48.83068" lon="2.48646">
        <ele>38.019</ele>
        <time>2016-12-04T14:06:21.692Z</time>
      </trkpt>
      <trkpt lat="48.83067" lon="2.48631">
        <ele>38.066</ele>
        <time>2016-12-04T14:06:30.847Z</time>
      </trkpt>
      <trkpt lat="48.83058" lon="2.4863">
        <ele>38.108</ele>
        <time>2016-12-04T14:06:40.014Z</time>
      </trkpt>
      <trkpt lat="48.83049" lon="2.48633">
        <ele>38.296</ele>
        <time>2016-12-04T14:06:49.228Z</time>
      </trkpt>
      <trkpt lat="48.8304" lon="2.48636">
        <ele>38.76</ele>
        <time>2016-12-04T14:06:57.009Z</time>
      </trkpt>
      <trkpt lat="48.83031" lon="2.48638">
        <ele>39.403</ele>
        <time>2016-12-04T14:07:04.301Z</time>
      </trkpt>
      <trkpt lat="48.83021" lon="2.4864">
        <ele>40.011</ele>
        <time>2016-12-04T14:07:12.084Z</time>
      </trkpt>
      <trkpt lat="48.83012" lon="2.48642">
        <ele>40.461</ele>
        <time>2016-12-04T14:07:19.667Z</time>
      </trkpt>
      <trkpt lat="48.83002" lon="2.48645">
        <ele>40.757</ele>
        <time>2016-12-04T14:07:27.818Z</time>
      </trkpt>
      <trkpt lat="48.82993" lon="2.48647">
        <ele>40.963</ele>
        <time>2016-12-04T14:07:35.511Z</time>
      </trkpt>
      <trkpt lat="48.82984" lon="2.48649">
        <ele>41.203</ele>
        <time>2016-12-04T14:07:42.580Z</time>
      </trkpt>
      <trkpt lat="48.82975" lon="2.48652">
        <ele>41.505</ele>
        <time>2016-12-04T14:07:49.503Z</time>
      </trkpt>
      <trkpt lat="48.82966" lon="2.48654">
        <ele>41.718</ele>
        <time>2016-12-04T14:07:56.422Z</time>
      </trkpt>
      <trkpt lat="48.82957" lon="2.48655">
        <ele>41.731</ele>
        <time>2016-12-04T14:08:03.944Z</time>
      </trkpt>
      <trkpt lat="48.82947" lon="2.48657">
        <ele>41.648</ele>
        <time>2016-12-04T14:08:11.851Z</time>
      </trkpt>
      <trkpt lat="48.82938" lon="2.4866">
        <ele>41.584</ele>
        <time>2016-12-04T14:08:19.656Z</time>
      </trkpt>
      <trkpt lat="48.82928" lon="2.48661">
        <ele>41.56</ele>
        <time>2016-12-04T14:08:28.622Z</time>
      </trkpt>
      <trkpt lat="48.8292" lon="2.48652">
        <ele>41.556</ele>
        <time>2016-12-04T14:08:43.033Z</time>
      </trkpt>
      <trkpt lat="48.82915" lon="2.4864">
        <ele>41.488</ele>
        <time>2016-12-04T14:08:55.440Z</time>
      </trkpt>
      <trkpt lat="48.82911" lon="2.48625">
        <ele>41.255</ele>
        <time>2016-12-04T14:09:04.006Z</time>
      </trkpt>
      <trkpt lat="48.8291" lon="2.4861">
        <ele>40.881</ele>
        <time>2016-12-04T14:09:12.263Z</time>
      </trkpt>
      <trkpt lat="48.82919" lon="2.48609">
        <ele>40.438</ele>
        <time>2016-12-04T14:09:21.106Z</time>
      </trkpt>
      <trkpt lat="48.82925" lon="2.48622">
        <ele>39.851</ele>
        <time>2016-12-04T14:09:30.406Z</time>
      </trkpt>
      <trkpt lat="48.82929" lon="2.48636">
        <ele>39.025</ele>
        <time>2016-12-04T14:09:38.044Z</time>
      </trkpt>
      <trkpt lat="48.82932" lon="2.48651">
        <ele>38.023</ele>
        <time>2016-12-04T14:09:45.507Z</time>
      </trkpt>
      <trkpt lat="48.82932" lon="2.48665">
        <ele>37.063</ele>
        <time>2016-12-04T14:09:52.368Z</time>
      </trkpt>
      <trkpt lat="48.82932" lon="2.48678">
        <ele>36.407</ele>
        <time>2016-12-04T14:09:59.236Z</time>
      </trkpt>
      <trkpt lat="48.82929" lon="2.48692">
        <ele>36.159</ele>
        <time>2016-12-04T14:10:07.116Z</time>
      </trkpt>
      <trkpt lat="48.82926" lon="2.48706">
        <ele>36.214</ele>
        <time>2016-12-04T14:10:16.069Z</time>
      </trkpt>
      <trkpt lat="48.82918" lon="2.48713">
        <ele>36.447</ele>
        <time>2016-12-04T14:10:25.637Z</time>
      </trkpt>
      <trkpt lat="48.82908" lon="2.4871">
        <ele>36.897</ele>
        <time>2016-12-04T14:10:36.903Z</time>
      </trkpt>
      <trkpt lat="48.82898" lon="2.48712">
        <ele>37.662</ele>
        <time>2016-12-04T14:10:46.277Z</time>
      </trkpt>
      <trkpt lat="48.82889" lon="2.48715">
        <ele>38.601</ele>
        <time>2016-12-04T14:10:54.000Z</time>
      </trkpt>
      <trkpt lat="48.82889" lon="2.48715">
        <ele>39.351</ele>
        <time>2016-12-04T14:10:59.000Z</time>
      </trkpt>
      <trkpt lat="48.82889" lon="2.48715">
        <ele>39.667</ele>
        <time>2016-12-04T14:11:08.072Z</time>
      </trkpt>
      <trkpt lat="48.82879" lon="2.48711">
        <ele>39.609</ele>
        <time>2016-12-04T14:11:20.977Z</time>
      </trkpt>
      <trkpt lat="48.82873" lon="2.487">
        <ele>39.609</ele>
        <time>2016-12-04T14:11:29.353Z</time>
      </trkpt>
      <trkpt lat="48.82865" lon="2.4869">
        <ele>39.981</ele>
        <time>2016-12-04T14:11:37.239Z</time>
      </trkpt>
      <trkpt lat="48.82859" lon="2.48679">
        <ele>40.488</ele>
        <time>2016-12-04T14:11:44.288Z</time>
      </trkpt>
      <trkpt lat="48.82851" lon="2.4867">
        <ele>40.801</ele>
        <time>2016-12-04T14:11:51.797Z</time>
      </trkpt>
      <trkpt lat="48.82848" lon="2.48657">
        <ele>40.954</ele>
        <time>2016-12-04T14:11:59.048Z</time>
      </trkpt>
      <trkpt lat="48.82843" lon="2.48645">
        <ele>41.067</ele>
        <time>2016-12-04T14:12:06.306Z</time>
      </trkpt>
      <trkpt lat="48.82836" lon="2.48637">
        <ele>41.09</ele>
        <time>2016-12-04T14:12:13.999Z</time>
      </trkpt>
      <trkpt lat="48.82836" lon="2.48637">
        <ele>40.964</ele>
        <time>2016-12-04T14:12:28.999Z</time>
      </trkpt>
      <trkpt lat="48.82836" lon="2.48637">
        <ele>40.829</ele>
        <time>2016-12-04T14:12:31.050Z</time>
      </trkpt>
      <trkpt lat="48.82824" lon="2.4864">
        <ele>40.811</ele>
        <time>2016-12-04T14:12:58.457Z</time>
      </trkpt>
      <trkpt lat="48.82815" lon="2.48646">
        <ele>40.863</ele>
        <time>2016-12-04T14:13:08.642Z</time>
      </trkpt>
      <trkpt lat="48.82806" lon="2.48651">
        <ele>40.967</ele>
        <time>2016-12-04T14:13:17.298Z</time>
      </trkpt>
      <trkpt lat="48.82797" lon="2.48655">
        <ele>41.272</ele>
        <time>2016-12-04T14:13:26.047Z</time>
      </trkpt>
      <trkpt lat="48.82788" lon="2.48659">
        <ele>41.772</ele>
        <time>2016-12-04T14:13:34.012Z</time>
      </trkpt>
      <trkpt lat="48.82778" lon="2.4866">
        <ele>42.163</ele>
        <time>2016-12-04T14:13:42.092Z</time>
      </trkpt>
      <trkpt lat="48.82769" lon="2.48661">
        <ele>42.263</ele>
        <time>2016-12-04T14:13:50.345Z</time>
      </trkpt>
      <trkpt lat="48.82759" lon="2.48662">
        <ele>42.184</ele>
        <time>2016-12-04T14:13:58.723Z</time>
      </trkpt>
      <trkpt lat="48.8275" lon="2.48666">
        <ele>42.058</ele>
        <time>2016-12-04T14:14:06.241Z</time>
      </trkpt>
      <trkpt lat="48.8274" lon="2.48666">
        <ele>41.961</ele>
        <time>2016-12-04T14:14:13.957Z</time>
      </trkpt>
      <trkpt lat="48.82731" lon="2.48662">
        <ele>41.997</ele>
        <time>2016-12-04T14:14:22.287Z</time>
      </trkpt>
      <trkpt lat="48.82722" lon="2.48658">
        <ele>42.267</ele>
        <time>2016-12-04T14:14:30.327Z</time>
      </trkpt>
      <trkpt lat="48.82712" lon="2.48652">
        <ele>42.685</ele>
        <time>2016-12-04T14:14:38.973Z</time>
      </trkpt>
      <trkpt lat="48.82703" lon="2.48646">
        <ele>43.008</ele>
        <time>2016-12-04T14:14:47.106Z</time>
      </trkpt>
      <trkpt lat="48.82695" lon="2.48637">
        <ele>43.112</ele>
        <time>2016-12-04T14:14:55.076Z</time>
      </trkpt>
      <trkpt lat="48.82687" lon="2.48627">
        <ele>43.062</ele>
        <time>2016-12-04T14:15:02.864Z</time>
      </trkpt>
      <trkpt lat="48.82681" lon="2.48617">
        <ele>42.967</ele>
        <time>2016-12-04T14:15:10.030Z</time>
      </trkpt>
      <trkpt lat="48.82677" lon="2.48604">
        <ele>42.901</ele>
        <time>2016-12-04T14:15:17.080Z</time>
      </trkpt>
      <trkpt lat="48.82673" lon="2.48591">
        <ele>42.907</ele>
        <time>2016-12-04T14:15:25.467Z</time>
      </trkpt>
      <trkpt lat="48.82672" lon="2.48575">
        <ele>43.016</ele>
        <time>2016-12-04T14:15:34.114Z</time>
      </trkpt>
      <trkpt lat="48.82673" lon="2.48561">
        <ele>43.196</ele>
        <time>2016-12-04T14:15:42.068Z</time>
      </trkpt>
      <trkpt lat="48.82675" lon="2.48547">
        <ele>43.362</ele>
        <time>2016-12-04T14:15:49.053Z</time>
      </trkpt>
      <trkpt lat="48.82675" lon="2.48533">
        <ele>43.463</ele>
        <time>2016-12-04T14:15:56.292Z</time>
      </trkpt>
      <trkpt lat="48.82673" lon="2.48519">
        <ele>43.463</ele>
        <time>2016-12-04T14:16:05.116Z</time>
      </trkpt>
      <trkpt lat="48.82663" lon="2.48518">
        <ele>43.279</ele>
        <time>2016-12-04T14:16:14.155Z</time>
      </trkpt>
      <trkpt lat="48.82654" lon="2.48523">
        <ele>42.777</ele>
        <time>2016-12-04T14:16:23.015Z</time>
      </trkpt>
      <trkpt lat="48.82648" lon="2.48512">
        <ele>41.959</ele>
        <time>2016-12-04T14:16:31.105Z</time>
      </trkpt>
      <trkpt lat="48.82652" lon="2.48498">
        <ele>41.108</ele>
        <time>2016-12-04T14:16:39.205Z</time>
      </trkpt>
      <trkpt lat="48.82651" lon="2.48483">
        <ele>40.507</ele>
        <time>2016-12-04T14:16:47.968Z</time>
      </trkpt>
      <trkpt lat="48.82642" lon="2.48482">
        <ele>40.204</ele>
        <time>2016-12-04T14:16:56.800Z</time>
      </trkpt>
      <trkpt lat="48.82638" lon="2.48495">
        <ele>40.139</ele>
        <time>2016-12-04T14:17:05.018Z</time>
      </trkpt>
      <trkpt lat="48.82628" lon="2.48495">
        <ele>40.21</ele>
        <time>2016-12-04T14:17:13.763Z</time>
      </trkpt>
      <trkpt lat="48.82623" lon="2.48483">
        <ele>40.268</ele>
        <time>2016-12-04T14:17:21.072Z</time>
      </trkpt>
      <trkpt lat="48.82618" lon="2.4847">
        <ele>40.193</ele>
        <time>2016-12-04T14:17:28.337Z</time>
      </trkpt>
      <trkpt lat="48.82613" lon="2.48459">
        <ele>40.021</ele>
        <time>2016-12-04T14:17:35.227Z</time>
      </trkpt>
      <trkpt lat="48.82606" lon="2.48447">
        <ele>39.981</ele>
        <time>2016-12-04T14:17:43.591Z</time>
      </trkpt>
      <trkpt lat="48.82599" lon="2.48438">
        <ele>40.267</ele>
        <time>2016-12-04T14:17:51.822Z</time>
      </trkpt>
      <trkpt lat="48.82589" lon="2.48432">
        <ele>40.734</ele>
        <time>2016-12-04T14:17:59.827Z</time>
      </trkpt>
      <trkpt lat="48.8258" lon="2.48429">
        <ele>41.032</ele>
        <time>2016-12-04T14:18:07.210Z</time>
      </trkpt>
      <trkpt lat="48.82571" lon="2.48425">
        <ele>41.041</ele>
        <time>2016-12-04T14:18:14.164Z</time>
      </trkpt>
      <trkpt lat="48.82562" lon="2.48425">
        <ele>40.997</ele>
        <time>2016-12-04T14:18:21.368Z</time>
      </trkpt>
      <trkpt lat="48.82552" lon="2.48428">
        <ele>41.115</ele>
        <time>2016-12-04T14:18:29.127Z</time>
      </trkpt>
      <trkpt lat="48.82542" lon="2.48432">
        <ele>41.333</ele>
        <time>2016-12-04T14:18:37.134Z</time>
      </trkpt>
      <trkpt lat="48.82534" lon="2.48438">
        <ele>41.49</ele>
        <time>2016-12-04T14:18:44.764Z</time>
      </trkpt>
      <trkpt lat="48.82525" lon="2.48442">
        <ele>41.514</ele>
        <time>2016-12-04T14:18:52.876Z</time>
      </trkpt>
      <trkpt lat="48.82516" lon="2.48448">
        <ele>41.44</ele>
        <time>2016-12-04T14:19:01.268Z</time>
      </trkpt>
      <trkpt lat="48.82507" lon="2.48451">
        <ele>41.404</ele>
        <time>2016-12-04T14:19:09.138Z</time>
      </trkpt>
      <trkpt lat="48.82497" lon="2.48449">
        <ele>41.509</ele>
        <time>2016-12-04T14:19:16.394Z</time>
      </trkpt>
      <trkpt lat="48.82488" lon="2.48446">
        <ele>41.709</ele>
        <time>2016-12-04T14:19:23.688Z</time>
      </trkpt>
      <trkpt lat="48.82478" lon="2.48445">
        <ele>41.869</ele>
        <time>2016-12-04T14:19:31.429Z</time>
      </trkpt>
      <trkpt lat="48.82468" lon="2.48448">
        <ele>41.883</ele>
        <time>2016-12-04T14:19:39.952Z</time>
      </trkpt>
      <trkpt lat="48.82459" lon="2.48447">
        <ele>41.723</ele>
        <time>2016-12-04T14:19:47.932Z</time>
      </trkpt>
      <trkpt lat="48.82451" lon="2.48454">
        <ele>41.518</ele>
        <time>2016-12-04T14:19:56.259Z</time>
      </trkpt>
      <trkpt lat="48.82444" lon="2.48464">
        <ele>41.427</ele>
        <time>2016-12-04T14:20:05.014Z</time>
      </trkpt>
      <trkpt lat="48.82435" lon="2.48471">
        <ele>41.446</ele>
        <time>2016-12-04T14:20:14.808Z</time>
      </trkpt>
      <trkpt lat="48.8243" lon="2.48484">
        <ele>41.413</ele>
        <time>2016-12-04T14:20:22.921Z</time>
      </trkpt>
      <trkpt lat="48.82425" lon="2.48496">
        <ele>41.186</ele>
        <time>2016-12-04T14:20:30.745Z</time>
      </trkpt>
      <trkpt lat="48.82419" lon="2.48508">
        <ele>40.827</ele>
        <time>2016-12-04T14:20:38.652Z</time>
      </trkpt>
      <trkpt lat="48.82412" lon="2.48519">
        <ele>40.476</ele>
        <time>2016-12-04T14:20:46.472Z</time>
      </trkpt>
      <trkpt lat="48.82408" lon="2.48531">
        <ele>40.176</ele>
        <time>2016-12-04T14:20:53.716Z</time>
      </trkpt>
      <trkpt lat="48.82402" lon="2.48544">
        <ele>39.891</ele>
        <time>2016-12-04T14:21:01.511Z</time>
      </trkpt>
      <trkpt lat="48.82399" lon="2.48558">
        <ele>39.564</ele>
        <time>2016-12-04T14:21:09.079Z</time>
      </trkpt>
      <trkpt lat="48.82396" lon="2.48571">
        <ele>39.241</ele>
        <time>2016-12-04T14:21:16.465Z</time>
      </trkpt>
      <trkpt lat="48.82393" lon="2.48584">
        <ele>39.068</ele>
        <time>2016-12-04T14:21:23.432Z</time>
      </trkpt>
      <trkpt lat="48.8239" lon="2.48598">
        <ele>39.125</ele>
        <time>2016-12-04T14:21:30.699Z</time>
      </trkpt>
      <trkpt lat="48.82387" lon="2.48613">
        <ele>39.366</ele>
        <time>2016-12-04T14:21:38.895Z</time>
      </trkpt>
      <trkpt lat="48.82385" lon="2.48626">
        <ele>39.622</ele>
        <time>2016-12-04T14:21:46.516Z</time>
      </trkpt>
      <trkpt lat="48.82384" lon="2.48642">
        <ele>39.761</ele>
        <time>2016-12-04T14:21:54.565Z</time>
      </trkpt>
      <trkpt lat="48.82382" lon="2.48656">
        <ele>39.825</ele>
        <time>2016-12-04T14:22:02.418Z</time>
      </trkpt>
      <trkpt lat="48.82376" lon="2.48668">
        <ele>39.941</ele>
        <time>2016-12-04T14:22:10.603Z</time>
      </trkpt>
      <trkpt lat="48.82366" lon="2.48665">
        <ele>40.18</ele>
        <time>2016-12-04T14:22:18.325Z</time>
      </trkpt>
      <trkpt lat="48.82356" lon="2.48663">
        <ele>40.464</ele>
        <time>2016-12-04T14:22:25.457Z</time>
      </trkpt>
      <trkpt lat="48.82347" lon="2.48657">
        <ele>40.658</ele>
        <time>2016-12-04T14:22:33.137Z</time>
      </trkpt>
      <trkpt lat="48.82339" lon="2.48649">
        <ele>40.737</ele>
        <time>2016-12-04T14:22:40.360Z</time>
      </trkpt>
      <trkpt lat="48.8233" lon="2.48642">
        <ele>40.798</ele>
        <time>2016-12-04T14:22:48.301Z</time>
      </trkpt>
      <trkpt lat="48.82322" lon="2.48635">
        <ele>40.908</ele>
        <time>2016-12-04T14:22:55.659Z</time>
      </trkpt>
      <trkpt lat="48.82313" lon="2.4863">
        <ele>41.078</ele>
        <time>2016-12-04T14:23:03.122Z</time>
      </trkpt>
      <trkpt lat="48.82304" lon="2.48631">
        <ele>41.364</ele>
        <time>2016-12-04T14:23:10.393Z</time>
      </trkpt>
      <trkpt lat="48.82295" lon="2.48636">
        <ele>41.805</ele>
        <time>2016-12-04T14:23:18.102Z</time>
      </trkpt>
      <trkpt lat="48.82287" lon="2.48628">
        <ele>42.283</ele>
        <time>2016-12-04T14:23:26.276Z</time>
      </trkpt>
      <trkpt lat="48.82277" lon="2.48622">
        <ele>42.646</ele>
        <time>2016-12-04T14:23:34.832Z</time>
      </trkpt>
      <trkpt lat="48.82267" lon="2.48622">
        <ele>42.866</ele>
        <time>2016-12-04T14:23:43.181Z</time>
      </trkpt>
      <trkpt lat="48.82257" lon="2.48625">
        <ele>42.965</ele>
        <time>2016-12-04T14:23:51.341Z</time>
      </trkpt>
      <trkpt lat="48.82248" lon="2.48628">
        <ele>42.964</ele>
        <time>2016-12-04T14:23:59.414Z</time>
      </trkpt>
      <trkpt lat="48.82238" lon="2.48626">
        <ele>42.837</ele>
        <time>2016-12-04T14:24:07.649Z</time>
      </trkpt>
      <trkpt lat="48.82248" lon="2.48628">
        <ele>42.561</ele>
        <time>2016-12-04T14:24:15.853Z</time>
      </trkpt>
      <trkpt lat="48.82255" lon="2.48637">
        <ele>42.25</ele>
        <time>2016-12-04T14:24:24.144Z</time>
      </trkpt>
      <trkpt lat="48.82258" lon="2.4865">
        <ele>42.106</ele>
        <time>2016-12-04T14:24:32.000Z</time>
      </trkpt>
      <trkpt lat="48.82258" lon="2.4865">
        <ele>42.171</ele>
        <time>2016-12-04T14:24:40.000Z</time>
      </trkpt>
      <trkpt lat="48.82258" lon="2.4865">
        <ele>42.269</ele>
        <time>2016-12-04T14:25:08.414Z</time>
      </trkpt>
      <trkpt lat="48.82265" lon="2.4867">
        <ele>42.247</ele>
        <time>2016-12-04T14:25:27.048Z</time>
      </trkpt>
      <trkpt lat="48.82267" lon="2.48685">
        <ele>42.078</ele>
        <time>2016-12-04T14:25:35.274Z</time>
      </trkpt>
      <trkpt lat="48.82269" lon="2.48698">
        <ele>41.721</ele>
        <time>2016-12-04T14:25:42.338Z</time>
      </trkpt>
      <trkpt lat="48.82271" lon="2.48713">
        <ele>41.239</ele>
        <time>2016-12-04T14:25:50.060Z</time>
      </trkpt>
      <trkpt lat="48.82272" lon="2.48729">
        <ele>40.853</ele>
        <time>2016-12-04T14:25:57.954Z</time>
      </trkpt>
      <trkpt lat="48.82273" lon="2.48743">
        <ele>40.61</ele>
        <time>2016-12-04T14:26:04.968Z</time>
      </trkpt>
      <trkpt lat="48.82273" lon="2.48758">
        <ele>40.406</ele>
        <time>2016-12-04T14:26:12.542Z</time>
      </trkpt>
      <trkpt lat="48.82274" lon="2.48772">
        <ele>40.291</ele>
        <time>2016-12-04T14:26:19.842Z</time>
      </trkpt>
      <trkpt lat="48.82278" lon="2.48786">
        <ele>40.479</ele>
        <time>2016-12-04T14:26:27.535Z</time>
      </trkpt>
      <trkpt lat="48.8228" lon="2.48801">
        <ele>40.971</ele>
        <time>2016-12-04T14:26:35.374Z</time>
      </trkpt>
      <trkpt lat="48.82281" lon="2.48815">
        <ele>41.42</ele>
        <time>2016-12-04T14:26:42.465Z</time>
      </trkpt>
      <trkpt lat="48.82283" lon="2.4883">
        <ele>41.58</ele>
        <time>2016-12-04T14:26:50.082Z</time>
      </trkpt>
      <trkpt lat="48.82286" lon="2.48844">
        <ele>41.551</ele>
        <time>2016-12-04T14:26:57.324Z</time>
      </trkpt>
      <trkpt lat="48.82288" lon="2.48858">
        <ele>41.547</ele>
        <time>2016-12-04T14:27:04.977Z</time>
      </trkpt>
      <trkpt lat="48.8229" lon="2.48872">
        <ele>41.729</ele>
        <time>2016-12-04T14:27:12.679Z</time>
      </trkpt>
      <trkpt lat="48.82293" lon="2.48886">
        <ele>42.102</ele>
        <time>2016-12-04T14:27:19.995Z</time>
      </trkpt>
      <trkpt lat="48.82296" lon="2.489">
        <ele>42.516</ele>
        <time>2016-12-04T14:27:27.574Z</time>
      </trkpt>
      <trkpt lat="48.82299" lon="2.48913">
        <ele>42.792</ele>
        <time>2016-12-04T14:27:34.673Z</time>
      </trkpt>
      <trkpt lat="48.82303" lon="2.48926">
        <ele>42.851</ele>
        <time>2016-12-04T14:27:41.688Z</time>
      </trkpt>
      <trkpt lat="48.82308" lon="2.48939">
        <ele>42.69</ele>
        <time>2016-12-04T14:27:49.302Z</time>
      </trkpt>
      <trkpt lat="48.82311" lon="2.48953">
        <ele>42.322</ele>
        <time>2016-12-04T14:27:56.396Z</time>
      </trkpt>
      <trkpt lat="48.82313" lon="2.48967">
        <ele>41.85</ele>
        <time>2016-12-04T14:28:03.520Z</time>
      </trkpt>
      <trkpt lat="48.82318" lon="2.48979">
        <ele>41.41</ele>
        <time>2016-12-04T14:28:10.984Z</time>
      </trkpt>
      <trkpt lat="48.82323" lon="2.48991">
        <ele>41.056</ele>
        <time>2016-12-04T14:28:18.642Z</time>
      </trkpt>
      <trkpt lat="48.82328" lon="2.49003">
        <ele>40.805</ele>
        <time>2016-12-04T14:28:25.963Z</time>
      </trkpt>
      <trkpt lat="48.82333" lon="2.49016">
        <ele>40.671</ele>
        <time>2016-12-04T14:28:33.720Z</time>
      </trkpt>
      <trkpt lat="48.82338" lon="2.4903">
        <ele>40.626</ele>
        <time>2016-12-04T14:28:41.585Z</time>
      </trkpt>
      <trkpt lat="48.82342" lon="2.49043">
        <ele>40.687</ele>
        <time>2016-12-04T14:28:49.358Z</time>
      </trkpt>
      <trkpt lat="48.82349" lon="2.49054">
        <ele>41.002</ele>
        <time>2016-12-04T14:28:56.539Z</time>
      </trkpt>
      <trkpt lat="48.82355" lon="2.49066">
        <ele>41.613</ele>
        <time>2016-12-04T14:29:04.215Z</time>
      </trkpt>
      <trkpt lat="48.82361" lon="2.49076">
        <ele>42.248</ele>
        <time>2016-12-04T14:29:11.175Z</time>
      </trkpt>
      <trkpt lat="48.82367" lon="2.49087">
        <ele>42.587</ele>
        <time>2016-12-04T14:29:18.119Z</time>
      </trkpt>
      <trkpt lat="48.82373" lon="2.49098">
        <ele>42.591</ele>
        <time>2016-12-04T14:29:25.022Z</time>
      </trkpt>
      <trkpt lat="48.82376" lon="2.49112">
        <ele>42.437</ele>
        <time>2016-12-04T14:29:32.960Z</time>
      </trkpt>
      <trkpt lat="48.8238" lon="2.49124">
        <ele>42.358</ele>
        <time>2016-12-04T14:29:41.309Z</time>
      </trkpt>
      <trkpt lat="48.82381" lon="2.49139">
        <ele>42.453</ele>
        <time>2016-12-04T14:29:49.390Z</time>
      </trkpt>
      <trkpt lat="48.82385" lon="2.49152">
        <ele>42.626</ele>
        <time>2016-12-04T14:29:56.224Z</time>
      </trkpt>
      <trkpt lat="48.82387" lon="2.49166">
        <ele>42.751</ele>
        <time>2016-12-04T14:30:02.999Z</time>
      </trkpt>
      <trkpt lat="48.82385" lon="2.49181">
        <ele>42.833</ele>
        <time>2016-12-04T14:30:10.728Z</time>
      </trkpt>
      <trkpt lat="48.82387" lon="2.49195">
        <ele>42.926</ele>
        <time>2016-12-04T14:30:18.377Z</time>
      </trkpt>
      <trkpt lat="48.82389" lon="2.4921">
        <ele>43.078</ele>
        <time>2016-12-04T14:30:26.446Z</time>
      </trkpt>
      <trkpt lat="48.82394" lon="2.49223">
        <ele>43.293</ele>
        <time>2016-12-04T14:30:34.477Z</time>
      </trkpt>
      <trkpt lat="48.82399" lon="2.49235">
        <ele>43.541</ele>
        <time>2016-12-04T14:30:42.109Z</time>
      </trkpt>
      <trkpt lat="48.82404" lon="2.49246">
        <ele>43.779</ele>
        <time>2016-12-04T14:30:49.334Z</time>
      </trkpt>
      <trkpt lat="48.8241" lon="2.49257">
        <ele>43.946</ele>
        <time>2016-12-04T14:30:56.352Z</time>
      </trkpt>
      <trkpt lat="48.82418" lon="2.49268">
        <ele>43.996</ele>
        <time>2016-12-04T14:31:03.522Z</time>
      </trkpt>
      <trkpt lat="48.82425" lon="2.49279">
        <ele>43.93</ele>
        <time>2016-12-04T14:31:10.971Z</time>
      </trkpt>
      <trkpt lat="48.82432" lon="2.49289">
        <ele>43.761</ele>
        <time>2016-12-04T14:31:18.406Z</time>
      </trkpt>
      <trkpt lat="48.82437" lon="2.49302">
        <ele>43.595</ele>
        <time>2016-12-04T14:31:26.718Z</time>
      </trkpt>
      <trkpt lat="48.82442" lon="2.49314">
        <ele>43.533</ele>
        <time>2016-12-04T14:31:35.000Z</time>
      </trkpt>
      <trkpt lat="48.82442" lon="2.49314">
        <ele>43.551</ele>
        <time>2016-12-04T14:31:42.000Z</time>
      </trkpt>
      <trkpt lat="48.82442" lon="2.49314">
        <ele>43.569</ele>
        <time>2016-12-04T14:33:46.984Z</time>
      </trkpt>
      <trkpt lat="48.82445" lon="2.4933">
        <ele>43.551</ele>
        <time>2016-12-04T14:34:02.124Z</time>
      </trkpt>
      <trkpt lat="48.82445" lon="2.49344">
        <ele>43.598</ele>
        <time>2016-12-04T14:34:10.000Z</time>
      </trkpt>
      <trkpt lat="48.82445" lon="2.49344">
        <ele>43.785</ele>
        <time>2016-12-04T14:34:14.000Z</time>
      </trkpt>
      <trkpt lat="48.82445" lon="2.49344">
        <ele>43.944</ele>
        <time>2016-12-04T14:34:17.534Z</time>
      </trkpt>
      <trkpt lat="48.82445" lon="2.49344">
        <ele>43.817</ele>
        <time>2016-12-04T14:34:30.000Z</time>
      </trkpt>
      <trkpt lat="48.82445" lon="2.49344">
        <ele>43.747</ele>
        <time>2016-12-04T14:34:33.359Z</time>
      </trkpt>
      <trkpt lat="48.82434" lon="2.49334">
        <ele>43.748</ele>
        <time>2016-12-04T14:34:53.103Z</time>
      </trkpt>
      <trkpt lat="48.82432" lon="2.4932">
        <ele>43.998</ele>
        <time>2016-12-04T14:35:02.489Z</time>
      </trkpt>
      <trkpt lat="48.82426" lon="2.49307">
        <ele>44.625</ele>
        <time>2016-12-04T14:35:11.116Z</time>
      </trkpt>
      <trkpt lat="48.82419" lon="2.49298">
        <ele>45.329</ele>
        <time>2016-12-04T14:35:18.667Z</time>
      </trkpt>
      <trkpt lat="48.82411" lon="2.49289">
        <ele>45.681</ele>
        <time>2016-12-04T14:35:26.214Z</time>
      </trkpt>
      <trkpt lat="48.82402" lon="2.4928">
        <ele>45.618</ele>
        <time>2016-12-04T14:35:33.768Z</time>
      </trkpt>
      <trkpt lat="48.82396" lon="2.4927">
        <ele>45.34</ele>
        <time>2016-12-04T14:35:41.286Z</time>
      </trkpt>
      <trkpt lat="48.82387" lon="2.49263">
        <ele>45.059</ele>
        <time>2016-12-04T14:35:48.706Z</time>
      </trkpt>
      <trkpt lat="48.82382" lon="2.49251">
        <ele>44.87</ele>
        <time>2016-12-04T14:35:55.757Z</time>
      </trkpt>
      <trkpt lat="48.82378" lon="2.49238">
        <ele>44.731</ele>
        <time>2016-12-04T14:36:02.457Z</time>
      </trkpt>
      <trkpt lat="48.82375" lon="2.49224">
        <ele>44.54</ele>
        <time>2016-12-04T14:36:09.759Z</time>
      </trkpt>
      <trkpt lat="48.82373" lon="2.49209">
        <ele>44.32</ele>
        <time>2016-12-04T14:36:17.145Z</time>
      </trkpt>
      <trkpt lat="48.8237" lon="2.49194">
        <ele>44.151</ele>
        <time>2016-12-04T14:36:25.412Z</time>
      </trkpt>
      <trkpt lat="48.82368" lon="2.49181">
        <ele>44.067</ele>
        <time>2016-12-04T14:36:32.834Z</time>
      </trkpt>
      <trkpt lat="48.82365" lon="2.49166">
        <ele>44.023</ele>
        <time>2016-12-04T14:36:41.264Z</time>
      </trkpt>
      <trkpt lat="48.82362" lon="2.49153">
        <ele>43.869</ele>
        <time>2016-12-04T14:36:49.000Z</time>
      </trkpt>
      <trkpt lat="48.82362" lon="2.49153">
        <ele>43.573</ele>
        <time>2016-12-04T14:36:57.000Z</time>
      </trkpt>
      <trkpt lat="48.82362" lon="2.49153">
        <ele>43.354</ele>
        <time>2016-12-04T14:38:27.000Z</time>
      </trkpt>
    </trkseg>
  </trk>
</gpx>